     2              OBSERVATION DATA    GPS                 RINEX VERSION / TYPE
ASHTORIN USGS 11 - MAY - 93 13:07                           PGM / RUN BY / DATE
                                                            COMMENT
for the YMP-USGS. Primary user 8.3.1.17.4.10.2.             COMMENT
for the YMP-USGS. Primary user 8.3.1.17.4.10.2.             COMMENT
for the YMP-USGS. Primary user 8.3.1.17.4.10.2.             COMMENT
for the YMP-USGS. Primary user 8.3.1.17.4.10.2.             COMMENT
Original Marker Name: 1pdi 1_PDI_1986_USGS                  COMMENT
Campaign Name: USGS Yucca Profile                           COMMENT
4-Character Station Name: 1PDI                              COMMENT
6-Character Antenna Code: ASHL12                            COMMENT
Vertical Measurement Point: BBE                             COMMENT
Vertical Offset to Rinex Ref. Point: 0.0595                 COMMENT
Radial Measurement Point: EGP                               COMMENT
Radial Offset to Rinex Ref. Point: 0.1424                   COMMENT
Antenna Height from Field Measurement: 1.3920 m             COMMENT
Additional Antenna Identification Info.:                    COMMENT
Original Ashtech L1/L2 (700228ABC)                          COMMENT
Original XYZ: -2258208.5700 -4596755.9800 3790531.7500      COMMENT
New XYZ position is based on association with SCEC monument COMMENT
E1G0H9Q6+0011. Position of that monument is believed to be  COMMENT
valid to within 1 m horizontally; vertical accuracy         COMMENT
should be no worse than 3-times this value.                 COMMENT
                                                            COMMENT
Revised Rinex header created by UCSD GPS archive for        COMMENT
GSAC on 08-Aug-2000 (2000:221) 00:35:46 GMT                 COMMENT
For assistance contact dagnew@ucsd.edu                      COMMENT
or anderson@python.ucsd.edu                                 COMMENT
                                                            COMMENT
1PDI 1986                                                   MARKER NAME
                                                            MARKER NUMBER
WKG US GEOLOGICAL SURVEY                                    OBSERVER / AGENCY
762 ASHTECH L-XII 6M24                                      REC # / TYPE / VERS
745 ASHTECH GEODETIC L                                      ANT # / TYPE
 -2258194.7363 -4596712.5674  3790512.5940                  APPROX POSITION XYZ
        1.3252        0.0000        0.0000                  ANTENNA: DELTA H/E/N
     1     2     0                                          WAVELENGTH FACT L1/2
     4    L1    L2    C1    D1                              # / TYPES OF OBSERV
    30                                                      INTERVAL
  1993     5     6     3     0   30.000000                  TIME OF FIRST OBS
  1993     5     6    13    30    0.000000                  TIME OF LAST OBS
    18                                                      # OF SATELLITES
           1   726   726   726   726                        PRN / # OF OBS
           3   597   597   597   597                        PRN / # OF OBS
          12   235   235   235   235                        PRN / # OF OBS
          14   328   328   328   328                        PRN / # OF OBS
          15   521   521   521   521                        PRN / # OF OBS
          16   276   276   276   276                        PRN / # OF OBS
          17   747   747   747   747                        PRN / # OF OBS
          18    36    36    36    36                        PRN / # OF OBS
          20   366   366   366   366                        PRN / # OF OBS
          21   819   819   819   819                        PRN / # OF OBS
          22   554   554   554   554                        PRN / # OF OBS
          23   782   782   782   782                        PRN / # OF OBS
          24   101   101   101   101                        PRN / # OF OBS
          25   531   531   531   531                        PRN / # OF OBS
          26   484   484   484   484                        PRN / # OF OBS
          28   527   527   527   527                        PRN / # OF OBS
          29   285   285   285   285                        PRN / # OF OBS
                                                            END OF HEADER
 93  5  6  3  0 30.0000000  0  5 24 16 20 17  3                      0.000358500
   -113940.90416   -149032.62116  23282248.724        2972.676
 -14996156.69018 -12612045.59519  21183358.068         577.404
  -8046201.24118 -14627743.58619  20728613.239        1368.434
  -5877416.59916  -4426215.58515  23257189.963       -2438.166
  -2127608.96617  -6592751.33016  22954744.478       -1840.696
 93  5  6  3  1  0.0000000  0  5 24 16 20 17  3                      0.000364200
    -24736.671 6    -79522.839 6  23299223.903        2974.376
 -14978535.978 8 -12598315.154 9  21186711.274         597.456
  -8004860.345 8 -14595529.919 9  20736480.134        1387.603
  -5950458.480 6  -4483131.301 5  23243290.704       -2431.208
  -2182812.273 7  -6635766.882 6  22944239.481       -1839.822
 93  5  6  3  1 30.0000000  0  5 24 16 20 17  3                      0.000369910
     64519.431 6     -9972.657 6  23316208.935        2975.847
 -14960316.352 8 -12584118.031 9  21190178.375         617.006
  -7962946.440 8 -14562869.758 9  20744456.261        1406.648
  -6023290.516 6  -4539883.484 5  23229430.409       -2424.186
  -2237989.094 7  -6678761.775 6  22933739.820       -1838.972
 93  5  6  3  2  0.0000000  0  5 24 16 20 17  3                      0.000375620
    153812.116 6     59606.058 6  23333200.470        2976.973
 -14941522.450 8 -12569473.419 9  21193754.830         635.858
  -7920460.666 8 -14529763.983 9  20752541.014        1425.655
  -6095909.943 6  -4596470.022 5  23215611.181       -2417.055
  -2293139.223 7  -6721735.878 6  22923245.088       -1838.050
 93  5  6  3  2 30.0000000  0  5 24 16 20 17  3                      0.000381330
    243131.212 6    129205.341 6  23350197.514        2977.667
 -14922165.343 8 -12554389.955 9  21197438.527         654.608
  -7877410.470 8 -14496218.392 9  20760733.065        1444.405
  -6168312.867 6  -4652887.802 5  23201833.403       -2409.723
  -2348268.714 7  -6764693.885 6  22912754.531       -1837.408
 93  5  6  3  3  0.0000000  0  5 24 16 20 17  3                      0.000387050
    332469.040 6    198819.200 6  23367197.688        2978.209
 -14902245.427 8 -12538867.924 9  21201229.183         673.496
  -7833794.668 8 -14462232.072 9  20769032.727        1463.410
  -6240496.147 6  -4709134.485 5  23188097.616       -2402.404
  -2403375.108 7  -6807633.922 6  22902268.200       -1836.494
 93  5  6  3  3 30.0000000  0  5 24 16 20 17  3                      0.000392750
    421820.311 6    268443.544 6  23384200.414        2978.502
 -14881759.829 8 -12522905.111 9  21205127.683         692.158
  -7789605.389 8 -14427798.880 9  20777441.727        1482.536
  -6312462.281 6  -4765211.880 5  23174402.324       -2395.327
  -2458449.099 7  -6850548.682 6  22891787.658       -1835.352
 93  5  6  3  4  0.0000000  0  5 24 16 20 17  3                      0.000398450
    511182.437 6    338076.352 6  23401205.910        2978.916
 -14860709.883 8 -12506502.546 9  21209133.343         711.147
  -7744843.775 8 -14392919.727 9  20785959.621        1501.481
  -6384212.967 6  -4821121.449 5  23160748.654       -2388.148
  -2513490.412 7  -6893437.984 6  22881313.555       -1834.390
 93  5  6  3  4 30.0000000  0  5 24 16 20 17  3                      0.000404140
    600566.845 6    407726.497 6  23418215.296        2980.030
 -14839083.362 8 -12489650.701 9  21213248.574         730.424
  -7699509.190 8 -14357594.100 9  20794586.586        1520.713
  -6455744.052 6  -4876859.887 5  23147137.010       -2380.626
  -2568496.239 7  -6936299.675 6  22870846.275       -1833.070
 93  5  6  3  5  0.0000000  0  5 24 16 20 17  3                      0.000409830
    689982.196 6    477400.806 6  23435230.768        2980.917
 -14816881.393 8 -12472350.456 9  21217473.339         749.587
  -7653603.351 8 -14321823.343 9  20803322.110        1539.542
  -6527055.859 6  -4932427.439 5  23133567.213       -2373.605
  -2623466.918 7  -6979133.935 6  22860385.535       -1832.035
 93  5  6  3  5 30.0000000  0  5 24 16 20 17  3                      0.000415520
    779432.578 6    547102.393 6  23452252.588        2982.387
 -14794098.324 8 -12454597.416 9  21221808.558         769.045
  -7607127.241 8 -14285608.210 9  20812166.147        1558.696
  -6598148.667 6  -4987824.344 5  23120038.310       -2366.008
  -2678402.008 7  -7021940.462 6  22849932.162       -1830.736
 93  5  6  3  6  0.0000000  0  5 24 16 20 17  3                      0.000421230
    868920.691 6    616833.401 5  23469281.593        2983.550
 -14770734.420 8 -12436391.761 8  21226254.668         788.632
  -7560082.015 8 -14248949.605 9  20821118.769        1577.628
  -6669010.537 6  -5043041.291 5  23106553.247       -2358.166
  -2733301.260 7  -7064719.065 6  22839485.004       -1829.493
 93  5  6  3  6 30.0000000  0  5 24 16 20 17  3                      0.000426940
    958434.044 6    686584.069 5  23486315.454        2984.092
 -14746785.512 8 -12417730.276 8  21230812.135         808.145
  -7512477.489 8 -14211855.196 9  20830177.698        1596.151
  -6739648.533 6  -5098083.777 5  23093111.072       -2350.902
  -2788172.606 7  -7107475.919 6  22829043.453       -1828.679
 93  5  6  3  7  0.0000000  0  5 24 16 20 17  3                      0.000432640
   1047966.916 6    756349.932 5  23503353.059        2984.708
 -14722236.805 8 -12398601.383 9  21235483.412         828.368
  -7464311.371 8 -14174323.162 9  20839343.422        1614.932
  -6810069.643 6  -5152957.259 5  23079710.493       -2343.894
  -2843011.958 7  -7150207.829 6  22818607.905       -1827.498
 93  5  6  3  7 30.0000000  0  5 24 16 20 17  3                      0.000438320
   1137522.643 6    826133.597 5  23520394.389        2985.770
 -14697090.134 8 -12379006.582 8  21240268.488         848.055
  -7415582.694 8 -14136352.792 9  20848616.033        1633.628
  -6880280.479 6  -5207666.938 5  23066349.667       -2336.884
  -2897817.030 7  -7192913.060 6  22808178.665       -1826.438
 93  5  6  3  8  0.0000000  0  5 24 16 20 17  3                      0.000443980
   1227105.887 6    895938.726 5  23537441.919        2986.518
 -14671354.964 8 -12358953.186 9  21245165.977         867.875
  -7366296.401 8 -14097947.905 9  20857994.972        1652.234
  -6950286.463 6  -5262216.956 5  23053028.318       -2330.178
  -2952590.817 7  -7235593.870 6  22797755.752       -1825.275
 93  5  6  3  8 30.0000000  0  5 24 16 20 17  3                      0.000449610
   1316711.760 6    965761.484 5  23554493.384        2987.404
 -14645030.589 8 -12338440.680 9  21250175.400         887.025
  -7316455.194 8 -14059110.624 9  20867479.365        1670.668
  -7020105.216 6  -5316621.120 5  23039741.552       -2324.179
  -3007333.840 7  -7278250.734 6  22787338.214       -1824.287
 93  5  6  3  9  0.0000000  0  5 24 16 20 17  3                      0.000455230
   1406351.170 6   1035610.338 5  23571551.133        2988.624
 -14618146.991 8 -12317492.406 9  21255290.999         905.177
  -7266061.468 8 -14019842.804 9  20877068.995        1689.010
  -7089736.508 6  -5370879.154 5  23026490.966       -2317.823
  -3062047.161 7  -7320884.427 6  22776926.463       -1823.397
 93  5  6  3  9 30.0000000  0  5 24 16 20 17  3                      0.000460860
   1496031.967 6   1105491.458 5  23588616.630        2989.958
 -14590721.495 8 -12296121.889 9  21260509.964         923.204
  -7215113.639 8 -13980143.213 9  20886763.885        1707.415
  -7159164.840 6  -5424979.093 5  23013279.537       -2310.824
  -3116726.927 7  -7363491.995 6  22766521.027       -1822.247
 93  5  6  3 10  0.0000000  0  5 24 16 20 17  3                      0.000466490
   1585737.257 6   1175391.657 5  23605687.369        2990.611
 -14562755.646 8 -12274330.299 9  21265831.941         941.483
  -7163618.576 8 -13940017.211 9  20896563.100        1725.823
  -7228385.954 6  -5478917.573 5  23000106.884       -2303.743
  -3171378.397 7  -7406077.495 6  22756120.966       -1821.141
 93  5  6  3 10 30.0000000  0  5 24 16 20 17  3                      0.000472130
   1675468.884 6   1245312.408 5  23622762.662        2991.740
 -14534244.530 8 -12252113.847 9  21271257.416         959.338
  -7111571.511 8 -13899461.071 9  20906467.583        1744.164
  -7297389.990 6  -5532686.868 5  22986976.366       -2296.248
  -3225994.643 7  -7448635.571 6  22745727.809       -1819.986
 93  5  6  3 11  0.0000000  0  5 24 16 20 17  3                      0.000477800
   1765231.414 6   1315257.258 5  23639844.045        2992.409
 -14505197.627 8 -12229479.882 9  21276784.668         977.371
  -7058975.306 8 -13858477.043 9  20916476.375        1762.344
  -7366166.783 6  -5586279.100 5  22973888.479       -2288.898
  -3280576.777 7  -7491167.033 6  22735341.140       -1818.968
 93  5  6  3 11 30.0000000  0  5 24 16 20 17  3                      0.000483470
   1855009.280 6   1385213.993 5  23656927.331        2993.001
 -14475592.348 8 -12206410.836 9  21282418.247         996.565
  -7005833.008 8 -13817067.473 9  20926588.905        1780.734
  -7434721.448 6  -5639698.279 5  22960843.220       -2281.218
  -3335125.898 7  -7533672.829 6  22724960.776       -1817.606
 93  5  6  3 12  0.0000000  0  5 24 16 20 17  3                      0.000489140
   1944794.326 6   1455176.382 5  23674012.916        2992.763
 -14445418.373 8 -12182898.636 9  21288160.134        1015.190
  -6952144.741 8 -13775232.473 9  20936805.651        1798.611
  -7503052.808 6  -5692943.451 5  22947839.954       -2274.300
  -3389640.113 7  -7576151.377 6  22714586.958       -1816.698
 93  5  6  3 12 30.0000000  0  5 24 16 20 17  3                      0.000494790
   2034582.672 6   1525141.297 5  23691098.694        2993.227
 -14414674.436 8 -12158942.319 9  21294010.523        1034.503
  -6897909.191 8 -13732971.035 9  20947126.145        1817.175
  -7571169.156 6  -5746021.101 5  22934877.687       -2266.547
  -3444115.591 7  -7618599.747 6  22704220.626       -1815.114
 93  5  6  3 13  0.0000000  0  5 24 16 20 17  3                      0.000500420
   2124365.951 6   1595102.271 5  23708184.147        2992.384
 -14383360.114 8 -12134541.539 9  21299969.348        1053.182
  -6843128.250 8 -13690284.600 9  20957550.800        1834.934
  -7639066.811 6  -5798928.333 5  22921956.492       -2259.975
  -3498552.571 7  -7661018.136 6  22693861.476       -1814.204
 93  5  6  3 13 30.0000000  0  5 24 16 20 17  3                      0.000506010
   2214130.445 6   1665048.600 5  23725266.179        2991.915
 -14351480.829 8 -12109700.542 9  21306035.898        1071.863
  -6787806.709 8 -13647176.936 9  20968078.142        1853.081
  -7706756.522 6  -5851673.514 5  22909076.116       -2252.762
  -3552953.416 7  -7703408.367 6  22683509.532       -1812.861
 93  5  6  3 14  0.0000000  0  5 24 16 20 17  3                      0.000511570
   2303884.347 6   1734986.700 5  23742346.136        2991.867
 -14319051.773 8 -12084431.148 9  21312206.846        1090.257
  -6731946.503 8 -13603649.527 9  20978707.782        1871.021
  -7774241.468 6  -5904259.150 5  22896233.941       -2246.266
  -3607318.234 7  -7745770.537 6  22673164.205       -1811.575
 93  5  6  3 14 30.0000000  0  5 24 16 20 17  3                      0.000517110
   2393647.485 6   1804932.032 5  23759427.411        2992.305
 -14286059.684 8 -12058722.996 9  21318485.091        1109.104
  -6675544.411 8 -13559699.870 9  20989440.662        1889.044
  -7841523.530 6  -5956686.682 5  22883430.801       -2239.186
  -3661640.965 7  -7788099.902 6  22662827.112       -1810.230
 93  5  6  3 15  0.0000000  0  5 24 16 20 17  3                      0.000522640
   2483429.012 6   1874891.648 5  23776512.642        2993.197
 -14252504.976 8 -12032576.467 9  21324870.492        1127.951
  -6618605.945 8 -13515332.253 9  21000275.721        1906.928
  -7908597.165 6  -6008951.817 5  22870666.974       -2232.427
  -3715925.277 7  -7830399.338 6  22652497.082       -1808.923
 93  5  6  3 15 30.0000000  0  5 24 16 20 17  3                      0.000528170
   2573242.173 6   1944875.923 5  23793603.619        2994.437
 -14218379.201 8 -12005984.936 9  21331364.433        1147.314
  -6561133.613 8 -13470548.624 9  21011212.441        1924.731
  -7975464.603 6  -6061056.274 5  22857942.518       -2225.271
  -3770171.697 7  -7872669.247 6  22642174.359       -1807.625
 93  5  6  3 16  0.0000000  0  5 24 16 20 17  3                      0.000533710
   2663094.234 6   2014890.498 5  23810702.333        2995.466
 -14183665.344 8 -11978935.166 9  21337970.150        1166.876
  -6503126.695 8 -13425348.459 9  21022250.829        1942.417
  -8042116.316 6  -6112992.651 5  22845258.844       -2218.111
  -3824377.112 7  -7914907.207 6  22631859.402       -1806.304
 93  5  6  3 16 30.0000000  0  5 24 16 20 17  3                      0.000539240
   2752970.576 6   2084924.002 5  23827805.115        2996.103
 -14148363.124 8 -11951426.935 9  21344688.029        1186.210
  -6444584.932 8 -13379731.514 9  21033391.127        1960.164
  -8108539.482 6  -6164750.895 5  22832618.915       -2210.239
  -3878538.643 7  -7957110.965 6  22621552.725       -1804.881
 93  5  6  3 17  0.0000000  0  5 24 16 20 17  3                      0.000544780
   2842869.456 6   2154975.095 5  23844912.081        2996.983
 -14112494.045 8 -11923476.976 9  21351513.624        1205.044
  -6385513.033 8 -13333701.486 9  21044632.074        1977.936
  -8174734.076 6  -6216331.051 5  22820022.676       -2202.662
  -3932658.912 7  -7999282.592 6  22611253.864       -1803.362
 93  5  6  3 17 30.0000000  0  5 24 16 20 17  3                      0.000550320
   2932776.450 6   2225032.446 5  23862020.526        2996.650
 -14076065.414 8 -11895091.026 9  21358445.845        1223.426
  -6325911.495 8 -13287258.750 9  21055973.823        1995.485
  -8240698.146 6  -6267731.604 5  22807470.050       -2194.922
  -3986735.886 7  -8041420.474 6  22600963.428       -1801.972
 93  5  6  3 18  0.0000000  0  5 24 16 20 17  3                      0.000555840
   3022665.239 6   2295075.666 5  23879125.373        2996.142
 -14039098.025 8 -11866285.247 9  21365480.375        1241.244
  -6265786.626 8 -13240408.220 9  21067415.442        2013.070
  -8306435.797 6  -6318955.701 5  22794960.546       -2187.325
  -4040773.499 7  -8083527.678 6  22590680.465       -1800.488
 93  5  6  3 18 30.0000000  0  5 24 16 20 17  3                      0.000561360
   3112539.816 6   2365107.793 5  23896228.215        2995.773
 -14001601.876 8 -11837067.469 9  21372615.666        1258.761
  -6205139.754 8 -13193150.945 9  21078956.332        2030.232
  -8371947.032 6  -6370003.352 5  22782494.527       -2179.961
  -4094770.874 7  -8125603.550 6  22580404.960       -1799.341
 93  5  6  3 19  0.0000000  0  5 24 16 20 17  3                      0.000566880
   3202412.033 6   2435138.117 5  23913330.353        2995.391
 -13963566.854 8 -11807429.759 9  21379853.394        1276.954
  -6143967.857 8 -13145484.543 9  21090596.936        2047.797
  -8437229.545 6  -6420872.829 5  22770071.619       -2172.225
  -4148722.326 7  -8167643.649 6  22570138.368       -1797.750
 93  5  6  3 19 30.0000000  0  5 24 16 20 17  3                      0.000572380
   3292259.152 6   2505148.852 5  23930427.788        2994.527
 -13924990.195 8 -11777370.007 9  21387194.513        1294.810
  -6082273.997 8 -13097411.431 9  21102336.796        2065.102
  -8502282.727 6  -6471563.549 5  22757692.776       -2164.753
  -4202628.569 7  -8209648.491 6  22559880.531       -1796.252
 93  5  6  3 20  0.0000000  0  5 24 16 20 17  3                      0.000577870
   3382094.840 6   2575150.705 5  23947523.215        2994.364
 -13885874.269 8 -11746890.039 9  21394637.870        1312.810
  -6020059.033 8 -13048932.238 9  21114175.971        2082.417
  -8567114.679 6  -6522081.911 5  22745355.321       -2157.531
  -4256487.474 7  -8251616.441 6  22549631.395       -1794.693
 93  5  6  3 20 30.0000000  0  5 24 16 20 17  3                      0.000583340
   3471921.691 6   2645145.646 5  23964616.795        2993.999
 -13846220.497 8 -11715990.989 8  21402183.728        1330.738
  -5957327.109 8 -13000050.247 9  21126113.496        2099.629
  -8631731.285 6  -6572432.469 5  22733058.741       -2150.467
  -4310301.054 7  -8293549.112 6  22539391.155       -1793.154
 93  5  6  3 21  0.0000000  0  5 24 16 20 17  3                      0.000588780
   3561735.330 6   2715130.260 5  23981707.546        2993.474
 -13806025.570 8 -11684670.256 9  21409832.631        1348.785
  -5894074.643 8 -12950762.630 9  21138149.975        2116.994
  -8696138.149 6  -6622619.615 5  22720802.533       -2143.589
  -4364063.115 7  -8335441.607 6  22529160.467       -1791.355
 93  5  6  3 21 30.0000000  0  5 24 16 20 17  3                      0.000594200
   3651543.059 6   2785110.281 5  23998797.720        2993.723
 -13765288.337 8 -11652926.954 9  21417584.625        1366.989
  -5830305.179 8 -12901072.152 9  21150284.782        2134.222
  -8760343.978 6  -6672650.065 5  22708584.906       -2136.916
  -4417774.332 7  -8377294.501 6  22518939.694       -1789.640
 93  5  6  3 22  0.0000000  0  5 24 16 20 17  3                      0.000599590
   3741355.033 5   2855093.572 5  24015887.514        2993.610
 -13724002.181 8 -11620755.911 8  21425441.065        1385.264
  -5766024.587 8 -12850983.393 9  21162517.025        2151.036
  -8824350.154 6  -6722524.975 6  22696405.033       -2130.177
  -4471438.138 7  -8419110.462 6  22508727.942       -1788.244
 93  5  6  3 22 30.0000000  0  5 24 16 20 17  3                      0.000604970
   3831169.925 5   2925079.193 5  24032978.368        2994.224
 -13682165.065 8 -11588155.549 8  21433402.483        1404.000
  -5701236.640 8 -12800499.313 9  21174845.621        2168.290
  -8888144.681 6  -6772234.917 6  22684265.649       -2122.638
  -4525055.105 7  -8460889.884 6  22498524.985       -1786.337
 93  5  6  3 23  0.0000000  0  5 24 16 20 17  3                      0.000610350
   3921006.937 5   2995082.037 5  24050073.911        2994.893
 -13639768.819 8 -11555119.501 9  21441470.228        1422.459
  -5635934.441 8 -12749614.488 9  21187272.218        2185.277
  -8951714.466 6  -6821769.782 6  22672168.725       -2115.052
  -4578616.044 7  -8502625.685 6  22488332.522       -1784.599
 93  5  6  3 23 30.0000000  0  5 24 16 20 17  3                      0.000615750
   4010862.693 5   3065099.468 5  24067172.695        2995.230
 -13596819.899 8 -11521652.807 9  21449643.192        1440.606
  -5570124.448 8 -12698333.999 9  21199795.926        2202.026
  -9015043.946 6  -6871117.401 6  22660117.020       -2106.966
  -4632124.556 7  -8544320.623 6  22478149.911       -1782.969
 93  5  6  3 24  0.0000000  0  5 24 16 20 17  3                      0.000621160
   4100721.934 6   3135119.590 5  24084271.996        2995.272
 -13553336.175 8 -11487769.376 9  21457917.953        1458.135
  -5503811.266 8 -12646661.412 9  21212414.959        2218.675
  -9078130.529 6  -6920275.736 6  22648111.960       -2098.991
  -4685582.723 7  -8585976.319 6  22467977.172       -1781.323
 93  5  6  3 24 30.0000000  0  5 24 16 20 17  3                      0.000626590
   4190582.504 6   3205140.780 5  24101372.233        2995.392
 -13509325.556 8 -11453475.389 9  21466292.884        1475.896
  -5436998.161 8 -12594599.271 9  21225129.089        2235.470
  -9140978.666 6  -6969248.265 6  22636152.547       -2091.066
  -4738990.603 7  -8627592.839 6  22457814.119       -1779.529
 93  5  6  3 25  0.0000000  0  5 24 16 20 17  3                      0.000632010
   4280440.844 6   3275160.227 5  24118471.890        2995.057
 -13464777.731 8 -11418762.791 9  21474770.037        1493.892
  -5369682.655 8 -12542145.659 9  21237938.661        2252.141
  -9203593.900 6  -7018039.291 6  22624237.108       -2083.343
  -4792343.052 7  -8669166.150 7  22447661.479       -1777.695
 93  5  6  3 25 30.0000000  0  5 24 16 20 17  3                      0.000637420
   4370284.497 6   3345168.224 5  24135568.479        2994.429
 -13419692.800 8 -11383631.677 9  21483349.246        1511.633
  -5301867.928 8 -12489303.041 9  21250843.388        2268.687
  -9265975.985 6  -7066648.681 6  22612365.977       -2075.774
  -4845640.583 7  -8710696.679 7  22437519.248       -1775.890
 93  5  6  3 26  0.0000000  0  5 24 16 20 17  3                      0.000642820
   4460117.062 6   3415167.598 5  24152663.690        2994.308
 -13374070.718 8 -11348082.002 9  21492030.687        1529.699
  -5233553.717 8 -12436071.210 9  21263843.277        2285.444
  -9328132.451 6  -7115082.236 6  22600538.081       -2068.117
  -4898879.602 7  -8752181.618 7  22427388.154       -1773.778
 93  5  6  3 26 30.0000000  0  5 24 16 20 17  3                      0.000648210
   4549939.083 6   3485158.774 5  24169756.308        2993.680
 -13327917.402 8 -11312118.385 9  21500813.727        1546.998
  -5164745.376 8 -12382454.334 9  21276937.152        2301.719
  -9390060.461 6  -7163337.803 6  22588753.479       -2060.661
  -4952063.031 7  -8793623.235 7  22417267.639       -1772.051
 93  5  6  3 27  0.0000000  0  5 24 16 20 17  3                      0.000653590
   4639738.750 6   3555132.464 5  24186844.953        2993.003
 -13281250.225 8 -11275754.349 9  21509694.148        1564.039
  -5095446.110 8 -12328454.932 9  21290124.254        2318.177
  -9451764.460 6  -7211418.783 6  22577011.440       -2053.010
  -5005190.884 7  -8835021.539 7  22407157.746       -1770.065
 93  5  6  3 27 30.0000000  0  5 24 16 20 17  3                      0.000658960
   4729518.180 6   3625090.397 5  24203929.067        2992.420
 -13234077.168 8 -11238996.130 9  21518670.835        1580.912
  -5025653.621 8 -12274071.201 9  21303405.368        2334.658
  -9513239.483 6  -7259321.359 6  22565313.210       -2045.312
  -5058257.724 7  -8876372.292 7  22397059.530       -1767.944
 93  5  6  3 28  0.0000000  0  5 24 16 20 17  3                      0.000664330
   4819282.667 6   3695036.688 5  24221010.604        2992.023
 -13186398.489 8 -11201843.921 9  21527743.684        1597.543
  -4955371.711 8 -12219306.098 9  21316779.570        2350.775
  -9574488.556 6  -7307047.870 6  22553657.847       -2037.921
  -5111264.299 7  -8917676.110 7  22386972.571       -1766.084
 93  5  6  3 28 30.0000000  0  5 24 16 20 17  3                      0.000669710
   4909042.325 6   3764979.201 5  24238091.229        2991.965
 -13138213.600 8 -11164297.257 9  21536912.934        1614.801
  -4884597.616 8 -12164157.491 9  21330247.608        2367.407
  -9635502.672 6  -7354591.278 6  22542046.916       -2029.912
  -5164205.104 7  -8958928.652 7  22376898.345       -1763.637
 93  5  6  3 29  0.0000000  0  5 24 16 20 17  3                      0.000675090
   4998794.328 6   3834915.782 5  24255170.330        2991.730
 -13089515.270 8 -11126350.507 9  21546179.820        1632.016
  -4813338.005 8 -12108630.539 9  21343807.658        2383.415
  -9696294.442 6  -7401961.456 6  22530478.384       -2022.434
  -5217083.596 7  -9000132.639 7  22366835.803       -1761.593
 93  5  6  3 29 30.0000000  0  5 24 16 20 17  3                      0.000680490
   5088552.645 6   3904857.269 5  24272251.818        2992.429
 -13040290.235 8 -11087993.368 9  21555547.196        1649.844
  -4741593.476 8 -12052725.739 9  21357460.128        2399.765
  -9756845.693 6  -7449144.205 6  22518955.582       -2014.037
  -5269897.326 7  -9041286.173 7  22356785.470       -1759.277
 93  5  6  3 30  0.0000000  0  5 24 16 20 17  3                      0.000685910
   5178330.745 6   3974814.183 5  24289335.775        2992.868
 -12990540.717 8 -11049227.509 9  21565014.308        1666.871
  -4669363.582 8 -11996442.725 9  21371205.313        2415.676
  -9817147.339 6  -7496132.445 6  22507480.724       -2005.930
  -5322642.698 7  -9082386.450 7  22346748.409       -1757.185
 93  5  6  3 30 30.0000000  0  6 24 26 16 20 17  3                   0.000691300
   5268117.772 6   4044778.022 5  24306421.757        2992.999
  -1103251.33615   -868719.41515  24769271.390       -2406.170
 -12940281.560 8 -11010064.551 9  21574578.261        1684.080
  -4596657.713 8 -11939788.838 9  21385040.774        2431.464
  -9877215.353 6  -7542938.652 6  22496050.289       -1998.602
  -5375325.861 7  -9123438.243 7  22336723.298       -1755.151
 93  5  6  3 31  0.0000000  0  6 24 26 16 20 17  3                   0.000696680
   5357905.691 5   4114742.600 5  24323507.926        2992.945
  -1175434.504 5   -924965.970 5  24755535.208       -2405.856
 -12889497.966 8 -10970492.926 9  21584242.190        1701.658
  -4523480.292 8 -11882767.499 9  21398965.895        2447.214
  -9937068.264 6  -7589577.245 6  22484661.408       -1991.221
  -5427948.074 7  -9164442.550 7  22326709.841       -1752.994
 93  5  6  3 31 30.0000000  0  6 24 26 16 20 17  3                   0.000702050
   5447690.344 6   4184704.549 5  24340593.050        2992.634
  -1247602.763 5   -981200.953 5  24741801.914       -2405.495
 -12838187.168 8 -10930510.498 9  21594006.180        1719.160
  -4449829.474 8 -11825377.294 9  21412981.211        2462.891
  -9996701.118 6  -7636044.362 6  22473313.480       -1984.282
  -5480504.036 7  -9205395.205 7  22316708.573       -1750.869
 93  5  6  3 32  0.0000000  0  6 24 26 16 20 17  3                   0.000707410
   5537456.897 6   4254652.452 5  24357675.091        2991.817
  -1319769.086 5  -1037434.420 4  24728068.937       -2405.404
 -12786352.382 8 -10890119.764 9  21603869.892        1736.694
  -4375708.718 7 -11767620.896 9  21427085.969        2478.564
 -10056131.959 6  -7682354.068 6  22462003.790       -1977.604
  -5532994.326 7  -9246296.706 7  22306719.989       -1748.634
 93  5  6  3 32 30.0000000  0  6 24 26 16 20 17  3                   0.000712740
   5627194.876 6   4324578.156 5  24374751.880        2990.654
  -1391922.473 5  -1093657.752 4  24714338.869       -2404.647
 -12733984.132 7 -10849313.332 9  21613835.132        1754.669
  -4301120.498 8 -11709500.226 9  21441279.779        2494.079
 -10115362.414 6  -7728507.643 6  22450732.379       -1970.874
  -5585418.151 7  -9287146.407 7  22296744.169       -1746.426
 93  5  6  3 33  0.0000000  0  6 24 26 16 20 17  3                   0.000718040
   5716888.213 5   4394469.049 5  24391819.969        2988.884
  -1464055.526 5  -1149865.286 4  24700612.453       -2404.231
 -12681082.068 8 -10808090.966 9  21623902.105        1771.927
  -4226068.872 7 -11651018.481 9  21455561.764        2509.374
 -10174377.943 7  -7774493.743 6  22439502.364       -1963.389
  -5637776.081 7  -9327944.772 7  22286780.624       -1744.324
 93  5  6  3 33 30.0000000  0  6 24 26 16 20 17  3                   0.000723320
   5806537.002 5   4464325.209 5  24408879.037        2987.712
  -1536174.110 5  -1206061.557 4  24686888.724       -2403.785
 -12627667.530 8 -10766469.254 9  21634066.627        1788.885
  -4150554.837 7 -11592176.417 9  21469931.556        2524.822
 -10233159.897 7  -7820297.847 6  22428316.239       -1955.513
  -5690066.103 7  -9368690.218 7  22276829.961       -1741.969
 93  5  6  3 34  0.0000000  0  6 24 26 16 20 17  3                   0.000728600
   5896149.894 5   4534153.417 5  24425932.020        2986.778
  -1608278.718 5  -1262246.882 4  24673167.241       -2402.892
 -12573752.980 8 -10724457.901 8  21644326.405        1805.571
  -4074583.067 7 -11532977.638 9  21484388.366        2540.116
 -10291706.381 7  -7865918.464 6  22417175.431       -1947.431
  -5742289.429 8  -9409383.687 7  22266892.030       -1739.639
 93  5  6  3 34 30.0000000  0  6 24 26 16 20 17  3                   0.000733880
   5985743.556 5   4603966.557 5  24442981.776        2986.074
  -1680346.917 5  -1318403.836 4  24659452.710       -2401.787
 -12519332.942 8 -10682052.677 8  21654682.116        1822.281
  -3998148.544 7 -11473418.326 9  21498933.569        2555.445
 -10350002.773 7  -7911344.207 6  22406082.123       -1939.059
  -5794437.660 8  -9450018.644 7  22256968.549       -1737.173
 93  5  6  3 35  0.0000000  0  6 24 26 16 20 17  3                   0.000739160
   6075318.509 5   4673765.117 5  24460027.403        2985.758
  -1752392.975 5  -1374543.506 4  24645743.179       -2401.346
 -12464417.511 8 -10639261.432 8  21665132.202        1838.794
  -3921257.510 7 -11413503.255 8  21513565.567        2570.651
 -10408050.209 7  -7956575.946 6  22395036.179       -1930.781
  -5846513.520 8  -9490597.194 7  22247059.041       -1734.731
 93  5  6  3 35 30.0000000  0  6 24 26 16 20 17  3                   0.000744450
   6164900.471 5   4743569.228 5  24477074.091        2986.199
  -1824422.449 5  -1430670.288 4  24632035.668       -2400.691
 -12409005.750 8 -10596083.446 8  21675676.661        1855.361
  -3843912.022 7 -11353234.075 8  21528283.839        2585.689
 -10465851.909 7  -8001616.194 6  22384036.473       -1922.712
  -5898515.629 8  -9531118.294 7  22237163.583       -1732.339
 93  5  6  3 36  0.0000000  0  6 24 26 16 20 17  3                   0.000749750
   6254486.192 5   4813376.252 5  24494120.835        2986.215
  -1896429.835 5  -1486779.895 4  24618332.901       -2399.610
 -12353093.459 8 -10552515.420 8  21686316.457        1872.229
  -3766115.717 7 -11292613.596 8  21543088.130        2600.914
 -10523410.882 7  -8046467.308 6  22373083.274       -1914.515
  -5950444.353 8  -9571582.198 7  22227281.982       -1729.649
 93  5  6  3 36 30.0000000  0  6 24 26 16 20 17  3                   0.000755040
   6344064.681 5   4883177.667 5  24511166.964        2985.577
  -1968413.683 5  -1542871.084 4  24604635.205       -2399.370
 -12296678.262 8 -10508555.538 8  21697051.833        1888.822
  -3687866.544 7 -11231640.258 8  21557978.341        2615.754
 -10580732.738 7  -8091133.662 6  22362175.416       -1906.840
  -6002294.026 8  -9611984.530 7  22217415.364       -1727.135
 93  5  6  3 37  0.0000000  0  6 24 26 16 20 17  3                   0.000760310
   6433626.323 5   4952965.934 5  24528210.494        2985.307
  -2040388.969 5  -1598955.704 4  24590938.650       -2398.616
 -12239761.001 8 -10464204.424 8  21707883.055        1905.827
  -3609169.951 7 -11170318.279 8  21572953.924        2630.861
 -10637827.955 7  -8135623.380 6  22351310.860       -1899.331
  -6054066.659 8  -9652326.821 7  22207563.333       -1724.363
 93  5  6  3 37 30.0000000  0  6 24 26 16 20 17  3                   0.000765560
   6523161.780 5   5022733.814 5  24545248.768        2984.089
  -2112341.984 5  -1655022.881 5  24577245.919       -2397.739
 -12182346.841 8 -10419466.114 8  21718808.712        1922.375
  -3530028.512 7 -11108649.582 8  21588013.931        2645.716
 -10694710.539 7  -8179947.425 6  22340486.274       -1892.396
  -6105761.204 8  -9692608.236 7  22197726.226       -1721.700
 93  5  6  3 38  0.0000000  0  6 24 26 16 20 17  3                   0.000770770
   6612653.330 5   5092467.403 5  24562278.718        2982.217
  -2184269.200 5  -1711069.990 5  24563558.019       -2397.163
 -12124437.298 8 -10374341.797 8  21729828.523        1938.411
  -3450442.967 7 -11046634.971 8  21603158.655        2660.183
 -10751394.514 7  -8224116.713 6  22329699.363       -1886.381
  -6157374.588 8  -9732826.451 7  22187904.385       -1719.258
 93  5  6  3 38 30.0000000  0  6 24 26 16 20 17  3                   0.000775950
   6702094.316 5   5162161.583 5  24579298.945        2980.805
  -2256179.840 5  -1767104.194 5  24549873.512       -2396.676
 -12066050.187 8 -10328845.350 8  21740939.080        1954.266
  -3370427.566 7 -10984285.322 8  21618385.204        2674.417
 -10807896.589 7  -8268144.248 6  22318947.496       -1880.002
  -6208917.736 8  -9772989.900 7  22178095.724       -1716.949
 93  5  6  3 39  0.0000000  0  6 24 26 16 20 17  3                   0.000781100
   6791508.036 6   5231834.590 5  24596314.315        2980.045
  -2328054.419 5  -1823110.266 5  24536195.888       -2395.054
 -12007180.146 8 -10282972.595 8  21752141.834        1970.130
  -3289975.919 7 -10921595.775 8  21633694.915        2688.899
 -10864190.304 7  -8312009.418 6  22308235.101       -1872.905
  -6260381.088 8  -9813091.200 7  22168302.745       -1714.251
 93  5  6  3 39 30.0000000  0  6 24 26 16 20 17  3                   0.000786250
   6880897.761 5   5301488.881 5  24613324.854        2979.487
  -2399876.057 5  -1879075.069 5  24522528.752       -2393.245
 -11947843.753 8 -10236736.446 8  21763433.188        1985.779
  -3209094.135 7 -10858571.033 8  21649086.140        2703.281
 -10920263.289 7  -8355702.603 6  22297564.607       -1865.126
  -6311766.752 8  -9853131.944 7  22158524.464       -1711.607
 93  5  6  3 40  0.0000000  0  6 24 26 16 20 17  3                   0.000791420
   6970282.359 6   5371139.156 5  24630334.244        2979.464
  -2471650.755 5  -1935003.370 5  24508871.218       -2391.729
 -11888036.747 8 -10190133.586 8  21774813.920        2001.220
  -3127781.143 7 -10795210.273 8  21664559.488        2717.518
 -10976093.079 7  -8399206.274 6  22286941.041       -1856.784
  -6363069.828 8  -9893108.339 7  22148761.751       -1708.859
 93  5  6  3 40 30.0000000  0  6 24 26 16 20 17  3                   0.000796600
   7059665.001 6   5440787.979 5  24647342.031        2978.984
  -2543374.754 5  -1990892.107 5  24495222.592       -2390.024
 -11827761.103 8 -10143165.552 8  21786284.230        2016.834
  -3046038.346 7 -10731514.628 8  21680114.750        2731.699
 -11031656.203 7  -8442502.161 6  22276367.843       -1847.708
  -6414288.194 8  -9933018.736 7  22139015.257       -1706.112
 93  5  6  3 41  0.0000000  0  6 24 26 16 20 17  3                   0.000801800
   7149029.866 6   5510422.879 5  24664348.117        2978.706
  -2615041.436 5  -2046736.163 5  24481584.948       -2387.673
 -11767011.032 8 -10095827.821 8  21797844.625        2033.304
  -2963869.520 7 -10667486.998 8  21695750.786        2746.326
 -11086952.905 7  -8485590.436 6  22265845.025       -1838.633
  -6465421.871 8  -9972863.126 8  22129284.755       -1702.830
 93  5  6  3 41 30.0000000  0  6 24 26 16 20 17  3                   0.000807000
   7238374.653 6   5580042.165 5  24681350.457        2977.700
  -2686649.220 5  -2102534.365 5  24467958.236       -2386.273
 -11705770.680 8 -10048108.070 8  21809498.279        2049.501
  -2881270.314 7 -10603124.029 8  21711468.833        2760.356
 -11141987.484 7  -8528474.474 6  22255371.897       -1830.348
  -6516462.927 8 -10012635.359 8  22119572.049       -1699.996
 93  5  6  3 42  0.0000000  0  6 24 26 16 20 17  3                   0.000812180
   7327687.123 6   5649636.258 5  24698345.841        2976.227
  -2758214.283 5  -2158299.315 5  24454340.117       -2384.719
 -11644047.371 8 -10000011.986 8  21821243.838        2065.188
  -2798249.547 7 -10538432.547 8  21727267.275        2774.236
 -11196778.168 7  -8571168.482 6  22244945.445       -1822.486
  -6567416.498 8 -10052339.426 8  22109875.791       -1697.245
 93  5  6  3 42 30.0000000  0  6 24 26 16 20 17  3                   0.000817350
   7416954.961 6   5719195.611 5  24715333.389        2974.855
  -2829713.469 5  -2214012.911 5  24440735.396       -2382.047
 -11581846.262 8  -9951543.584 8  21833080.304        2081.293
  -2714809.738 7 -10473414.550 8  21743145.275        2788.236
 -11251328.083 7  -8613674.851 6  22234565.021       -1814.425
  -6618280.906 8 -10091973.977 8  22100196.720       -1694.139
 93  5  6  3 43  0.0000000  0  6 24 26 16 20 17  3                   0.000822510
   7506189.821 6   5788729.236 5  24732314.815        2974.167
  -2901137.744 5  -2269668.139 5  24427143.655       -2379.633
 -11519170.355 8  -9902705.218 8  21845007.255        2097.046
  -2630953.796 7 -10408072.291 8  21759102.396        2802.124
 -11305639.095 7  -8655995.060 6  22224230.106       -1806.205
  -6669055.679 8 -10131538.706 8  22090534.601       -1691.096
 93  5  6  3 43 30.0000000  0  6 24 26 16 20 17  3                   0.000827680
   7595419.497 5   5858258.868 5  24749294.281        2974.037
  -2972487.945 5  -2325265.621 5  24413566.680       -2377.193
 -11456026.659 8  -9853502.324 8  21857023.107        2112.189
  -2546678.510 7 -10342403.278 8  21775139.892        2815.945
 -11359694.554 7  -8698116.155 6  22213943.267       -1797.893
  -6719733.438 8 -10171027.850 8  22080890.996       -1687.958
 93  5  6  3 44  0.0000000  0  6 24 26 16 20 17  3                   0.000832880
   7684637.060 5   5927779.040 5  24766271.318        2973.778
  -3043751.396 5  -2380795.525 5  24400005.657       -2373.768
 -11392433.494 8  -9803949.203 8  21869124.371        2127.353
  -2461991.928 7 -10276413.770 8  21791255.298        2829.752
 -11413502.239 7  -8740044.155 6  22203704.326       -1789.329
  -6770318.375 8 -10210444.664 8  22071265.081       -1684.690
 93  5  6  3 44 30.0000000  0  6 24 26 16 20 17  3                   0.000838090
   7773843.575 5   5997290.552 5  24783245.726        2973.253
  -3114920.487 5  -2436251.895 5  24386462.773       -2371.053
 -11328382.980 8  -9754039.717 8  21881312.662        2142.552
  -2376896.201 7 -10210105.453 8  21807448.149        2843.147
 -11467060.162 7  -8781777.564 6  22193513.010       -1781.382
  -6820808.981 8 -10249787.966 8  22061656.762       -1681.735
 93  5  6  3 45  0.0000000  0  6 24 26 16 20 17  3                   0.000843320
   7863044.247 5   6066797.566 5  24800219.459        2973.239
  -3186009.135 5  -2491645.612 5  24372934.870       -2368.355
 -11263873.497 8  -9703772.591 8  21893588.334        2157.918
  -2291393.365 7 -10143479.906 8  21823719.054        2856.820
 -11520381.562 7  -8823326.649 6  22183366.454       -1773.659
  -6871203.452 8 -10289056.366 8  22052066.851       -1678.329
 93  5  6  3 45 30.0000000  0  6 24 26 16 20 17  3                   0.000848550
   7952234.552 5   6136296.489 5  24817193.074        2972.493
  -3257007.558 5  -2546969.013 5  24359424.190       -2365.087
 -11198905.562 7  -9653148.236 8  21905951.406        2173.103
  -2205482.027 7 -10076536.049 8  21840067.195        2870.399
 -11573484.862 7  -8864705.816 6  22173260.930       -1766.918
  -6921496.599 8 -10328245.817 8  22042496.517       -1674.948
 93  5  6  3 46  0.0000000  0  6 24 26 16 20 17  3                   0.000853750
   8041403.664 5   6205778.917 5  24834161.456        2971.997
  -3327907.431 5  -2602215.611 5  24345931.882       -2362.050
 -11133469.624 8  -9602159.197 8  21918403.275        2189.264
  -2119164.251 7 -10009275.479 8  21856493.174        2883.980
 -11626383.129 7  -8905925.186 6  22163194.159       -1759.714
  -6971686.161 8 -10367354.537 8  22032945.920       -1671.392
 93  5  6  3 46 30.0000000  0  6 24 26 16 20 17  3                   0.000858930
   8130547.852 5   6275241.906 5  24851125.374        2970.875
  -3398729.096 6  -2657401.291 5  24332454.579       -2359.424
 -11067549.718 8  -9550793.049 8  21930947.602        2205.190
  -2032442.955 7  -9941700.490 8  21872996.039        2897.271
 -11679072.750 7  -8946981.995 6  22153167.673       -1753.028
  -7021771.086 8 -10406381.749 8  22023414.827       -1667.961
 93  5  6  3 47  0.0000000  0  6 24 26 16 20 17  3                   0.000864070
   8219659.932 5   6344679.845 5  24868083.365        2970.084
  -3469472.519 5  -2712525.974 5  24318992.363       -2356.522
 -11001164.296 7  -9499064.137 8  21943580.335        2220.693
  -1945328.799 7  -9873819.348 8  21889573.385        2910.500
 -11731561.446 7  -8987882.229 6  22143179.356       -1745.949
  -7071758.457 8 -10445332.928 8  22013902.544       -1664.533
 93  5  6  3 47 30.0000000  0  6 24 26 16 20 17  3                   0.000869180
   8308739.065 5   6414092.102 5  24885034.084        2968.311
  -3540116.771 5  -2767573.370 5  24305549.321       -2353.262
 -10934309.913 7  -9446969.830 8  21956302.368        2236.200
  -1857813.884 7  -9805625.955 8  21906226.714        2923.710
 -11783825.931 7  -9028607.760 6  22133233.691       -1738.345
  -7121636.096 8 -10484198.607 8  22004411.094       -1660.959
 93  5  6  3 48  0.0000000  0  6 24 26 16 20 17  3                   0.000874260
   8397762.168 5   6483460.788 5  24901974.673        2966.634
  -3610670.090 5  -2822549.963 5  24292123.201       -2350.129
 -10866988.128 7  -9394511.315 8  21969113.200        2252.056
  -1769906.863 7  -9737127.021 8  21922954.984        2936.934
 -11835855.605 7  -9069150.320 6  22123332.647       -1730.108
  -7171408.543 8 -10522982.341 8  21994939.691       -1657.232
 93  5  6  3 48 30.0000000  0  6 24 26 16 20 17  3                   0.000879310
   8486726.639 5   6552783.700 5  24918903.663        2964.705
  -3681129.702 5  -2877453.501 5  24278715.030       -2346.837
 -10799214.253 7  -9341700.511 8  21982010.240        2266.228
  -1681611.862 7  -9668325.751 8  21939756.980        2949.545
 -11887651.982 7  -9109511.111 6  22113476.099       -1722.785
  -7221076.167 8 -10561684.385 8  21985488.393       -1653.954
 93  5  6  3 49  0.0000000  0  6 24 26 16 20 17  3                   0.000884360
   8575653.686 5   6622077.473 5  24935825.759        2963.572
  -3751474.501 5  -2932267.542 5  24265329.277       -2343.011
 -10731016.458 7  -9288559.386 8  21994987.937        2280.190
  -1592929.352 7  -9599222.538 8  21956632.841        2962.463
 -11939214.336 7  -9149689.514 6  22103664.131       -1714.819
  -7270635.180 8 -10600301.790 8  21976057.683       -1650.329
 93  5  6  3 49 30.0000000  0  6 24 26 16 20 17  3                   0.000889420
   8664541.196 5   6691340.512 5  24952740.291        2962.541
  -3821709.112 5  -2986995.756 5  24251964.415       -2339.221
 -10662397.244 7  -9235089.866 8  22008045.688        2294.493
  -1503864.415 7  -9529821.314 8  21973581.303        2975.276
 -11990544.823 7  -9189687.252 6  22093896.104       -1707.029
  -7320086.607 8 -10638835.381 8  21966647.327       -1646.619
 93  5  6  3 50  0.0000000  0  6 24 26 16 20 17  3                   0.000894490
   8753421.126 5   6760597.594 5  24969653.163        2963.234
  -3891829.388 5  -3041634.833 5  24238620.654       -2335.230
 -10593351.948 7  -9181288.349 8  22021184.581        2308.820
  -1414415.018 7  -9460120.508 7  21990602.963        2988.290
 -12041638.901 7  -9229500.764 6  22084173.394       -1698.845
  -7369424.509 8 -10677280.495 8  21957258.746       -1642.503
 93  5  6  3 50 30.0000000  0  6 24 26 16 20 17  3                   0.000899610
   8842327.866 5   6829875.616 5  24986572.519        2963.943
  -3961827.215 5  -3096178.518 5  24225300.644       -2331.317
 -10523882.400 8  -9127156.217 8  22034404.439        2322.384
  -1324577.874 7  -9390117.557 7  22007698.508        3000.830
 -12092484.526 7  -9269120.692 6  22074497.702       -1690.744
  -7418641.196 8 -10715631.147 8  21947892.910       -1638.816
 93  5  6  3 51  0.0000000  0  5 26 16 20 17  3                      0.000904800
  -4031701.569 5  -3150626.007 5  24212003.808       -2326.953
 -10453997.426 7  -9072700.404 8  22047703.033        2336.871
  -1234360.086 7  -9319818.025 7  22024866.342        3013.738
 -12143069.162 7  -9308537.248 6  22064871.827       -1681.475
  -7467739.609 8 -10753889.641 8  21938549.897       -1634.555
 93  5  6  3 51 30.0000000  0  5 26 16 20 17  3                      0.000909950
  -4101454.362 5  -3204978.744 5  24198730.146       -2322.974
 -10383672.623 7  -9017901.865 8  22061085.388        2351.759
  -1143762.437 7  -9249222.485 7  22042106.507        3026.326
 -12193382.371 7  -9347742.319 6  22055297.636       -1672.499
  -7516716.548 8 -10792053.484 8  21929229.881       -1630.504
 93  5  6  3 52  0.0000000  0  5 26 16 20 17  3                      0.000915110
  -4171092.632 5  -3259242.303 5  24185478.931       -2319.277
 -10312905.160 7  -8962758.374 8  22074552.054        2366.216
  -1052791.984 7  -9178336.439 7  22059417.751        3038.507
 -12243436.610 7  -9386745.583 6  22045772.339       -1664.378
  -7565574.970 8 -10830124.958 8  21919932.586       -1626.761
 93  5  6  3 52 30.0000000  0  5 26 16 20 17  3                      0.000920250
  -4240606.520 5  -3313408.886 5  24172251.288       -2314.812
 -10241698.713 7  -8907272.830 8  22088102.086        2380.870
   -961454.686 7  -9107164.557 7  22076798.429        3050.732
 -12293248.955 7  -9425560.366 6  22036292.974       -1656.570
  -7614316.606 8 -10868105.436 8  21910657.465       -1622.836
 93  5  6  3 53  0.0000000  0  5 26 16 20 17  3                      0.000925390
  -4309980.994 5  -3367466.829 5  24159048.762       -2310.203
 -10170048.841 7  -8851441.784 8  22101736.496        2395.853
   -869750.064 7  -9035706.432 7  22094248.842        3062.822
 -12342832.627 7  -9464196.934 6  22026857.881       -1649.277
  -7662936.588 8 -10905991.116 8  21901405.432       -1618.824
 93  5  6  3 53 30.0000000  0  5 26 16 20 17  3                      0.000930490
  -4379212.951 5  -3421413.749 5  24145873.760       -2305.241
 -10097944.637 7  -8795256.687 8  22115457.607        2410.956
   -777683.553 7  -8963966.329 7  22111768.741        3074.924
 -12392208.724 7  -9502671.773 6  22017461.448       -1642.512
  -7711435.967 8 -10943782.822 8  21892176.313       -1614.681
 93  5  6  3 54  0.0000000  0  5 26 16 20 17  3                      0.000935570
  -4448283.665 5  -3475234.964 5  24132729.971       -2299.495
 -10025398.121 7  -8738726.935 8  22129262.602        2425.227
   -685252.078 7  -8891941.841 7  22129357.994        3087.010
 -12441376.014 7  -9540983.904 6  22008105.315       -1635.400
  -7759807.350 8 -10981474.783 8  21882971.126       -1610.444
 93  5  6  3 54 30.0000000  0  6 23 26 16 20 17  3                   0.000940670
   -231838.32915   -187669.53411  24450895.373       -3260.025
  -4517185.567 5  -3528924.669 5  24119618.307       -2293.999
  -9952427.478 7  -8681866.716 8  22143148.308        2439.519
   -592460.558 7  -8819636.813 7  22147015.963        3099.118
 -12490319.659 7  -9579121.779 6  21998791.205       -1627.419
  -7808051.378 8 -11019067.515 8  21873790.969       -1606.051
 93  5  6  3 55  0.0000000  0  6 23 26 16 20 17  3                   0.000945800
   -329577.516 5   -263829.808 4  24432296.037       -3255.632
  -4585926.264 5  -3582488.785 5  24106537.508       -2288.550
  -9879027.034 7  -8624671.555 8  22157116.127        2454.099
   -499308.916 7  -8747051.150 7  22164742.059        3111.237
 -12539012.885 7  -9617064.518 6  21989526.146       -1618.466
  -7856163.922 8 -11056557.780 8  21864635.230       -1601.412
 93  5  6  3 55 30.0000000  0  6 23 26 16 20 17  3                   0.000950940
   -427192.018 5   -339892.982 5  24413720.636       -3252.210
  -4654517.095 5  -3635936.126 5  24093484.459       -2284.255
  -9805197.020 7  -8567141.686 8  22171165.561        2467.790
   -405801.006 7  -8674187.875 7  22182536.030        3122.558
 -12587437.873 7  -9654798.255 6  21980311.139       -1609.769
  -7904144.300 8 -11093945.056 8  21855504.799       -1597.491
 93  5  6  3 56  0.0000000  0  6 23 26 16 20 17  3                   0.000956060
   -524700.341 5   -415873.384 5  24395164.326       -3248.680
  -4722974.440 5  -3689279.454 5  24080458.174       -2279.849
  -9730953.399 7  -8509289.534 8  22185293.671        2481.677
   -311946.875 7  -8601054.829 7  22200395.882        3134.093
 -12635590.284 7  -9692319.586 7  21971147.181       -1600.604
  -7951998.358 8 -11131233.911 8  21846398.692       -1593.238
 93  5  6  3 56 30.0000000  0  6 23 26 16 20 17  3                   0.000961160
   -622103.166 5   -491771.599 5  24376630.211       -3244.911
  -4791304.169 5  -3742523.288 5  24067455.892       -2275.598
  -9656281.064 7  -8451103.307 8  22199503.365        2496.455
   -217745.746 7  -8527651.391 7  22218321.925        3145.800
 -12683465.667 7  -9729625.049 7  21962036.577       -1591.253
  -7999721.096 8 -11168420.435 8  21837317.499       -1588.677
 93  5  6  3 57  0.0000000  0  6 23 26 16 20 17  3                   0.000966250
   -719390.353 5   -567579.659 5  24358115.979       -3240.810
  -4859503.506 5  -3795665.564 5  24054477.463       -2270.824
  -9581171.497 7  -8392576.385 8  22213796.239        2511.155
   -123202.619 7  -8453981.445 7  22236313.121        3157.318
 -12731077.045 7  -9766724.822 7  21952976.342       -1582.734
  -8047313.025 8 -11205505.012 8  21828261.009       -1584.105
 93  5  6  3 57 30.0000000  0  7 23 26 16 20 17 22  3                0.000971420
   -816557.656 5   -643294.299 5  24339625.227       -3237.065
  -4927561.446 5  -3848697.669 5  24041526.418       -2266.180
  -9505624.606 7  -8333708.692 7  22228172.456        2525.300
    -28316.365 7  -8380044.144 7  22254369.260        3168.445
 -12778444.359 7  -9803634.392 7  21943962.331       -1575.153
  -1522764.87315  -1209259.83215  25054941.285       -2451.692
  -8094768.594 8 -11242483.342 8  21819230.362       -1579.823
 93  5  6  3 58  0.0000000  0  7 23 26 16 20 17 22  3                0.000976460
   -913608.800 5   -718918.449 5  24321157.414       -3232.831
  -4995466.564 6  -3901610.661 5  24028604.249       -2260.611
  -9429651.783 7  -8274509.098 7  22242629.788        2539.581
     66904.696 7  -8305845.960 7  22272489.284        3179.720
 -12825592.991 7  -9840373.550 7  21934990.323       -1568.030
  -1596168.501 5  -1266457.434 5  25040972.459       -2441.774
  -8142091.762 8 -11279358.510 8  21810225.135       -1575.195
 93  5  6  3 58 30.0000000  0  7 23 26 16 20 17 22  3                0.000981510
  -1010528.110 5   -794439.931 5  24302714.869       -3228.391
  -5063195.162 5  -3954386.143 5  24015715.819       -2254.616
  -9353259.364 7  -8214982.544 7  22257166.523        2553.020
    162460.270 7  -8231387.117 7  22290672.949        3190.573
 -12872532.338 7  -9876949.675 7  21926058.244       -1561.184
  -1669267.086 5  -1323417.276 5  25027061.055       -2431.281
  -8189278.380 8 -11316127.281 8  21801245.761       -1570.793
 93  5  6  3 59  0.0000000  0  7 23 26 16 20 17 22  3                0.000986570
  -1107310.090 5   -869854.324 5  24284297.848       -3224.212
  -5130736.520 6  -4007015.668 5  24002863.501       -2248.451
  -9276473.828 7  -8155149.644 7  22271778.198        2565.588
    258346.465 7  -8156670.636 7  22308919.229        3201.468
 -12919262.420 7  -9913362.702 7  21917166.052       -1554.451
  -1742045.750 5  -1380127.844 5  25013213.237       -2420.846
  -8236327.635 8 -11352789.010 8  21792292.370       -1566.332
 93  5  6  3 59 30.0000000  0  7 23 26 16 20 17 22  3                0.000991620
  -1203970.221 5   -945173.790 5  24265904.026       -3219.867
  -5198092.204 6  -4059500.536 5  23990046.309       -2242.051
  -9199315.236 7  -8095026.073 7  22286460.995        2578.027
    354560.524 7  -8081698.691 7  22327228.231        3212.579
 -12965779.595 7  -9949609.850 7  21908314.638       -1546.893
  -1814505.891 5  -1436590.208 5  24999424.254       -2409.745
  -8283238.079 8 -11389342.583 8  21783365.140       -1561.450
 93  5  6  4  0  0.0000000  0  7 23 26 16 20 17 22  3                0.000996690
  -1300493.625 5  -1020386.728 5  24247535.127       -3214.986
  -5265257.070 6  -4111836.667 5  23977265.158       -2235.715
  -9121794.438 7  -8034620.225 7  22301212.761        2590.040
    451101.850 7  -8006471.723 7  22345599.295        3223.536
 -13012069.393 7  -9985679.806 7  21899506.309       -1539.018
  -1886624.471 6  -1492786.469 5  24985700.496       -2398.203
  -8330005.900 8 -11425785.011 8  21774465.719       -1556.625
 93  5  6  4  0 30.0010000  0  7 23 26 16 20 17 22  3                0.001001760
  -1396885.446 5  -1095497.147 5  24229191.770       -3210.813
  -5332246.969 5  -4164036.531 5  23964517.067       -2230.169
  -9043915.100 7  -7973935.048 7  22316032.902        2601.920
    547967.144 7  -7930992.303 7  22364032.032        3234.085
 -13058122.075 7 -10021565.000 7  21890742.406       -1530.912
  -1958403.496 5  -1548718.110 5  24972041.300       -2386.816
  -8376634.460 8 -11462118.934 8  21765592.672       -1552.004
 93  5  6  4  1  0.0010000  0  7 23 26 16 20 17 22  3                0.001006830
  -1493143.254 5  -1170503.154 5  24210875.213       -3206.350
  -5399072.094 5  -4216107.986 5  23951800.451       -2224.734
  -8965673.280 7  -7912967.401 7  22330921.885        2614.429
    645144.931 7  -7855269.388 7  22382524.809        3244.569
 -13103926.520 7 -10057256.773 7  21882026.528       -1522.686
  -2029838.521 5  -1604381.717 5  24958448.094       -2375.550
  -8423121.351 8 -11498342.470 8  21756746.277       -1547.272
 93  5  6  4  1 30.0010000  0  7 23 26 16 20 17 22  3                0.001011890
  -1589259.520 5  -1245398.823 5  24192585.056       -3201.295
  -5465728.418 5  -4268047.894 5  23939116.217       -2218.986
  -8887043.245 7  -7851697.243 7  22345884.515        2627.636
    742640.478 7  -7779298.858 7  22401077.645        3255.094
 -13149478.220 7 -10092751.572 7  21873357.939       -1514.130
  -2100932.796 6  -1659779.776 5  24944919.099       -2364.097
  -8469461.474 8 -11534451.632 8  21747928.192       -1542.306
 93  5  6  4  2  0.0010000  0  7 23 26 16 20 17 22  3                0.001016950
  -1685221.048 5  -1320173.931 5  24174324.430       -3196.105
  -5532211.415 5  -4319852.736 5  23926464.514       -2212.930
  -8808013.932 7  -7790115.931 7  22360923.454        2641.200
    840448.371 7  -7703084.946 7  22419689.953        3265.728
 -13194774.925 7 -10128047.678 7  21864738.578       -1505.328
  -2171682.780 6  -1714909.575 5  24931455.924       -2352.411
  -8515655.446 8 -11570446.921 8  21739137.878       -1537.183
 93  5  6  4  2 30.0010000  0  7 23 26 16 20 17 22  3                0.001021990
  -1781035.772 5  -1394834.677 5  24156091.240       -3191.277
  -5598516.422 5  -4371518.888 5  23913846.830       -2207.017
  -8728581.394 7  -7728220.448 7  22376038.972        2654.593
    938569.331 7  -7626627.100 7  22438361.895        3275.959
 -13239807.568 7 -10163138.035 7  21856168.819       -1496.604
  -2242097.945 6  -1769778.522 5  24918056.056       -2341.549
  -8561698.337 8 -11606324.482 9  21730376.144       -1532.248
 93  5  6  4  3  0.0010000  0  7 23 26 16 20 17 22  3                0.001027030
  -1876697.931 5  -1469376.545 5  24137887.368       -3186.233
  -5664631.149 5  -4423036.735 5  23901266.019       -2200.443
  -8648749.804 7  -7666014.020 7  22391230.624        2667.496
   1036998.049 7  -7549929.439 7  22457092.150        3286.080
 -13284580.609 7 -10198026.068 7  21847648.658       -1488.347
  -2312187.525 5  -1824393.703 5  24904718.826       -2330.926
  -8607590.577 8 -11642084.662 9  21721643.230       -1527.325
 93  5  6  4  3 30.0010000  0  7 23 26 16 20 17 22  3                0.001032060
  -1972209.479 5  -1543801.064 5  24119711.856       -3181.184
  -5730536.373 6  -4474391.355 5  23888724.531       -2193.169
  -8568535.475 7  -7603509.342 7  22406494.728        2680.125
   1135729.015 7  -7472996.253 7  22475879.925        3296.059
 -13329111.238 7 -10232725.226 7  21839174.815       -1480.379
  -2381962.691 5  -1878763.910 5  24891441.001       -2320.581
  -8653333.270 8 -11677728.296 9  21712938.485       -1522.319
 93  5  6  4  4  0.0010000  0  7 23 26 16 20 17 22  3                0.001037070
  -2067574.640 5  -1618111.501 5  24101563.765       -3176.647
  -5796230.052 6  -4525581.125 5  23876223.284       -2186.403
  -8487949.317 7  -7540714.921 7  22421829.741        2692.176
   1234759.763 7  -7395829.464 7  22494724.655        3305.879
 -13373413.134 7 -10267246.131 7  21830744.591       -1473.164
  -2451412.076 6  -1932880.316 5  24878224.922       -2309.523
  -8698924.285 8 -11713253.730 9  21704262.532       -1517.346
 93  5  6  4  4 30.0010000  0  7 23 26 16 20 17 22  3                0.001042080
  -2162800.589 6  -1692313.500 5  24083443.213       -3171.719
  -5861710.615 6  -4576604.867 5  23863763.159       -2179.083
  -8406995.930 7  -7477634.375 7  22437234.636        2704.689
   1334084.960 7  -7318433.241 7  22513625.951        3315.644
 -13417504.241 7 -10301602.795 7  21822354.078       -1466.339
  -2520530.501 6  -1986738.816 5  24865072.249       -2298.194
  -8744364.499 8 -11748661.674 9  21695615.397       -1512.328
 93  5  6  4  5  0.0010000  0  7 23 26 16 20 17 22  3                0.001047100
  -2257872.774 5  -1766395.675 5  24065352.144       -3166.388
  -5926967.202 6  -4627454.072 5  23851345.387       -2171.520
  -8325665.305 7  -7414259.887 7  22452711.462        2717.288
   1433702.617 7  -7240809.129 7  22532582.606        3325.499
 -13461395.979 7 -10335804.086 7  21814001.899       -1459.842
  -2589296.085 5  -2040322.383 5  24851986.183       -2286.279
  -8789651.046 8 -11783949.887 9  21686997.775       -1507.005
 93  5  6  4  5 30.0010000  0  7 23 26 16 20 17 22  3                0.001052130
  -2352791.678 6  -1840358.411 5  24047290.075       -3161.446
  -5992012.148 6  -4678138.374 5  23838966.656       -2165.057
  -8243959.976 7  -7350593.390 7  22468259.727        2729.784
   1533607.846 7  -7162960.944 6  22551594.017        3334.889
 -13505095.773 7 -10369855.827 7  21805686.106       -1453.293
  -2657707.737 6  -2093630.174 5  24838967.661       -2274.378
  -8834783.888 8 -11819118.318 9  21678409.340       -1501.983
 93  5  6  4  6  0.0010000  0  7 23 26 16 20 17 22  3                0.001057170
  -2447556.774 5  -1914201.306 5  24029256.601       -3156.251
  -6056872.478 6  -4728678.815 5  23826623.881       -2158.961
  -8161872.628 7  -7286629.235 7  22483880.203        2742.662
   1633800.451 7  -7084888.818 7  22570659.993        3344.525
 -13548580.471 7 -10403739.949 7  21797411.286       -1445.573
  -2725749.848 5  -2146649.978 5  24826020.114       -2261.821
  -8879758.632 8 -11854163.543 9  21669850.974       -1496.597
 93  5  6  4  6 30.0010000  0  7 23 26 16 20 17 22  3                0.001062200
  -2542164.426 5  -1987921.538 5  24011253.168       -3151.029
  -6121544.735 6  -4779072.687 5  23814317.304       -2152.689
  -8079403.271 7  -7222367.397 7  22499573.469        2755.140
   1734276.576 7  -7006595.757 6  22589780.279        3353.755
 -13591828.098 7 -10437439.344 7  21789181.482       -1437.606
  -2793424.631 5  -2199383.552 5  24813142.346       -2249.845
  -8924574.861 8 -11889085.255 9  21661322.839       -1491.490
 93  5  6  4  7  0.0010000  0  7 23 26 16 20 17 22  3                0.001067230
  -2636605.501 5  -2061511.947 5  23993282.063       -3145.548
  -6186027.429 6  -4829318.885 5  23802046.750       -2146.347
  -7996560.883 7  -7157814.914 7  22515337.557        2767.299
   1835034.740 7  -6928082.927 7  22608953.820        3363.191
 -13634825.077 7 -10470943.421 7  21780999.489       -1429.127
  -2860735.154 5  -2251833.302 5  24800333.756       -2237.871
  -8969229.386 8 -11923880.964 9  21652825.223       -1485.968
 93  5  6  4  7 30.0010000  0  7 23 26 16 20 17 22  3                0.001072230
  -2730894.795 5  -2134984.044 5  23975339.416       -3140.538
  -6250321.002 6  -4879417.679 5  23789812.072       -2139.770
  -7913364.631 7  -7092986.655 7  22531169.487        2779.129
   1936068.731 7  -6849355.164 7  22628180.085        3372.423
 -13677568.963 7 -10504250.281 7  21772865.570       -1420.441
  -2927695.802 5  -2304010.423 5  24787591.021       -2225.988
  -9013723.460 8 -11958551.613 9  21644358.193       -1480.505
 93  5  6  4  8  0.0010000  0  7 23 26 16 20 17 22  3                0.001077220
  -2825034.758 5  -2208339.866 5  23957424.539       -3135.301
  -6314405.560 6  -4929353.636 5  23777617.096       -2132.238
  -7829815.762 7  -7027883.682 7  22547068.589        2790.869
   2037374.333 7  -6770415.762 7  22647457.850        3381.453
 -13720055.837 7 -10537356.896 7  21764780.565       -1411.917
  -2994297.953 5  -2355908.189 5  24774917.718       -2213.974
  -9058056.602 8 -11993096.897 9  21635921.802       -1475.078
 93  5  6  4  8 30.0010000  0  7 23 26 16 20 17 22  3                0.001082200
  -2919009.009 5  -2281566.493 5  23939541.081       -3129.593
  -6378247.315 6  -4979100.328 5  23765468.327       -2123.685
  -7745919.454 7  -6962509.927 7  22563033.675        2802.275
   2138950.817 7  -6691265.273 6  22666787.341        3390.497
 -13762293.833 7 -10570269.571 7  21756742.791       -1403.707
  -3060547.922 5  -2407531.498 5  24762310.339       -2202.355
  -9102224.642 8 -12027513.495 9  21627517.011       -1469.462
 93  5  6  4  9  0.0010000  0  7 23 26 16 20 17 22  3                0.001087170
  -3012817.732 5  -2354664.156 5  23921690.625       -3124.288
  -6441831.623 6  -5028646.492 5  23753368.478       -2115.130
  -7661686.826 7  -6896874.124 7  22579062.590        2813.324
   2240797.447 6  -6611904.273 6  22686168.085        3399.384
 -13804284.902 7 -10602989.854 7  21748752.161       -1395.588
  -3126449.740 5  -2458883.525 5  24749769.725       -2190.802
  -9146223.990 8 -12061798.666 9  21619144.197       -1463.911
 93  5  6  4  9 30.0010000  0  7 23 26 16 20 17 22  3                0.001092140
  -3106464.805 6  -2427635.819 5  23903870.300       -3118.742
  -6505164.684 6  -5077996.858 5  23741316.285       -2107.076
  -7577122.454 7  -6830979.817 7  22595154.630        2824.429
   2342907.944 6  -6532337.672 6  22705598.911        3408.076
 -13846026.565 7 -10635515.782 7  21740808.762       -1387.134
  -3192000.195 5  -2509961.777 5  24737296.419       -2179.022
  -9190055.656 8 -12095953.159 9  21610803.352       -1458.304
 93  5  6  4 10  0.0010000  0  7 23 26 16 20 17 22  3                0.001097090
  -3199938.220 5  -2500472.214 5  23886082.379       -3112.779
  -6568258.527 6  -5127160.796 5  23729310.400       -2099.058
  -7492219.366 7  -6764821.590 7  22611311.005        2835.741
   2445283.098 6  -6452564.855 6  22725080.252        3417.026
 -13887510.162 7 -10667840.642 7  21732914.298       -1378.381
  -3257189.949 5  -2560758.997 5  24724891.531       -2166.798
  -9233714.324 8 -12129972.874 9  21602495.423       -1452.375
 93  5  6  4 10 30.0010000  0  7 23 26 16 20 17 22  3                0.001102030
  -3293234.966 5  -2573170.905 5  23868328.271       -3107.328
  -6631111.712 6  -5176137.210 5  23717349.553       -2091.254
  -7406982.953 7  -6698403.598 7  22627530.586        2846.473
   2547925.611 6  -6372583.679 6  22744612.176        3425.625
 -13928737.145 7 -10699965.520 7  21725069.347       -1370.324
  -3322014.377 5  -2611271.534 5  24712555.458       -2154.890
  -9277192.508 8 -12163851.927 9  21594221.681       -1446.598
 93  5  6  4 11  0.0010000  0  7 23 26 16 20 17 22  3                0.001106950
  -3386368.811 5  -2645742.666 5  23850605.619       -3101.256
  -6693738.670 6  -5224937.374 5  23705432.010       -2083.724
  -7321417.223 7  -6631728.998 7  22643813.244        2858.235
   2650823.806 6  -6292403.277 6  22764193.808        3434.437
 -13969725.575 7 -10731904.538 7  21717269.467       -1362.237
  -3386470.158 5  -2661496.802 5  24700289.286       -2141.978
  -9320496.753 8 -12197595.456 9  21585981.227       -1440.392
 93  5  6  4 11 30.0010000  0  7 23 26 16 20 17 22  3                0.001111870
  -3479323.594 5  -2718174.896 5  23832916.485       -3095.706
  -6756145.469 6  -5273565.994 5  23693556.407       -2076.452
  -7235500.198 7  -6564780.668 7  22660162.856        2869.727
   2753977.621 6  -6212023.696 6  22783822.966        3442.565
 -14010493.129 7 -10763671.449 7  21709511.969       -1355.595
  -3450545.181 6  -2711425.312 5  24688096.608       -2129.568
  -9363622.765 8 -12231200.085 9  21577774.397       -1434.751
 93  5  6  4 12  0.0010000  0  7 23 26 16 20 17 22  3                0.001116790
  -3572104.403 6  -2790471.546 5  23815260.945       -3089.816
  -6818307.085 6  -5322003.568 5  23681727.881       -2067.809
  -7149232.662 7  -6497559.208 7  22676579.432        2881.246
   2857382.836 6  -6131448.214 6  22803500.375        3450.883
 -14051058.742 7 -10795281.004 7  21701792.321       -1348.998
  -3514237.066 6  -2761055.355 5  24675976.630       -2116.728
  -9406569.751 8 -12264665.240 9  21569602.086       -1428.799
 93  5  6  4 12 30.0010000  0  7 23 26 16 20 17 22  3                0.001121730
  -3664702.905 6  -2862626.143 5  23797640.594       -3083.165
  -6880203.530 6  -5370234.462 5  23669949.316       -2058.660
  -7062621.828 7  -6430070.251 7  22693060.493        2892.901
   2961033.200 6  -6050681.727 6  22823224.168        3459.269
 -14091428.085 7 -10826737.609 7  21694110.551       -1342.026
  -3577545.413 6  -2810386.525 5  24663929.850       -2103.728
  -9449339.330 8 -12297992.140 9  21561463.229       -1422.576
 93  5  6  4 13  0.0010000  0  7 23 26 16 20 17 22  3                0.001126680
  -3757097.953 5  -2934622.195 5  23780058.862       -3076.397
  -6941846.008 6  -5418267.497 5  23658218.634       -2050.707
  -6975670.434 7  -6362315.894 7  22709607.118        2903.908
   3064930.806 6  -5969722.576 6  22842995.081        3467.302
 -14131577.900 7 -10858023.148 7  21686470.148       -1334.537
  -3640464.570 6  -2859414.415 5  24651956.217       -2090.863
  -9491924.599 8 -12331175.424 9  21553359.490       -1416.573
 93  5  6  4 13 30.0010000  0  7 23 26 16 20 17 22  3                0.001131620
  -3849290.058 6  -3006460.142 5  23762514.114       -3069.745
  -7003238.961 6  -5466106.124 5  23646535.832       -2042.123
  -6888399.998 7  -6294312.975 7  22726214.110        2914.163
   3169070.669 6  -5888574.638 6  22862812.153        3475.424
 -14171490.834 7 -10889124.111 7  21678874.828       -1326.165
  -3702993.517 6  -2908138.236 5  24640057.286       -2077.736
  -9534325.444 8 -12364214.991 9  21545290.876       -1410.304
 93  5  6  4 14  0.0010000  0  7 23 26 16 20 17 22  3                0.001136560
  -3941285.623 6  -3078144.885 5  23745007.560       -3063.013
  -7064380.019 6  -5513748.443 5  23634901.277       -2034.027
  -6800832.339 7  -6226078.427 6  22742877.395        2923.740
   3273449.825 6  -5807240.246 6  22882674.981        3483.274
 -14211146.313 7 -10920024.470 7  21671328.720       -1317.340
  -3765132.641 6  -2956558.302 5  24628232.708       -2064.868
  -9576540.182 8 -12397109.559 9  21537257.587       -1404.128
 93  5  6  4 14 30.0010000  0  7 23 26 16 20 17 22  3                0.001141480
  -4033076.206 5  -3149669.947 5  23727540.737       -3056.400
  -7125289.243 6  -5561210.093 5  23623310.483       -2026.610
  -6712974.901 7  -6157618.074 6  22759596.150        2933.309
   3378063.416 6  -5725723.164 6  22902582.544        3490.966
 -14250535.398 7 -10950717.223 8  21663833.068       -1308.649
  -3826883.562 6  -3004675.895 5  24616481.626       -2051.773
  -9618568.675 8 -12429859.009 9  21529259.784       -1398.001
 93  5  6  4 15  0.0010000  0  7 23 26 16 20 17 22  3                0.001146380
  -4124666.262 6  -3221038.768 5  23710111.401       -3049.863
  -7185954.344 6  -5608481.542 5  23611766.517       -2017.691
  -6624817.462 7  -6088923.965 6  22776372.036        2943.937
   3482912.172 6  -5644022.879 6  22922534.440        3498.787
 -14289664.383 7 -10981207.309 8  21656387.016       -1300.240
  -3888238.036 6  -3052484.537 5  24604806.618       -2038.499
  -9660404.993 8 -12462458.721 9  21521298.775       -1391.496
 93  5  6  4 15 30.0010000  0  7 23 26 16 20 17 22  3                0.001151290
  -4216070.963 6  -3292263.135 5  23692718.220       -3043.691
  -7246337.186 6  -5655533.026 5  23600276.095       -2007.860
  -6536333.468 7  -6019975.399 6  22793210.019        2955.160
   3587991.192 6  -5562143.142 6  22942530.357        3506.529
 -14328555.344 7 -11011511.936 8  21648986.300       -1292.494
  -3949193.410 6  -3099982.223 5  24593206.896       -2025.160
  -9702049.520 8 -12494908.982 9  21513374.061       -1384.955
 93  5  6  4 16  0.0010000  0  7 23 26 16 20 17 22  3                0.001156200
  -4307289.769 6  -3363342.630 5  23675360.560       -3037.330
  -7306430.916 6  -5702359.260 5  23588840.666       -1998.228
  -6447506.396 7  -5950759.484 6  22810113.379        2966.672
   3693297.938 6  -5480085.946 6  22962569.682        3514.005
 -14367222.861 7 -11041642.429 8  21641628.174       -1285.220
  -4009754.476 6  -3147172.629 5  24581682.332       -2012.133
  -9743499.543 8 -12527207.678 9  21505486.361       -1378.498
 93  5  6  4 16 30.0010000  0  7 23 26 16 20 17 22  3                0.001161110
  -4398322.485 6  -3434277.137 5  23658036.044       -3031.412
  -7366231.812 6  -5748957.274 5  23577460.622       -1988.368
  -6358331.678 7  -5881272.702 6  22827082.580        2978.353
   3798824.921 6  -5397857.175 6  22982650.881        3521.193
 -14405677.169 7 -11071606.795 8  21634310.487       -1278.342
  -4069929.792 6  -3194062.499 5  24570231.189       -1999.358
  -9784757.891 8 -12559357.031 9  21497634.988       -1372.216
 93  5  6  4 17  0.0010000  0  7 23 26 16 20 17 22  3                0.001166030
  -4489171.422 6  -3505068.405 5  23640748.560       -3024.960
  -7425729.782 6  -5795319.254 5  23566138.273       -1978.155
  -6268806.081 7  -5811512.486 6  22844118.517        2990.163
   3904569.020 6  -5315459.214 6  23002773.181        3528.599
 -14443918.625 7 -11101405.299 8  21627033.286       -1270.865
  -4129719.624 6  -3240651.962 5  24558853.264       -1986.314
  -9825822.844 8 -12591355.676 9  21489820.527       -1365.438
 93  5  6  4 17 30.0010000  0  7 23 26 16 20 17 22  3                0.001170940
  -4579829.724 6  -3575711.200 5  23623496.705       -3018.509
  -7484949.674 6  -5841464.571 5  23554869.081       -1969.762
  -6178947.662 7  -5741492.940 6  22861218.089        3000.393
   4010528.460 6  -5232893.435 6  23022936.501        3535.623
 -14481943.541 7 -11131035.057 8  21619797.416       -1263.873
  -4189121.424 6  -3286939.075 5  24547549.174       -1973.548
  -9866691.061 8 -12623201.033 9  21482043.551       -1359.038
 93  5  6  4 18  0.0010000  0  7 23 26 16 20 17 22  3                0.001175840
  -4670274.618 6  -3646187.617 5  23606286.089       -3011.213
  -7543912.772 6  -5887409.753 5  23543648.631       -1961.269
  -6088787.406 7  -5671238.216 6  22878374.894        3009.934
   4116706.806 6  -5150157.108 6  23043141.816        3542.733
 -14519739.092 7 -11160486.105 8  21612605.005       -1256.045
  -4248127.660 6  -3332917.934 5  24536320.304       -1960.312
  -9907354.058 8 -12654886.486 9  21474305.707       -1352.243
 93  5  6  4 18 30.0010000  0  7 23 26 16 20 17 22  3                0.001180720
  -4760505.126 6  -3716497.011 5  23589115.724       -3004.201
  -7602625.288 6  -5933159.724 5  23532476.076       -1952.972
  -5998347.026 7  -5600765.191 6  22895585.426        3019.288
   4223093.275 6  -5067258.575 6  23063386.582        3549.643
 -14557306.392 7 -11189759.270 8  21605456.355       -1248.579
  -4306742.573 6  -3378591.864 5  24525166.202       -1947.121
  -9947817.584 8 -12686416.499 9  21466605.569       -1345.610
 93  5  6  4 19  0.0010000  0  7 23 26 16 20 17 22  3                0.001185590
  -4850520.571 6  -3786638.838 5  23571986.343       -2996.959
  -7661090.417 6  -5978716.884 5  23521351.167       -1944.689
  -5907635.549 7  -5530080.917 6  22912847.325        3028.172
   4329686.520 6  -4984198.934 6  23083670.526        3556.595
 -14594649.437 7 -11218857.738 8  21598349.984       -1240.948
  -4364954.314 6  -3423951.701 5  24514088.863       -1933.565
  -9988078.276 8 -12717788.469 9  21458944.132       -1338.679
 93  5  6  4 19 30.0010000  0  7 23 26 16 20 17 22  3                0.001190440
  -4940327.643 6  -3856618.274 5  23554896.317       -2989.985
  -7719307.212 6  -6024080.538 5  23510272.691       -1935.943
  -5816664.007 7  -5459193.991 6  22930158.792        3036.940
   4436481.609 6  -4900982.017 6  23103992.890        3563.305
 -14631766.485 7 -11247780.073 8  21591286.904       -1233.261
  -4422757.039 6  -3468992.750 5  24503090.075       -1919.729
 -10028136.046 8 -12749002.312 9  21451321.278       -1331.822
 93  5  6  4 20  0.0010000  0  7 23 26 16 20 17 22  3                0.001195280
  -5029919.034 6  -3926429.677 5  23537847.332       -2982.932
  -7777238.935 6  -6069222.083 5  23499248.106       -1926.071
  -5725416.288 7  -5388091.866 6  22947522.472        3046.361
   4543482.031 6  -4817605.093 6  23124354.713        3570.072
 -14668637.066 7 -11276510.349 8  21584270.670       -1224.912
  -4480141.944 5  -3513708.263 5  24492170.071       -1905.738
 -10067982.282 8 -12780051.315 9  21443738.988       -1324.803
 93  5  6  4 20 30.0010000  0  7 23 26 16 20 17 22  3                0.001200120
  -5119312.029 6  -3996086.454 5  23520836.364       -2976.521
  -7834871.408 6  -6114130.418 5  23488281.349       -1915.946
  -5633886.903 7  -5316770.285 6  22964939.655        3055.864
   4650679.291 6  -4734074.803 6  23144753.555        3576.561
 -14705269.618 7 -11305055.158 8  21577299.797       -1217.090
  -4537102.453 6  -3558093.053 5  24481331.044       -1891.452
 -10107620.607 8 -12810938.333 9  21436196.050       -1317.823
 93  5  6  4 21  0.0010000  0  7 23 26 16 20 17 22  3                0.001204970
  -5208508.336 6  -4065590.016 5  23503862.702       -2970.010
  -7892190.931 6  -6158794.940 5  23477373.477       -1905.397
  -5542068.632 7  -5245223.573 6  22982412.097        3065.330
   4758075.140 6  -4650389.771 6  23165190.391        3583.045
 -14741658.399 8 -11333410.027 8  21570375.119       -1208.923
  -4593622.332 6  -3602134.496 5  24470576.269       -1876.795
 -10147044.148 8 -12841657.992 9  21428694.104       -1310.747
 93  5  6  4 21 30.0010000  0  7 23 26 16 20 17 22  3                0.001209830
  -5297498.084 6  -4134932.595 5  23486928.669       -2962.907
  -7949184.797 6  -6203205.681 5  23466527.590       -1894.578
  -5449955.559 7  -5173447.167 6  22999940.362        3075.233
   4865669.389 6  -4566550.132 6  23185665.095        3589.547
 -14777800.627 8 -11361572.769 8  21563497.570       -1201.004
  -4649695.350 6  -3645827.726 5  24459905.973       -1861.816
 -10186248.291 8 -12872206.661 9  21421233.559       -1303.440
 93  5  6  4 22  0.0010000  0  7 23 26 16 20 17 22  3                0.001214710
  -5386275.066 6  -4204109.419 5  23470034.724       -2955.659
  -8005862.380 6  -6247369.976 5  23455742.188       -1883.916
  -5357545.918 7  -5101439.634 6  23017525.428        3085.366
   4973452.777 6  -4482563.102 6  23206175.550        3596.043
 -14813710.973 8 -11389554.817 8  21556664.083       -1193.047
  -4705334.362 6  -3689182.744 5  24449318.607       -1847.234
 -10225237.248 8 -12902587.657 9  21413814.144       -1296.000
 93  5  6  4 22 30.0010000  0  7 23 26 16 20 17 22  3                0.001219590
  -5474838.571 6  -4273119.861 5  23453181.680       -2948.532
  -8062228.740 6  -6291291.759 5  23445016.353       -1873.896
  -5264836.787 7  -5029198.749 6  23035167.506        3095.360
   5081423.247 6  -4398430.314 6  23226721.636        3602.030
 -14849392.414 8 -11417358.512 8  21549873.943       -1185.482
  -4760539.042 6  -3732199.344 5  24438813.260       -1833.130
 -10264007.675 8 -12932798.363 9  21406436.502       -1288.878
 93  5  6  4 23  0.0010000  0  7 23 26 16 20 17 22  3                0.001224470
  -5563174.660 6  -4341953.102 5  23436371.669       -2940.478
  -8118298.405 6  -6334982.346 5  23434346.194       -1863.914
  -5171824.810 7  -4956721.900 6  23052867.043        3105.548
   5189572.884 6  -4314157.889 6  23247301.591        3608.052
 -14884838.233 8 -11444978.595 8  21543128.843       -1177.364
  -4815327.493 6  -3774891.593 5  24428386.984       -1819.415
 -10302562.833 8 -12962841.340 9  21399099.672       -1281.567
 93  5  6  4 23 30.0010000  0  7 23 26 16 20 17 22  3                0.001229290
  -5651333.237 6  -4410648.053 5  23419595.642       -2934.473
  -8174133.436 6  -6378490.124 5  23423720.764       -1856.125
  -5078570.887 7  -4884056.493 6  23070612.486        3113.594
   5297838.381 6  -4229795.195 6  23267904.339        3611.805
 -14920099.351 8 -11472454.771 8  21536418.638       -1171.058
  -4869773.232 6  -3817316.792 5  24418026.009       -1808.136
 -10340961.057 8 -12992762.022 9  21391792.910       -1276.308
 93  5  6  4 24  0.0010000  0  7 23 26 16 20 17 22  3                0.001234080
  -5739247.158 6  -4479152.332 5  23402866.005       -2926.284
  -8229669.309 6  -6421764.776 5  23413153.094       -1846.167
  -4985017.902 7  -4811158.053 6  23088415.262        3123.296
   5406279.354 6  -4145295.763 6  23288539.752        3617.646
 -14955101.401 8 -11499729.044 8  21529758.199       -1162.243
  -4923821.724 6  -3859432.439 5  24407740.247       -1794.871
 -10379137.479 8 -13022509.874 9  21384528.179       -1268.876
 93  5  6  4 24 30.0010000  0  7 23 26 16 20 17 22  3                0.001238860
  -5826913.539 6  -4547463.738 5  23386183.941       -2918.087
  -8284905.698 6  -6464806.049 5  23402641.678       -1836.466
  -4891185.497 6  -4738041.898 6  23106270.890        3132.158
   5514891.201 6  -4060663.202 6  23309207.379        3623.082
 -14989843.672 8 -11526800.940 8  21523146.667       -1153.831
  -4977473.696 6  -3901239.141 5  24397531.011       -1781.970
 -10417091.988 8 -13052084.801 9  21377305.609       -1261.637
 93  5  6  4 25  0.0010000  0  7 23 26 16 20 17 22  3                0.001243590
  -5914330.395 6  -4615580.702 6  23369549.376       -2909.837
  -8339838.211 6  -6507610.557 5  23392188.424       -1825.650
  -4797092.276 6  -4664722.529 6  23124175.958        3140.569
   5623668.511 6  -3975901.680 6  23329906.886        3628.746
 -15024333.507 8 -11553676.084 8  21516583.480       -1145.520
  -5030738.546 6  -3942744.171 5  24387395.503       -1768.859
 -10454824.628 8 -13081486.829 9  21370125.359       -1254.036
 93  5  6  4 25 30.0010000  0  7 23 26 16 20 17 22  3                0.001248290
  -6001511.645 6  -4683514.068 6  23352959.061       -2902.137
  -8394449.547 6  -6550164.761 5  23381795.918       -1815.117
  -4702759.497 7  -4591216.464 6  23142127.100        3148.258
   5732610.691 6  -3891011.704 6  23350638.198        3634.066
 -15058586.042 8 -11580366.347 8  21510065.603       -1138.104
  -5083605.086 6  -3983938.839 5  24377335.306       -1755.438
 -10492330.277 8 -13110711.973 9  21362988.101       -1246.569
 93  5  6  4 26  0.0010000  0  7 23 26 16 20 17 22  3                0.001252980
  -6088460.478 6  -4751266.337 6  23336412.802       -2894.372
  -8448734.450 6  -6592464.617 5  23371465.628       -1803.938
  -4608193.521 7  -4517528.707 6  23160122.462        3155.986
   5841714.907 6  -3805995.445 6  23371400.466        3639.539
 -15092625.169 8 -11606890.306 9  21503588.075       -1131.127
  -5136058.496 6  -4024811.551 5  24367353.402       -1741.393
 -10529607.561 8 -13139759.190 9  21355894.493       -1238.784
 93  5  6  4 26 30.0010000  0  7 23 26 16 20 17 22  3                0.001257660
  -6175174.957 6  -4818835.986 6  23319911.616       -2886.787
  -8502679.470 6  -6634499.652 5  23361200.764       -1792.452
  -4513390.013 7  -4443655.846 6  23178163.202        3164.200
   5950985.885 6  -3720849.254 5  23392193.591        3645.058
 -15126449.315 8 -11633246.758 9  21497151.571       -1124.000
  -5188076.749 6  -4065345.216 5  24357454.456       -1726.645
 -10566646.394 8 -13168620.576 9  21348846.171       -1230.837
 93  5  6  4 27  0.0010000  0  7 23 26 16 20 17 22  3                0.001262350
  -6261675.045 6  -4886238.578 6  23303451.585       -2879.829
  -8556280.095 6  -6676266.317 5  23351000.741       -1780.995
  -4418345.789 7  -4369595.414 6  23196249.529        3172.194
   6060406.522 6  -3635586.431 6  23413015.715        3649.739
 -15160080.534 8 -11659452.862 9  21490751.890       -1118.048
  -5239658.161 6  -4105538.509 5  24347638.925       -1711.844
 -10603458.927 8 -13197305.644 9  21341840.991       -1223.460
 93  5  6  4 27 30.0010000  0  7 23 26 16 20 17 22  3                0.001267060
  -6347950.270 6  -4953465.957 6  23287033.384       -2871.650
  -8609540.501 6  -6717767.870 5  23340865.513       -1769.563
  -4323049.588 7  -4295338.652 6  23214383.928        3181.046
   6169975.650 6  -3550207.923 5  23433866.281        3654.875
 -15193520.993 8 -11685510.342 9  21484388.277       -1111.260
  -5290777.308 6  -4145371.593 5  24337911.101       -1696.124
 -10640041.508 8 -13225811.508 9  21334879.460       -1215.560
 93  5  6  4 28  0.0010000  0  7 23 26 16 20 17 22  3                0.001271790
  -6433977.933 6  -5020500.446 6  23270662.785       -2863.633
  -8662454.227 6  -6758999.300 5  23330796.394       -1758.063
  -4227479.509 6  -4220868.451 6  23232570.066        3190.126
   6279697.899 6  -3464710.101 6  23454745.966        3659.790
 -15226750.791 8 -11711403.656 9  21478064.686       -1103.994
  -5341426.332 6  -4184838.313 5  24328272.429       -1680.627
 -10676384.443 8 -13254130.655 9  21327963.560       -1207.649
 93  5  6  4 28 30.0010000  0  7 23 26 16 20 17 22  3                0.001276540
  -6519767.103 6  -5087349.077 6  23254337.554       -2855.255
  -8715028.908 6  -6799966.527 5  23320791.474       -1746.560
  -4131636.072 6  -4146185.271 6  23250808.688        3199.728
   6389562.378 6  -3379101.462 6  23475652.295        3664.780
 -15259759.316 8 -11737124.551 9  21471783.534       -1096.410
  -5391621.202 6  -4223951.190 5  24318720.920       -1665.424
 -10712493.241 8 -13282267.340 9  21321092.446       -1199.504
 93  5  6  4 29  0.0010000  0  7 23 26 16 20 17 22  3                0.001281300
  -6605302.862 6  -5154000.268 6  23238060.273       -2846.793
  -8767259.533 6  -6840665.643 5  23310852.203       -1735.443
  -4035511.289 7  -4071282.857 6  23269100.676        3208.707
   6499574.327 6  -3293377.901 6  23496586.498        3669.620
 -15292545.899 8 -11762672.501 9  21465544.441       -1088.929
  -5441367.593 6  -4262714.583 5  24309254.814       -1650.742
 -10748357.904 8 -13310213.797 9  21314267.870       -1191.410
 93  5  6  4 29 30.0010000  0  7 23 26 16 20 17 22  3                0.001286050
  -6690588.410 6  -5220456.474 6  23221831.463       -2838.952
  -8819163.795 6  -6881110.429 5  23300975.517       -1724.725
  -3939132.533 7  -3996182.533 6  23287440.939        3216.659
   6609725.675 6  -3207545.711 6  23517547.749        3673.876
 -15325097.457 8 -11788037.322 9  21459349.930       -1081.137
  -5490678.412 6  -4301138.558 5  24299870.829       -1636.860
 -10783980.955 8 -13337971.999 9  21307488.933       -1183.661
 93  5  6  4 30  0.0010000  0  7 23 26 16 20 17 22  3                0.001290770
  -6775631.299 6  -5286723.590 6  23205648.177       -2830.927
  -8870729.263 6  -6921291.248 5  23291162.995       -1713.145
  -3842500.825 7  -3920885.104 6  23305829.528        3225.144
   6720017.568 6  -3121603.990 6  23538535.587        3678.688
 -15357403.789 8 -11813211.065 9  21453202.147       -1072.900
  -5539565.726 6  -4339232.567 5  24290567.406       -1622.586
 -10819356.627 8 -13365537.431 9  21300757.054       -1175.219
 93  5  6  4 30 30.0010000  0  7 23 26 16 20 17 22  3                0.001295470
  -6860444.152 6  -5352811.484 6  23189508.648       -2823.427
  -8921948.036 6  -6961201.917 5  23281416.200       -1701.694
  -3745625.552 6  -3845397.890 6  23324264.208        3232.843
   6830444.811 6  -3035556.805 6  23559549.000        3682.930
 -15389473.627 8 -11838200.508 9  21447099.450       -1065.373
  -5588033.038 6  -4376999.271 5  24281344.417       -1608.821
 -10854484.556 8 -13392909.803 9  21294072.491       -1167.085
 93  5  6  4 31  0.0010000  0  7 23 26 16 20 17 22  3                0.001300150
  -6945028.609 6  -5418721.386 6  23173413.314       -2815.832
  -8972818.807 6  -7000841.389 5  23271735.663       -1689.828
  -3648533.425 6  -3769741.689 6  23342740.238        3239.842
   6941004.314 6  -2949406.581 6  23580588.055        3687.537
 -15421306.594 8 -11863005.401 9  21441041.686       -1056.847
  -5636069.056 6  -4414429.935 5  24272203.938       -1593.676
 -10889362.489 8 -13420087.389 9  21287435.365       -1158.572
 93  5  6  4 31 30.0010000  0  7 23 26 16 20 17 22  3                0.001304810
  -7029391.919 6  -5484458.978 6  23157359.471       -2808.273
  -9023337.014 6  -7040206.151 5  23262122.796       -1677.813
  -3551232.310 7  -3693922.639 6  23361255.760        3247.021
   7051692.996 6  -2863155.680 6  23601651.724        3691.813
 -15452888.128 8 -11887614.344 9  21435031.864       -1048.723
  -5683655.770 6  -4451510.476 5  24263148.426       -1578.677
 -10923989.409 9 -13447069.380 9  21280845.957       -1150.069
 93  5  6  4 32  0.0010000  0  7 23 26 16 20 17 22  3                0.001309460
  -7113523.319 6  -5550015.860 6  23141349.685       -2800.497
  -9073487.473 6  -7079284.387 5  23252579.728       -1665.604
  -3453715.333 7  -3617935.393 6  23379812.562        3253.899
   7162509.841 6  -2776804.945 6  23622739.348        3695.939
 -15484235.480 8 -11912040.837 9  21429066.715       -1041.209
  -5730787.254 6  -4488236.284 5  24254179.801       -1563.299
 -10958360.522 9 -13473852.037 9  21274305.455       -1141.624
 93  5  6  4 32 30.0010000  0  7 23 26 16 20 17 22  3                0.001314100
  -7197418.531 6  -5615388.702 6  23125384.892       -2792.350
  -9123276.318 6  -7118080.832 5  23243104.217       -1653.767
  -3356002.755 7  -3541795.724 6  23398406.730        3260.182
   7273447.254 6  -2690360.234 6  23643850.175        3699.922
 -15515359.926 8 -11936293.624 9  21423143.785       -1033.706
  -5777453.354 6  -4524599.467 5  24245299.216       -1547.601
 -10992478.338 8 -13500437.334 9  21267813.258       -1133.106
 93  5  6  4 33  0.0010000  0  7 23 26 16 20 17 22  3                0.001318730
  -7281054.165 6  -5680559.277 6  23109469.617       -2783.218
  -9172713.686 6  -7156603.404 5  23233696.204       -1641.877
  -3258100.815 7  -3465508.490 6  23417037.122        3266.977
   7384504.465 6  -2603822.171 6  23664983.060        3703.951
 -15546256.913 8 -11960369.182 9  21417264.485       -1026.108
  -5823641.611 6  -4560590.320 5  24236509.993       -1531.574
 -11026338.757 8 -13526822.057 9  21261369.690       -1124.414
 93  5  6  4 33 30.0010000  0  7 23 26 16 20 17 22  3                0.001323370
  -7364404.635 6  -5745507.662 6  23093608.783       -2773.532
  -9221781.730 6  -7194838.202 5  23224359.479       -1629.363
  -3159980.443 6  -3389051.078 6  23435708.938        3274.291
   7495681.702 6  -2517190.595 6  23686139.633        3707.767
 -15576941.825 8 -11984279.484 9  21411425.219       -1019.636
  -5869358.967 6  -4596214.239 5  24227809.482       -1516.314
 -11059936.190 8 -13553001.860 9  21254976.246       -1115.718
 93  5  6  4 34  0.0010000  0  7 23 26 16 20 17 22  3                0.001328020
  -7447467.100 6  -5810231.619 6  23077802.262       -2763.975
  -9270470.912 6  -7232777.773 5  23215094.235       -1616.712
  -3061641.492 6  -3312423.351 6  23454421.813        3281.647
   7606972.968 6  -2430470.157 5  23707318.266        3711.643
 -15607424.628 8 -12008032.289 9  21405624.735       -1012.442
  -5914619.662 6  -4631482.288 5  24219196.356       -1500.835
 -11093271.774 8 -13578977.621 9  21248632.637       -1106.854
 93  5  6  4 34 30.0010000  0  7 23 26 16 20 17 22  3                0.001332660
  -7530242.122 6  -5874731.573 6  23062050.396       -2754.236
  -9318790.002 6  -7270428.938 5  23205899.138       -1604.386
  -2963076.518 6  -3235619.473 6  23473177.988        3289.492
   7718376.599 6  -2343662.154 5  23728517.247        3715.416
 -15637683.716 8 -12031610.771 9  21399866.659       -1004.638
  -5959415.578 6  -4666388.179 5  24210672.566       -1485.561
 -11126342.100 8 -13604746.676 9  21242339.594       -1097.983
 93  5  6  4 35  0.0010000  0  7 23 26 16 20 17 22  3                0.001337300
  -7612728.702 6  -5939006.772 6  23046353.445       -2745.224
  -9366735.484 6  -7307789.005 5  23196775.554       -1591.929
  -2864270.438 6  -3158627.752 6  23491980.069        3297.505
   7829889.235 6  -2256769.226 5  23749737.807        3718.638
 -15667705.134 8 -12055004.046 9  21394153.825        -996.883
  -6003762.833 6  -4700944.443 5  24202234.057       -1470.981
 -11159145.383 8 -13630307.658 9  21236097.046       -1089.311
 93  5  6  4 35 30.0010000  0  7 23 26 16 20 17 22  3                0.001341930
  -7694958.414 6  -6003081.812 6  23030705.705       -2736.843
  -9414294.888 6  -7344848.242 5  23187725.541       -1578.850
  -2765221.233 6  -3081446.573 6  23510828.731        3305.593
   7941506.253 6  -2169794.940 5  23770977.465        3722.509
 -15697481.945 8 -12078206.724 9  21388487.328        -988.117
  -6047664.759 6  -4735153.702 5  24193879.818       -1455.589
 -11191681.051 8 -13655660.100 9  21229905.702       -1079.933
 93  5  6  4 36  0.0010000  0  7 23 26 16 20 17 22  3                0.001346540
  -7776956.928 6  -6066976.702 6  23015101.897       -2729.388
  -9461495.177 6  -7381627.656 5  23178743.678       -1567.593
  -2665952.837 6  -3004094.599 6  23529718.815        3312.610
   8053219.945 6  -2082745.341 5  23792235.460        3725.402
 -15727000.909 8 -12101208.488 9  21382869.906        -979.685
  -6091110.595 6  -4769007.569 5  24185612.368       -1440.487
 -11223951.168 8 -13680805.629 9  21223765.103       -1071.381
 93  5  6  4 36 30.0010000  0  7 23 26 16 20 17 22  3                0.001351140
  -7858714.352 6  -6130683.714 6  22999544.189       -2721.418
  -9508338.581 6  -7418128.971 5  23169829.932       -1555.333
  -2566456.621 6  -2926565.072 6  23548652.689        3320.108
   8165030.670 6  -1995620.138 5  23813512.536        3728.479
 -15756260.754 8 -12124008.340 9  21377302.251        -971.322
  -6134093.281 6  -4802500.525 5  24177432.627       -1425.356
 -11255951.345 8 -13705740.819 9  21217675.568       -1062.413
 93  5  6  4 37  0.0010000  0  7 23 26 16 20 17 22  3                0.001355720
  -7940238.217 6  -6194208.730 6  22984030.707       -2713.422
  -9554801.303 6  -7454333.643 5  23160988.181       -1541.988
  -2466738.874 6  -2848862.921 6  23567628.401        3327.702
   8276932.002 6  -1908424.330 5  23834806.645        3731.684
 -15785276.856 8 -12146618.251 9  21371780.644        -963.154
  -6176616.438 6  -4835635.423 5  24169340.813       -1409.287
 -11287681.648 8 -13730465.718 9  21211637.469       -1053.086
 93  5  6  4 37 30.0010000  0  7 23 26 16 20 17 22  3                0.001360320
  -8021518.730 6  -6257544.120 6  22968563.216       -2704.666
  -9600867.419 6  -7490229.286 5  23152222.010       -1529.030
  -2366806.936 6  -2770993.887 6  23586644.517        3334.728
   8388925.577 6  -1821156.609 5  23856119.012        3734.804
 -15814063.878 8 -12169049.666 9  21366302.496        -955.816
  -6218657.317 6  -4868394.503 5  24161341.240       -1393.210
 -11319136.064 8 -13754975.632 9  21205651.883       -1043.861
 93  5  6  4 38  0.0010000  0  7 23 26 16 20 17 22  3                0.001364920
  -8102511.736 6  -6320655.497 6  22953150.547       -2695.096
  -9646542.510 6  -7525820.225 5  23143529.979       -1516.001
  -2266655.814 6  -2692954.061 6  23605702.702        3341.847
   8501013.175 6  -1733815.709 5  23877448.276        3737.546
 -15842631.593 8 -12191310.196 9  21360866.082        -948.847
  -6260214.651 6  -4900776.796 5  24153432.737       -1377.594
 -11350307.362 8 -13779264.942 9  21199720.190       -1034.640
 93  5  6  4 38 30.0010000  0  7 23 26 16 20 17 22  3                0.001369520
  -8183222.918 6  -6383547.257 6  22937791.676       -2685.536
  -9691818.488 6  -7561100.158 5  23134914.264       -1502.234
  -2166305.422 6  -2614758.970 6  23624798.504        3348.261
   8613179.585 6  -1646413.313 5  23898792.338        3740.440
 -15870996.586 8 -12213412.763 9  21355468.408        -941.930
  -6301311.261 6  -4932800.075 5  24145611.865       -1361.983
 -11381205.618 8 -13803341.490 9  21193840.138       -1025.234
 93  5  6  4 39  0.0010000  0  7 23 26 16 20 17 22  3                0.001374110
  -8263652.305 6  -6446219.459 6  22922486.516       -2675.764
  -9736694.768 6  -7596068.651 5  23126374.534       -1489.258
  -2065779.368 6  -2536426.975 6  23643927.761        3353.900
   8725425.739 6  -1558948.836 5  23920152.566        3743.078
 -15899162.464 8 -12235360.152 9  21350108.398        -935.367
  -6341946.582 6  -4964463.879 5  24137879.406       -1346.487
 -11411825.205 8 -13827200.888 9  21188013.565       -1015.844
 93  5  6  4 39 30.0010000  0  7 23 26 16 20 17 22  3                0.001378690
  -8343774.645 6  -6508652.373 6  22907239.530       -2665.492
  -9781193.347 6  -7630742.817 5  23117906.986       -1477.170
  -1965083.335 6  -2457962.550 6  23663089.565        3359.431
   8837752.694 6  -1471421.362 5  23941527.309        3745.530
 -15927125.898 8 -12257149.818 9  21344787.144        -928.676
  -6382116.036 6  -4995764.690 5  24130235.506       -1331.213
 -11442159.527 8 -13850838.007 9  21182241.329       -1006.469
 93  5  6  4 40  0.0010000  0  7 23 26 16 20 17 22  3                0.001383250
  -8423588.127 6  -6570844.645 6  22892050.965       -2655.838
  -9825317.237 6  -7665125.026 5  23109510.480       -1464.546
  -1864215.823 6  -2379364.475 6  23682284.087        3364.857
   8950159.443 6  -1383831.729 5  23962916.790        3747.982
 -15954879.562 8 -12278775.996 9  21339505.735        -921.631
  -6421819.622 6  -5026702.471 5  24122680.351       -1315.755
 -11472204.945 8 -13874250.000 9  21176524.038        -996.948
 93  5  6  4 40 30.0010000  0  7 23 26 16 20 17 22  3                0.001387790
  -8503116.015 6  -6632814.380 6  22876917.767       -2645.962
  -9869052.535 6  -7699204.436 5  23101187.539       -1451.258
  -1763186.741 6  -2300640.527 6  23701509.169        3370.512
   9062637.894 5  -1296186.200 5  23984321.280        3750.477
 -15982419.016 8 -12300235.306 9  21334265.237        -914.435
  -6461049.026 6  -5057270.795 5  24115214.865       -1299.526
 -11501963.732 8 -13897438.656 9  21170861.067        -987.229
 93  5  6  4 41  0.0010000  0  7 23 26 16 20 17 22  3                0.001392340
  -8582336.600 6  -6694544.650 6  22861842.406       -2635.530
  -9912392.759 6  -7732975.992 5  23092940.132       -1438.128
  -1661973.215 6  -2221772.854 6  23720769.616        3377.020
   9175192.648 6  -1208481.266 5  24005740.151        3753.049
 -16009738.224 8 -12321522.972 9  21329066.264        -906.869
  -6499785.157 6  -5087454.708 5  24107843.636       -1282.898
 -11531426.664 8 -13920396.773 9  21165254.480        -977.294
 93  5  6  4 41 30.0010000  0  7 23 26 16 20 17 22  3                0.001396900
  -8661256.257 6  -6756040.416 6  22846824.373       -2625.801
  -9955333.935 6  -7766436.599 5  23084768.698       -1424.439
  -1560558.895 6  -2142748.718 5  23740068.441        3383.822
   9287818.726 6  -1120720.722 5  24027173.043        3755.428
 -16036819.961 8 -12342625.591 9  21323912.832        -898.623
  -6538017.757 6  -5117246.295 5  24100568.124       -1265.952
 -11560593.383 8 -13943124.072 9  21159703.984        -967.386
 93  5  6  4 42  0.0010000  0  7 23 26 16 20 17 22  3                0.001401460
  -8739893.554 6  -6817316.186 6  22831860.501       -2616.946
  -9997861.096 6  -7799574.612 5  23076675.799       -1410.756
  -1458947.556 6  -2063571.044 5  23759404.994        3390.127
   9400509.159 5  -1032910.007 5  24048617.689        3757.264
 -16063657.322 8 -12363537.790 9  21318805.928        -890.506
  -6575749.287 6  -5146647.412 5  24093388.137       -1249.653
 -11589465.861 8 -13965622.091 9  21154209.595        -957.796
 93  5  6  4 42 30.0010000  0  7 23 26 16 20 17 22  3                0.001406010
  -8818266.235 6  -6878385.735 6  22816946.677       -2607.740
 -10039972.220 6  -7832388.442 5  23068662.424       -1396.607
  -1357145.960 6  -1984245.118 5  23778777.114        3396.737
   9513255.640 6   -945055.676 5  24070072.055        3759.318
 -16090246.696 8 -12384256.760 9  21313745.942        -882.123
  -6612990.443 6  -5175666.454 5  24086301.419       -1233.100
 -11618047.694 8 -13987893.631 9  21148770.830        -947.806
 93  5  6  4 43  0.0010000  0  7 23 26 16 20 17 22  3                0.001410570
  -8896361.970 6  -6939239.526 6  22802085.397       -2598.792
 -10081660.598 6  -7864872.878 5  23060729.229       -1382.598
  -1255142.892 6  -1904762.232 5  23798187.348        3403.271
   9626069.393 6   -857148.897 5  24091540.164        3761.454
 -16116580.471 8 -12404776.560 9  21308735.000        -873.651
  -6649733.502 6  -5204297.315 5  24079309.431       -1216.511
 -11646322.266 8 -14009925.750 9  21143390.376        -937.573
 93  5  6  4 43 30.0010000  0  7 23 26 16 20 17 22  3                0.001415130
  -8974189.627 6  -6999884.405 6  22787275.207       -2589.566
 -10122918.523 6  -7897021.851 5  23052877.955       -1368.036
  -1152944.954 6  -1825127.471 6  23817635.047        3409.788
   9738947.137 5   -769192.260 5  24113019.792        3763.623
 -16142662.039 8 -12425099.834 9  21303771.866        -865.379
  -6685984.719 6  -5232544.978 5  24072411.181       -1200.352
 -11674287.662 8 -14031716.957 9  21138068.410        -927.117
 93  5  6  4 44  0.0010000  0  7 23 26 16 20 17 22  3                0.001419680
  -9051735.608 6  -7060309.794 6  22772518.646       -2580.289
 -10163746.111 6  -7928835.518 5  23045108.774       -1353.962
  -1050558.643 6  -1745345.959 6  23837118.164        3415.963
   9851886.561 5   -681187.551 5  24134511.282        3765.582
 -16168510.263 8 -12445241.294 9  21298853.010        -857.787
  -6721764.407 6  -5260425.209 5  24065602.878       -1184.947
 -11701940.945 8 -14053264.947 9  21132806.351        -916.713
 93  5  6  4 44 30.0010000  0  7 23 26 16 20 17 22  3                0.001424220
  -9128995.171 6  -7120511.987 6  22757816.384       -2570.368
 -10204154.696 6  -7960322.677 6  23037419.215       -1340.132
   -947990.549 6  -1665422.760 6  23856636.963        3421.748
   9964883.928 6   -593137.712 5  24156014.064        3767.387
 -16194128.852 8 -12465203.790 9  21293977.916        -850.237
  -6757077.720 6  -5287942.015 5  24058883.093       -1169.364
 -11729280.764 8 -14074568.682 9  21127603.953        -906.244
 93  5  6  4 45  0.0010000  0  7 23 26 16 20 17 22  3                0.001428740
  -9205954.307 6  -7180480.116 6  22743171.747       -2560.092
 -10244154.544 6  -7991491.383 5  23029807.635       -1326.423
   -845258.980 6  -1585372.181 6  23876186.090        3427.029
  10077930.971 6   -505049.134 5  24177526.864        3769.061
 -16219520.324 8 -12484989.352 9  21289146.311        -842.405
  -6791927.673 6  -5315097.800 5  24052251.101       -1153.810
 -11756310.387 8 -14095630.713 9  21122460.174        -895.860
 93  5  6  4 45 30.0010000  0  7 23 26 16 20 17 22  3                0.001433240
  -9282598.220 6  -7240202.590 6  22728586.874       -2549.680
 -10283737.054 6  -8022334.829 6  23022275.147       -1312.714
   -742368.753 6  -1505198.013 5  23895765.473        3432.125
  10191027.817 6   -416921.773 5  24199048.246        3770.590
 -16244668.261 8 -12504585.113 9  21284360.794        -834.276
  -6826312.162 6  -5341890.864 5  24045707.215       -1138.524
 -11783024.487 8 -14116446.873 9  21117376.694        -885.431
 93  5  6  4 46  0.0010000  0  7 23 26 16 20 17 22  3                0.001437710
  -9358935.715 6  -7299686.304 6  22714060.233       -2539.589
 -10322913.595 6  -8052861.974 6  23014820.163       -1298.838
   -639334.368 6  -1424911.470 5  23915371.901        3436.756
  10304167.650 5   -328760.919 5  24220578.137        3772.026
 -16269571.399 8 -12523990.133 9  21279621.936        -825.869
  -6860225.958 6  -5368317.208 5  24039253.893       -1122.228
 -11809425.281 8 -14137018.903 9  21112352.742        -874.817
 93  5  6  4 46 30.0010000  0  7 23 26 16 20 17 22  3                0.001442170
  -9434969.247 6  -7358933.162 6  22699591.502       -2529.298
 -10361662.790 6  -8083056.122 6  23007446.078       -1284.340
   -536163.904 6  -1344518.918 5  23935003.831        3441.380
  10417352.046 5   -240565.313 5  24242116.053        3773.558
 -16294222.474 8 -12543198.732 9  21274930.863        -817.669
  -6893639.372 6  -5394353.588 5  24032895.163       -1105.281
 -11835505.237 8 -14157340.929 9  21107389.728        -864.104
 93  5  6  4 47  0.0010000  0  7 23 26 16 20 17 22  3                0.001446610
  -9510700.280 6  -7417944.319 6  22685180.208       -2519.375
 -10399969.990 6  -8112905.854 6  23000156.371       -1269.567
   -432857.441 6  -1264020.399 5  23954662.443        3445.791
  10530572.639 6   -152341.544 5  24263661.157        3774.372
 -16318640.851 8 -12562226.023 9  21270284.298        -810.291
  -6926544.952 6  -5419994.291 5  24026633.027       -1088.426
 -11861268.508 8 -14177416.209 9  21102487.091        -853.734
 93  5  6  4 47 30.0010000  0  7 23 26 16 20 17 22  3                0.001451070
  -9586126.177 6  -7476717.689 6  22670827.223       -2509.202
 -10437832.739 6  -8142409.259 6  22992951.299       -1254.900
   -329404.524 6  -1183407.736 5  23974349.154        3450.800
  10643826.194 6    -64092.064 5  24285212.918        3775.519
 -16342834.435 8 -12581078.131 9  21265680.445        -802.890
  -6958931.810 6  -5445230.818 5  24020470.257       -1070.678
 -11886712.804 8 -14197242.897 9  21097645.174        -843.015
 93  5  6  4 48  0.0010000  0  7 23 26 16 20 17 22  3                0.001455530
  -9661248.152 7  -7535254.247 6  22656532.080       -2499.076
 -10475254.434 6  -8171568.998 6  22985830.691       -1239.993
   -225801.901 6  -1102678.425 5  23994063.773        3455.761
  10757107.241 6     24178.838 5  24306769.575        3776.265
 -16366813.609 8 -12599763.176 9  21261116.994        -796.100
  -6990783.660 6  -5470050.459 5  24014408.938       -1053.064
 -11911838.660 8 -14216821.478 9  21092864.044        -832.510
 93  5  6  4 48 30.0010000  0  7 23 26 16 20 17 22  3                0.001460010
  -9736047.805 7  -7593539.671 6  22642298.302       -2487.630
 -10512222.311 6  -8200375.092 6  22978795.969       -1224.813
   -122041.277 6  -1021826.023 5  24013809.285        3461.619
  10870416.397 5    112471.632 5  24328332.073        3777.522
 -16390579.840 8 -12618282.305 9  21256594.607        -788.480
  -7022101.563 6  -5494454.012 5  24008449.417       -1034.951
 -11936640.404 8 -14236147.508 9  21088144.441        -821.231
 93  5  6  4 49  0.0010000  0  7 23 26 16 20 17 22  3                0.001464510
  -9810507.029 7  -7651559.769 6  22628129.152       -2476.412
 -10548746.843 6  -8228835.712 6  22971845.653       -1210.317
    -18106.560 6   -940837.943 5  24033587.971        3467.205
  10983759.657 6    200790.984 5  24349901.486        3778.515
 -16414119.704 8 -12636625.021 9  21252115.406        -780.951
  -7052883.792 6  -5518440.189 5  24002592.013       -1017.311
 -11961107.148 8 -14255212.501 9  21083488.184        -810.177
 93  5  6  4 49 30.0010000  0  7 23 26 16 20 17 22  3                0.001469010
  -9884640.073 7  -7709325.742 7  22614022.029       -2465.760
 -10584845.832 6  -8256964.753 6  22964976.137       -1196.055
     85988.793 6   -859724.691 6  24053397.072        3472.596
  11097126.354 6    289128.651 5  24371474.150        3779.428
 -16437437.797 8 -12654794.951 9  21247677.500        -773.648
  -7083148.596 6  -5542023.185 5  23996833.198       -1000.257
 -11985244.069 8 -14274020.470 9  21078895.585        -799.023
 93  5  6  4 50  0.0010000  0  7 23 26 16 20 17 22  3                0.001473510
  -9958457.202 7  -7766845.524 7  22599975.066       -2455.521
 -10620509.458 6  -8284754.569 6  22958189.127       -1181.492
    190245.596 6   -778485.634 6  24073236.777        3477.747
  11210519.633 5    377487.020 5  24393051.416        3780.075
 -16460545.405 8 -12672800.849 9  21243280.782        -766.953
  -7112911.969 6  -5565215.429 5  23991169.777        -984.322
 -12009043.295 8 -14292565.297 9  21074366.260        -787.881
 93  5  6  4 50 30.0010000  0  7 23 26 16 20 17 22  3                0.001478000
 -10031965.870 7  -7824124.971 7  22585986.879       -2445.292
 -10655732.713 6  -8312201.213 6  22951486.637       -1166.899
    294656.292 6   -697126.669 6  24093104.821        3482.780
  11323936.584 5    465863.777 5  24414633.800        3780.842
 -16483446.215 8 -12690645.608 9  21238922.579        -759.894
  -7142201.796 6  -5588038.738 5  23985595.878        -968.506
 -12032502.635 8 -14310845.308 9  21069902.440        -776.469
 93  5  6  4 51  0.0010000  0  7 23 26 16 20 17 22  3                0.001482490
 -10105179.464 7  -7881174.475 7  22572054.811       -2435.610
 -10690510.633 6  -8339300.845 6  22944868.596       -1151.546
    399214.481 6   -615652.797 5  24113001.108        3487.761
  11437370.434 5    554253.764 5  24436219.212        3781.484
 -16506142.215 8 -12708330.804 9  21234603.279        -753.076
  -7171021.802 6  -5610495.876 5  23980111.148        -952.875
 -12055623.932 8 -14328861.883 9  21065502.697        -765.216
 93  5  6  4 51 30.0010000  0  7 23 26 16 20 17 22  3                0.001486960
 -10178101.643 7  -7937996.907 7  22558177.976       -2425.854
 -10724820.436 6  -8366035.726 6  22938339.378       -1135.669
    503932.012 6   -534054.712 5  24132927.789        3493.296
  11550820.877 5    642656.685 5  24457808.185        3781.898
 -16528622.553 8 -12725847.931 9  21230325.981        -745.591
  -7199370.450 6  -5632585.740 5  23974716.428        -936.982
 -12078402.181 8 -14346611.164 9  21061167.547        -753.621
 93  5  6  4 52  0.0010000  0  7 23 26 16 20 17 22  3                0.001491440
 -10250723.541 7  -7994585.339 7  22544358.715       -2415.433
 -10758646.330 6  -8392393.521 6  22931902.704       -1119.317
    608805.806 6   -452334.867 5  24152884.747        3498.288
  11664283.861 5    731069.391 5  24479399.808        3782.193
 -16550872.168 8 -12743185.250 9  21226092.252        -737.381
  -7227242.756 6  -5654304.401 5  23969412.682        -921.092
 -12100836.822 8 -14364092.679 9  21056898.212        -742.187
 93  5  6  4 52 30.0010000  0  7 23 26 16 20 17 22  3                0.001495900
 -10323019.789 6  -8050920.030 7  22530601.011       -2404.222
 -10791978.366 6  -8418366.525 6  22925559.995       -1102.767
    713828.486 6   -370499.032 5  24172870.038        3503.307
  11777757.639 5    819490.432 5  24500992.553        3782.734
 -16572857.895 8 -12760316.964 9  21221908.568        -728.223
  -7254622.361 6  -5675639.175 5  23964202.944        -904.087
 -12122924.223 8 -14381303.643 9  21052695.073        -730.416
 93  5  6  4 53  0.0010000  0  7 23 26 16 20 17 22  3                0.001500360
 -10394985.918 7  -8106997.493 7  22516905.731       -2393.250
 -10824820.309 6  -8443957.607 6  22919310.271       -1086.702
    818997.389 6   -288549.251 5  24192883.385        3507.873
  11891236.260 5    907915.306 5  24522586.955        3782.658
 -16594574.575 8 -12777239.021 9  21217776.145        -719.381
  -7281496.722 6  -5696580.248 5  23959089.010        -887.378
 -12144665.190 8 -14398244.664 9  21048558.024        -719.101
 93  5  6  4 53 30.0010000  0  7 23 26 16 20 17 22  3                0.001504810
 -10466604.324 7  -8162803.985 7  22503277.336       -2381.239
 -10857186.620 6  -8469178.059 6  22913151.186       -1070.915
    924305.038 6   -206491.340 5  24212922.521        3512.334
  12004719.066 5    996343.402 5  24544182.944        3782.924
 -16616014.300 8 -12793945.325 9  21213696.343        -709.986
  -7307857.336 6  -5717120.963 5  23954072.580        -869.858
 -12166055.534 8 -14414912.433 9  21044487.627        -707.141
 93  5  6  4 54  0.0010000  0  7 23 26 16 20 17 22  3                0.001509250
 -10537861.868 7  -8218329.303 7  22489717.633       -2368.987
 -10889087.712 6  -8494036.016 6  22907080.419       -1055.609
   1029718.471 6   -124350.989 5  24232981.586        3515.716
  12118201.988 5   1084771.630 5  24565778.013        3782.943
 -16637189.992 8 -12810445.825 9  21209667.093        -701.406
  -7333694.862 6  -5737254.105 5  23949156.094        -852.287
 -12187094.396 8 -14431306.336 9  21040484.077        -695.329
 93  5  6  4 54 30.0010000  0  7 23 26 16 20 17 22  3                0.001513680
 -10608759.086 7  -8273573.859 7  22476226.095       -2357.522
 -10920533.755 6  -8518539.374 6  22901096.719       -1040.687
   1135243.829 6    -42123.466 5  24253062.082        3519.521
  12231689.247 5   1173203.279 5  24587373.051        3783.006
 -16658113.934 8 -12826750.177 9  21205685.360        -693.544
  -7358997.815 6  -5756970.688 5  23944341.536        -834.410
 -12207772.406 8 -14447419.064 9  21036548.970        -683.275
 93  5  6  4 55  0.0010000  0  7 23 26 16 20 17 22  3                0.001518100
 -10679322.090 7  -8328557.973 7  22462798.386       -2346.670
 -10951535.935 6  -8542696.879 6  22895196.967       -1026.054
   1240884.405 6     40193.846 5  24273164.468        3523.151
  12345171.439 5   1261630.871 5  24608967.881        3782.551
 -16678812.974 8 -12842879.293 9  21201746.166        -686.399
  -7383767.207 6  -5776271.507 5  23939626.861        -816.759
 -12228094.359 8 -14463254.338 9  21032681.907        -671.676
 93  5  6  4 55 30.0010000  0  7 23 26 16 20 17 22  3                0.001522530
 -10749559.967 7  -8383288.736 7  22449432.661       -2336.182
 -10982090.027 6  -8566505.204 6  22889382.731       -1010.887
   1346635.566 5    122597.357 5  24293287.977        3526.686
  12458640.404 5   1350048.232 5  24630560.787        3781.887
 -16699300.187 8 -12858843.320 9  21197846.817        -679.607
  -7408009.425 6  -5795161.518 5  23935013.885        -799.507
 -12248063.072 8 -14478814.359 9  21028882.507        -659.996
 93  5  6  4 56  0.0010000  0  7 23 26 16 20 17 22  3                0.001526970
 -10819486.332 7  -8437776.788 7  22436126.087       -2325.903
 -11012173.395 6  -8589946.772 6  22883657.874        -994.937
   1452506.080 5    205093.805 5  24313435.036        3531.391
  12572096.625 5   1438455.637 5  24652150.709        3781.607
 -16719582.433 8 -12874647.671 9  21193987.556        -672.756
  -7431730.930 6  -5813645.794 5  23930500.546        -782.180
 -12267673.185 8 -14494094.980 9  21025150.512        -647.813
 93  5  6  4 56 30.0010000  0  7 23 26 16 20 17 22  3                0.001531410
 -10889118.160 7  -8492035.305 7  22422875.479       -2316.194
 -11041781.315 6  -8613017.826 6  22878023.402        -978.893
   1558524.123 5    287705.260 5  24333610.321        3536.157
  12685536.191 5   1526850.081 5  24673737.659        3780.875
 -16739657.369 8 -12890290.443 9  21190166.823        -665.689
  -7454946.339 6  -5831735.681 5  23926083.024        -765.665
 -12286923.820 8 -14509095.460 9  21021487.646        -635.900
 93  5  6  4 57  0.0010000  0  7 23 26 16 20 17 22  3                0.001535860
 -10958445.858 7  -8546056.874 7  22409682.729       -2305.688
 -11070896.951 6  -8635705.294 6  22872482.781        -962.326
   1664681.085 6    370424.976 5  24353811.539        3540.736
  12798958.272 5   1615230.877 5  24695320.625        3780.431
 -16759508.125 8 -12905758.552 9  21186389.868        -657.880
  -7477665.345 6  -5849438.789 5  23921759.701        -749.105
 -12305810.779 8 -14523812.562 9  21017893.376        -623.576
 93  5  6  4 57 30.0010000  0  7 23 26 16 20 17 22  3                0.001540290
 -11027458.884 7  -8599833.216 7  22396549.719       -2295.158
 -11099525.841 6  -8658013.469 6  22867035.153        -946.414
   1770964.901 6    453243.500 5  24374036.958        3544.674
  12912361.008 5   1703596.580 5  24716900.223        3779.693
 -16779130.222 8 -12921048.475 9  21182655.720        -650.400
  -7499894.459 6  -5866760.150 5  23917529.521        -732.857
 -12324330.898 8 -14538243.813 9  21014369.376        -611.369
 93  5  6  4 58  0.0010000  0  7 23 26 16 20 17 22  3                0.001544730
 -11096147.861 7  -8653357.064 7  22383478.930       -2284.157
 -11127680.945 6  -8679952.484 6  22861677.657        -930.926
   1877367.433 6    536154.576 5  24394284.983        3548.592
  13025742.234 5   1791945.529 5  24738476.358        3778.917
 -16798529.352 8 -12936164.667 9  21178963.848        -642.997
  -7521629.717 6  -5883696.676 5  23913392.905        -716.256
 -12342481.549 8 -14552387.193 9  21010915.505        -599.045
 93  5  6  4 58 30.0010000  0  7 23 26 16 20 17 22  3                0.001549150
 -11164499.354 7  -8706617.930 7  22370472.075       -2272.556
 -11155375.433 6  -8701532.558 6  22856407.607        -915.397
   1983873.458 6    619146.300 5  24414552.849        3551.518
  13139094.586 5   1880271.988 5  24760046.946        3777.932
 -16817704.239 8 -12951106.113 9  21175315.224        -635.464
  -7542863.606 6  -5900242.513 5  23909351.757        -699.245
 -12360264.988 8 -14566244.398 9  21007531.518        -586.785
 93  5  6  4 59  0.0010000  0  7 23 26 16 20 17 22  3                0.001553550
 -11232496.649 7  -8759602.799 7  22357532.713       -2260.678
 -11182606.204 6  -8722751.321 6  22851225.737        -900.043
   2090463.181 6    702203.211 5  24434836.087        3554.508
  13252417.237 5   1968575.305 5  24781610.768        3776.822
 -16836659.389 8 -12965876.361 9  21171708.222        -628.290
  -7563573.833 6  -5916380.370 5  23905410.290        -681.353
 -12377677.096 8 -14579812.286 9  21004218.142        -574.332
 93  5  6  4 59 30.0010000  0  7 23 26 16 20 17 22  3                0.001557970
 -11300130.750 7  -8812304.691 7  22344662.421       -2248.210
 -11209371.188 6  -8743607.101 6  22846132.333        -884.123
   2197146.350 6    785332.912 5  24455136.930        3557.654
  13365708.449 5   2056854.128 5  24803169.743        3775.957
 -16855400.834 8 -12980480.068 9  21168141.840        -621.086
  -7583735.910 6  -5932091.025 5  23901573.312        -662.720
 -12394714.802 8 -14593088.417 9  21000975.858        -561.675
 93  5  6  5  0  0.0010000  0  7 23 26 16 20 17 22  3                0.001562390
 -11367388.769 7  -8864713.483 7  22331863.583       -2235.827
 -11235643.659 6  -8764079.130 6  22841132.824        -867.452
   2303924.836 6    868536.913 5  24475456.029        3560.937
  13478970.838 5   2145110.488 5  24824723.325        3774.831
 -16873916.496 8 -12994907.849 9  21164618.448        -613.203
  -7603335.559 6  -5947363.451 5  23897844.537        -644.077
 -12411370.414 8 -14606066.810 9  20997806.423        -549.015
 93  5  6  5  0 30.0010000  0  7 23 26 16 20 17 22  3                0.001566810
 -11434282.541 7  -8916838.461 7  22319133.773       -2224.157
 -11261412.910 6  -8784159.025 6  22836229.020        -850.747
   2410795.959 6    951813.107 5  24495793.154        3563.684
  13592195.555 5   2233337.524 5  24846269.646        3773.248
 -16892188.368 8 -13009145.649 9  21161141.486        -605.120
  -7622382.075 6  -5962204.859 5  23894221.340        -626.033
 -12427648.421 8 -14618750.973 9  20994708.746        -536.633
 93  5  6  5  1  0.0010000  0  7 23 26 16 20 17 22  3                0.001571230
 -11500835.046 7  -8968697.497 7  22306469.254       -2212.529
 -11286678.558 7  -8803846.511 6  22831421.347        -833.387
   2517763.400 6   1035164.345 5  24516148.243        3567.606
  13705375.933 5   2321529.945 5  24867807.016        3772.318
 -16910208.387 8 -13023187.199 9  21157712.062        -595.989
  -7640885.934 6  -5976623.409 5  23890700.031        -607.543
 -12443550.428 8 -14631142.132 9  20991682.799        -523.529
 93  5  6  5  1 30.0010000  0  7 23 26 16 20 17 22  3                0.001575640
 -11567051.962 7  -9020295.048 7  22293868.716       -2201.864
 -11311428.882 6  -8823132.444 6  22826711.538        -816.576
   2624831.691 6   1118594.199 5  24536522.209        3570.296
  13818515.982 5   2409690.986 5  24889336.649        3770.451
 -16927960.029 8 -13037019.635 9  21154334.170        -587.505
  -7658858.522 6  -5990627.995 5  23887280.847        -590.560
 -12459067.697 8 -14643233.507 9  20988729.705        -511.075
 93  5  6  5  2  0.0010000  0  7 23 26 16 20 17 22  3                0.001580050
 -11632942.964 7  -9071638.645 7  22281330.017       -2191.030
 -11335668.300 6  -8842020.290 6  22822098.720        -799.584
   2731993.445 6   1202096.815 5  24556914.373        3573.766
  13931613.903 5   2497819.216 5  24910858.714        3769.336
 -16945447.058 8 -13050645.882 9  21151006.353        -578.471
  -7676320.123 6  -6004234.388 5  23883958.351        -573.586
 -12474197.353 8 -14655022.850 9  20985850.748        -497.868
 93  5  6  5  2 30.0010000  0  7 23 26 16 20 17 22  3                0.001584450
 -11698525.390 7  -9122741.795 7  22268849.716       -2181.005
 -11359414.525 6  -8860523.796 6  22817580.218        -783.621
   2839248.845 6   1285672.424 5  24577324.468        3576.656
  14044664.015 5   2585910.144 5  24932370.658        3767.448
 -16962690.440 8 -13064082.273 9  21147725.076        -571.156
  -7693281.828 6  -6017451.293 5  23880730.675        -557.060
 -12488939.962 8 -14666510.595 9  20983045.170        -485.151
 93  5  6  5  3  0.0010000  0  7 23 26 16 20 17 22  3                0.001588850
 -11763792.238 7  -9173599.045 7  22256429.713       -2170.203
 -11382671.783 6  -8878646.299 6  22813154.480        -767.204
   2946597.665 6   1369320.843 5  24597752.119        3579.521
  14157665.724 5   2673963.444 5  24953875.786        3765.606
 -16979716.128 8 -13077349.035 9  21144484.968        -564.471
  -7709733.067 6  -6030270.396 5  23877599.953        -540.025
 -12503291.152 8 -14677693.318 9  20980314.311        -472.204
 93  5  6  5  3 30.0010000  0  7 23 26 16 20 17 22  3                0.001593240
 -11828720.273 7  -9224192.277 7  22244074.399       -2158.364
 -11405437.107 6  -8896385.511 6  22808822.171        -750.656
   3054027.501 6   1453032.380 5  24618195.198        3582.495
  14270612.728 5   2761974.018 5  24975368.184        3763.999
 -16996547.550 8 -13090464.407 9  21141282.116        -557.771
  -7725671.612 6  -6042690.012 5  23874566.064        -522.439
 -12517252.398 8 -14688572.214 9  20977657.631        -458.901
 93  5  6  5  4  0.0010000  0  7 23 26 16 20 17 22  3                0.001597630
 -11893300.717 7  -9274514.691 7  22231785.045       -2146.828
 -11427714.244 6  -8913744.302 6  22804582.895        -734.313
   3161539.088 6   1536807.645 5  24638654.115        3585.083
  14383502.826 5   2849940.282 5  24996849.306        3762.175
 -17013178.919 8 -13103423.911 9  21138117.105        -550.723
  -7741083.266 6  -6054699.047 5  23871633.511        -504.854
 -12530820.794 8 -14699144.975 9  20975075.629        -445.756
 93  5  6  5  4 30.0010000  0  7 23 26 16 20 17 22  3                0.001602020
 -11957534.893 7  -9324567.258 7  22219561.996       -2135.098
 -11449495.159 6  -8930716.407 6  22800438.184        -717.504
   3269134.538 5   1620648.229 5  24659128.489        3588.071
  14496332.663 5   2937859.647 5  25018320.446        3760.015
 -17029594.282 8 -13116215.091 9  21134993.507        -543.275
  -7755962.406 6  -6066293.177 5  23868801.584        -486.780
 -12543995.432 8 -14709410.910 9  20972568.624        -432.531
 93  5  6  5  5  0.0010000  0  7 23 26 16 20 17 22  3                0.001606420
 -12021400.830 7  -9374332.897 7  22207409.108       -2122.929
 -11470764.527 6  -8947289.927 6  22796390.852        -700.513
   3376817.947 5   1704557.325 5  24679620.654        3590.530
  14609107.011 5   3025735.729 5  25039781.248        3757.939
 -17045768.591 8 -13128818.442 9  21131915.668        -535.330
  -7770299.861 6  -6077465.177 5  23866071.994        -469.317
 -12556766.809 8 -14719362.623 9  20970138.305        -419.335
 93  5  6  5  5 30.0010000  0  7 23 26 16 20 17 22  3                0.001610800
 -12084911.526 7  -9423821.729 7  22195323.530       -2111.441
 -11491533.910 6  -8963473.857 6  22792438.172        -684.141
   3484570.192 5   1788520.111 5  24700125.859        3592.866
  14721808.782 5   3113555.271 5  25061227.923        3755.321
 -17061712.569 8 -13141242.319 9  21128881.809        -527.645
  -7784122.725 6  -6088236.229 5  23863441.823        -452.340
 -12569147.337 8 -14729009.791 9  20967782.555        -406.385
 93  5  6  5  6  0.0010000  0  7 23 26 16 20 17 22  3                0.001615180
 -12148074.719 7  -9473039.762 7  22183303.828       -2099.650
 -11511797.140 6  -8979263.367 6  22788582.154        -666.994
   3592401.460 5   1872544.514 5  24720645.304        3595.611
  14834437.959 5   3201318.283 5  25082660.760        3753.021
 -17077421.549 8 -13153483.061 9  21125892.409        -520.014
  -7797439.755 6  -6098613.117 5  23860908.088        -435.878
 -12581131.866 8 -14738348.364 9  20965501.967        -393.093
 93  5  6  5  6 30.0010000  0  7 23 26 16 20 17 22  3                0.001619550
 -12210873.000 7  -9521973.459 7  22171353.711       -2087.123
 -11531544.870 6  -8994651.173 6  22784824.317        -649.827
   3700325.297 5   1956641.004 5  24741182.429        3598.919
  14946996.818 5   3289026.447 5  25104080.832        3750.733
 -17092913.001 8 -13165554.312 9  21122944.620        -513.072
  -7810256.434 6  -6108600.117 5  23858468.788        -418.813
 -12592713.360 8 -14747372.883 9  20963297.930        -379.519
 93  5  6  5  7  0.0010000  0  7 23 26 16 20 17 22  3                0.001623920
 -12273299.633 7  -9570617.546 7  22159474.335       -2074.656
 -11550783.033 6  -9009641.918 6  22781163.360        -632.678
   3808331.537 5   2040801.685 5  24761735.158        3601.450
  15059480.559 5   3376676.084 5  25125485.299        3748.249
 -17108206.458 8 -13177471.273 9  21120034.423        -506.473
  -7822570.238 6  -6118195.276 5  23856125.388        -402.117
 -12603892.208 8 -14756083.664 9  20961170.574        -365.998
 93  5  6  5  7 30.0010000  0  7 23 26 16 20 17 22  3                0.001628280
 -12335351.956 7  -9618969.978 7  22147666.131       -2062.205
 -11569508.044 6  -9024232.843 6  22777599.852        -615.634
   3916423.279 5   2125028.983 5  24782304.908        3604.674
  15171885.671 5   3464264.439 5  25146874.130        3745.531
 -17123296.744 8 -13189229.934 9  21117162.731        -499.260
  -7834376.627 6  -6127395.017 5  23853878.915        -384.912
 -12614667.219 8 -14764479.765 9  20959120.084        -352.574
 93  5  6  5  8  0.0010000  0  7 23 26 16 20 17 22  3                0.001632650
 -12397028.792 7  -9667029.816 7  22135929.255       -2049.552
 -11587718.772 6  -9038422.974 6  22774134.586        -598.545
   4024602.777 5   2209324.619 5  24802890.051        3607.337
  15284209.531 5   3551789.533 5  25168248.319        3742.789
 -17138155.927 8 -13200808.497 9  21114335.270        -491.384
  -7845661.662 6  -6136188.552 5  23851730.872        -367.365
 -12625036.410 8 -14772559.643 9  20957147.120        -338.945
 93  5  6  5  8 30.0010000  0  7 23 26 16 20 17 22  3                0.001637010
 -12458330.202 7  -9714797.095 7  22124263.811       -2037.257
 -11605421.922 6  -9052217.608 6  22770765.868        -581.502
   4132851.680 5   2293674.404 5  24823489.794        3609.408
  15396451.531 5   3639250.822 5  25189607.953        3740.086
 -17152768.970 8 -13212195.277 9  21111554.524        -482.558
  -7856404.764 6  -6144559.793 5  23849686.327        -348.800
 -12634995.467 8 -14780319.928 9  20955251.931        -325.114
 93  5  6  5  9  0.0010000  0  7 23 26 16 20 17 22  3                0.001641380
 -12519265.768 7  -9762279.329 7  22112668.190       -2025.188
 -11622606.617 7  -9065608.270 6  22767495.961        -564.198
   4241158.256 5   2378069.149 5  24844100.408        3611.135
  15508612.680 5   3726649.095 5  25210952.387        3737.199
 -17167099.791 8 -13223362.145 9  21108827.534        -472.960
  -7866599.029 6  -6152503.335 5  23847746.944        -330.852
 -12644538.736 8 -14787756.247 9  20953435.840        -311.434
 93  5  6  5  9 30.0010000  0  7 23 26 16 20 17 22  3                0.001645730
 -12579846.499 7  -9809485.046 7  22101140.219       -2013.475
 -11639277.334 6  -9078598.426 6  22764323.807        -547.114
   4349516.589 6   2462504.183 5  24864719.851        3612.596
  15620681.733 5   3813975.579 5  25232278.338        3734.125
 -17181149.760 8 -13234310.158 9  21106153.835        -463.781
  -7876257.783 6  -6160029.640 5  23845910.040        -313.031
 -12653673.069 8 -14794873.894 9  20951697.622        -297.723
 93  5  6  5 10  0.0010000  0  7 23 26 16 20 17 22  3                0.001650070
 -12640072.638 7  -9856414.475 7  22089679.503       -2001.649
 -11655424.589 7  -9091180.684 6  22761250.964        -529.506
   4457910.103 6   2546966.703 5  24885346.315        3613.525
  15732666.238 5   3901236.210 5  25253587.467        3731.584
 -17194930.120 8 -13245048.084 9  21103531.370        -455.224
  -7885379.845 6  -6167137.728 5  23844173.574        -295.202
 -12662386.400 8 -14801663.500 9  20950039.508        -283.452
 93  5  6  5 10 30.0010000  0  6 23 26 16 17 22  3                   0.001654490
 -12699957.669 7  -9903078.098 7  22078283.861       -1990.502
 -11671052.255 7  -9103358.060 6  22758277.062        -512.118
   4566324.850 6   2631445.759 5  24905976.502        3614.435
 -17208472.054 8 -13255600.219 9  21100954.433        -447.509
  -7893979.639 6  -6173838.849 5  23842536.488        -278.055
 -12670682.046 8 -14808127.629 9  20948460.973        -269.577
 93  5  6  5 11  0.0010000  0  6 23 26 16 17 22  3                   0.001658780
 -12759504.652 7  -9949478.304 7  22066952.488       -1979.047
 -11686159.387 6  -9115129.851 6  22755402.262        -494.884
   4674774.126 6   2715951.716 5  24926613.624        3615.686
 -17221800.180 8 -13265985.753 9  21098418.179        -441.032
  -7902079.033 6  -6180150.049 5  23840995.372        -261.692
 -12678561.630 8 -14814267.569 9  20946961.569        -255.764
 93  5  6  5 11 30.0010000  0  6 23 26 16 17 22  3                   0.001663070
 -12818701.989 7  -9995606.062 7  22055687.357       -1967.281
 -11700746.501 6  -9126496.406 6  22752626.334        -477.448
   4783258.240 5   2800484.784 5  24947257.365        3616.790
 -17234941.186 8 -13276225.470 9  21095917.708        -434.905
  -7909677.915 6  -6186071.263 5  23839549.850        -244.803
 -12686022.752 8 -14820081.428 9  20945541.814        -241.737
 93  5  6  5 12  0.0010000  0  7 23 26 16 21 17 22  3                0.001667250
 -12877542.299 7 -10041455.614 8  22044490.215       -1955.486
 -11714806.479 7  -9137452.235 6  22749950.758        -459.998
   4891785.294 5   2885051.302 5  24967908.788        3618.520
  -1005163.63715   -160748.75511  25066808.403       -3101.696
 -17247888.258 8 -13286314.086 9  21093454.064        -428.245
  -7916763.861 6  -6191592.704 5  23838201.527        -227.626
 -12693056.998 8 -14825562.643 9  20944203.042        -227.506
 93  5  6  5 12 30.0010000  0  7 23 26 16 21 17 22  3                0.001671530
 -12936023.956 7 -10087025.717 8  22033361.624       -1943.246
 -11728344.505 7  -9148001.318 6  22747374.798        -442.621
   5000373.683 6   2969665.607 5  24988572.808        3620.699
  -1098145.105 5   -233201.747 3  25049114.338       -3097.126
 -17260626.815 8 -13296240.227 9  21091029.903        -421.027
  -7923331.870 6  -6196710.702 5  23836951.710        -210.335
 -12699665.361 8 -14830712.033 9  20942945.541        -213.308
 93  5  6  5 13  0.0010000  0  7 23 26 16 21 17 22  3                0.001675830
 -12994125.996 7 -10132299.989 8  22022304.754       -1930.460
 -11741355.097 6  -9158139.427 6  22744898.556        -425.029
   5109033.352 6   3054335.501 5  25009249.996        3622.863
  -1190973.515 5   -305535.495 4  25031449.962       -3091.829
 -17273141.218 8 -13305991.693 9  21088648.722        -413.414
  -7929374.278 6  -6201419.055 5  23835801.757        -192.610
 -12705841.351 8 -14835524.483 9  20941770.154        -198.892
 93  5  6  5 13 30.0010000  0  7 23 26 16 21 17 22  3                0.001680140
 -13051856.571 7 -10177284.814 8  22011319.370       -1918.264
 -11753843.809 7  -9167870.863 6  22742521.790        -407.575
   5217747.707 6   3139047.952 5  25029938.065        3624.788
  -1283656.893 5   -377756.276 4  25013813.261       -3086.993
 -17285424.986 8 -13315563.458 9  21086311.091        -405.343
  -7934880.751 6  -6205709.827 5  23834752.957        -174.461
 -12711590.668 8 -14840004.468 9  20940676.212        -184.515
 93  5  6  5 14  0.0010000  0  7 23 26 16 21 17 22  3                0.001684450
 -13109220.253 7 -10221983.727 8  22000403.279       -1905.974
 -11765811.045 7  -9177195.943 6  22740244.635        -390.215
   5326524.265 6   3223808.922 5  25050637.292        3626.995
  -1376197.819 5   -449866.005 4  24996202.716       -3082.520
 -17297456.695 8 -13324938.806 9  21084021.566        -396.735
  -7939841.720 6  -6209575.499 5  23833808.728        -156.233
 -12716904.055 8 -14844144.784 9  20939665.222        -169.846
 93  5  6  5 14 30.0010000  0  7 23 26 16 21 17 22  3                0.001688760
 -13166219.099 7 -10266398.390 8  21989556.658       -1893.664
 -11777254.261 7  -9186112.759 6  22738066.575        -372.456
   5435356.169 5   3308612.991 5  25071347.405        3628.805
  -1468613.866 5   -521878.459 5  24978616.288       -3078.296
 -17309235.443 8 -13334117.036 9  21081780.188        -388.419
  -7944266.630 6  -6213023.485 5  23832966.679        -138.498
 -12721781.258 8 -14847945.204 9  20938737.105        -155.249
 93  5  6  5 15  0.0010000  0  7 23 26 16 21 17 22  3                0.001693060
 -13222856.332 7 -10310531.234 8  21978779.217       -1882.061
 -11788169.659 7  -9194618.221 6  22735989.790        -355.040
   5544231.099 5   3393450.587 5  25092065.026        3629.637
  -1560916.443 5   -593802.431 5  24961052.174       -3075.166
 -17320777.183 8 -13343110.591 9  21079583.846        -380.820
  -7948162.039 6  -6216058.852 5  23832226.005        -120.990
 -12726224.506 8 -14851407.466 9  20937891.570        -141.049
 93  5  6  5 15 30.0010000  0  7 23 26 16 21 17 22  3                0.001697350
 -13279138.820 7 -10354387.699 8  21968069.062       -1870.115
 -11798546.646 7  -9202704.182 6  22734015.221        -336.848
   5653143.281 5   3478317.177 5  25112790.292        3631.178
  -1653116.975 5   -665646.932 4  24943506.760       -3071.532
 -17332076.148 8 -13351914.978 9  21077433.677        -372.524
  -7951525.745 6  -6218679.912 5  23831585.527        -103.347
 -12730229.220 8 -14854528.036 9  20937129.386        -126.214
 93  5  6  5 16  0.0010000  0  7 23 26 16 21 17 22  3                0.001701630
 -13335058.761 7 -10397961.624 8  21957427.569       -1857.745
 -11808384.042 7  -9210369.661 6  22732143.426        -318.814
   5762095.122 5   3563214.732 5  25133523.032        3632.479
  -1745206.458 5   -737404.962 4  24925982.766       -3067.543
 -17343133.724 8 -13360531.252 9  21075329.473        -364.611
  -7954369.241 6  -6220895.624 5  23831044.880         -86.064
 -12733791.521 8 -14857303.856 9  20936451.476        -111.367
 93  5  6  5 16 30.0010000  0  7 23 26 16 21 17 22  3                0.001705910
 -13390609.713 7 -10441248.059 8  21946856.508       -1845.317
 -11817680.241 7  -9217613.447 6  22730374.591        -300.796
   5871078.726 5   3648136.998 5  25154261.755        3633.501
  -1837167.229 5   -809062.572 4  24908483.542       -3062.804
 -17353961.006 8 -13368968.079 9  21073269.070        -357.107
  -7956695.309 6  -6222708.149 5  23830601.876         -68.845
 -12736909.372 8 -14859733.363 9  20935858.325         -96.522
 93  5  6  5 17  0.0010000  0  7 23 26 16 21 17 22  3                0.001710180
 -13445784.561 7 -10484241.406 8  21936356.945       -1832.907
 -11826440.200 7  -9224439.361 6  22728707.495        -283.084
   5980088.094 5   3733079.292 5  25175006.230        3634.023
  -1928984.002 5   -880607.990 4  24891010.919       -3058.077
 -17364565.729 8 -13377231.496 9  21071251.086        -349.629
  -7958505.628 6  -6224118.800 5  23830257.765         -51.791
 -12739581.190 8 -14861815.295 9  20935349.729         -81.677
 93  5  6  5 17 30.0010000  0  7 23 26 16 21 17 22  3                0.001714450
 -13500590.517 7 -10526947.310 8  21925927.615       -1820.744
 -11834671.870 7  -9230853.633 6  22727140.986        -265.785
   6089118.755 5   3818038.254 5  25195754.882        3634.600
  -2020655.639 5   -952040.357 4  24873566.839       -3053.376
 -17374947.957 8 -13385321.521 9  21069275.295        -342.562
  -7959809.993 6  -6225135.177 5  23830009.339         -35.030
 -12741808.694 8 -14863551.013 9  20934925.972         -67.029
 93  5  6  5 18  0.0010000  0  7 23 26 16 21 17 22  3                0.001718720
 -13555010.198 7 -10569352.223 8  21915572.016       -1807.673
 -11842376.273 7  -9236857.059 6  22725674.944        -248.068
   6198168.866 5   3903012.305 5  25216506.805        3635.110
  -2112172.138 5  -1023351.809 5  24856152.050       -3048.133
 -17385107.828 8 -13393238.287 9  21067341.993        -335.097
  -7960594.455 6  -6225746.427 5  23829860.733         -17.578
 -12743586.021 8 -14864935.953 9  20934587.855         -52.032
 93  5  6  5 18 30.0010000  0  6 23 26 21 17 22  3                   0.001723020
 -13609034.268 7 -10611448.870 8  21905291.493       -1794.286
 -11849538.809 7  -9242438.238 6  22724311.748        -229.779
  -2203536.899 5  -1094545.069 5  24838765.611       -3043.294
 -17395042.903 8 -13400979.902 9  21065451.271        -327.508
  -7960851.052 6  -6225946.372 5  23829812.122           0.291
 -12744911.042 8 -14865968.428 9  20934335.673         -36.862
 93  5  6  5 19  0.0010000  0  6 23 26 21 17 22  3                   0.001727280
 -13662658.387 7 -10653233.861 8  21895087.136       -1780.823
 -11856152.928 7  -9247592.080 6  22723053.226        -211.244
  -2294764.897 5  -1165631.758 5  24821405.266       -3038.497
 -17404749.174 8 -13408543.218 9  21063604.199        -319.578
  -7960563.624 6  -6225722.407 5  23829865.683          18.870
 -12745781.309 8 -14866646.579 9  20934170.015         -21.415
 93  5  6  5 19 30.0010000  0  6 23 26 21 17 22  3                   0.001731540
 -13715884.662 7 -10694708.839 8  21884958.618       -1767.415
 -11862224.172 7  -9252322.912 6  22721897.798        -193.362
  -2385851.452 5  -1236608.171 5  24804072.240       -3033.919
 -17414222.514 8 -13415925.030 9  21061801.419        -311.838
  -7959723.786 6  -6225067.983 5  23830025.258          37.387
 -12746198.035 8 -14866971.302 9  20934090.669          -6.418
 93  5  6  5 20  0.0010000  0  6 23 26 21 17 22  3                   0.001735790
 -13768703.392 7 -10735866.255 8  21874907.695       -1754.085
 -11867752.492 7  -9256630.665 6  22720845.905        -175.278
  -2476797.762 5  -1307475.402 5  24786765.837       -3029.391
 -17423456.499 8 -13423120.325 9  21060044.215        -303.865
  -7958331.998 6  -6223983.468 5  23830290.643          55.284
 -12746157.509 8 -14866939.709 9  20934098.386           8.802
 93  5  6  5 20 30.0010000  0  6 23 26 21 17 22  3                   0.001740030
 -13821131.684 7 -10776719.413 8  21864930.683       -1741.293
 -11872741.199 7  -9260517.941 6  22719896.593        -157.434
  -2567609.202 5  -1378237.489 5  24769484.303       -3024.732
 -17432452.408 8 -13430130.121 9  21058332.330        -295.833
  -7956407.681 6  -6222484.001 5  23830657.248          73.007
 -12745658.459 8 -14866550.854 9  20934193.369          24.198
 93  5  6  5 21  0.0010000  0  6 23 26 21 17 22  3                   0.001744260
 -13873182.241 7 -10817278.262 8  21855025.551       -1728.982
 -11877198.070 7  -9263990.819 6  22719048.290        -139.740
  -2658280.130 5  -1448890.129 5  24752229.035       -3019.944
 -17441201.847 8 -13436947.856 9  21056667.232        -287.657
  -7953960.849 6  -6220577.377 5  23831122.896          89.880
 -12744696.134 8 -14865800.990 9  20934376.583          39.565
 93  5  6  5 21 30.0010000  0  6 23 26 21 17 22  3                   0.001748470
 -13924871.357 7 -10857555.471 8  21845189.440       -1716.808
 -11881117.961 7  -9267045.269 6  22718302.626        -121.415
  -2748800.118 5  -1519425.059 5  24735003.483       -3014.765
 -17449708.712 8 -13443576.573 9  21055048.344        -279.315
  -7951018.839 6  -6218284.897 5  23831683.190         106.487
 -12743275.511 8 -14864694.014 9  20934646.697          55.119
 93  5  6  5 22  0.0010000  0  6 23 26 21 17 22  3                   0.001752680
 -13976201.066 7 -10897552.618 8  21835421.921       -1705.272
 -11884484.184 7  -9269668.293 6  22717661.900        -103.131
  -2839170.848 5  -1589843.728 5  24717806.467       -3009.963
 -17457968.793 8 -13450012.990 9  21053476.543        -271.412
  -7947577.899 6  -6215603.647 5  23832337.566         122.927
 -12741385.661 8 -14863221.401 9  20935006.297          70.522
 93  5  6  5 22 30.0010000  0  6 23 26 21 17 22  3                   0.001756910
 -14027173.248 7 -10937271.170 8  21825722.314       -1692.928
 -11887291.669 7  -9271855.915 6  22717127.601         -84.047
  -2929381.174 5  -1660137.461 5  24700640.876       -3004.041
 -17465983.442 8 -13456258.163 9  21051951.378        -263.067
  -7943621.048 6  -6212520.414 5  23833089.757         140.770
 -12739024.840 8 -14861381.804 9  20935455.783          86.551
 93  5  6  5 23  0.0010000  0  6 23 26 21 17 22  3                   0.001761160
 -14077782.924 7 -10976707.270 9  21816091.455       -1680.746
 -11889536.869 7  -9273605.404 6  22716700.375         -65.269
  -3019421.580 5  -1730298.759 5  24683507.630       -2998.407
 -17473766.794 8 -13462323.111 9  21050470.363        -255.574
  -7939142.552 6  -6209030.640 5  23833942.226         158.178
 -12736197.629 8 -14859178.792 9  20935993.604         101.992
 93  5  6  5 23 30.0010000  0  6 23 26 21 17 22  3                   0.001765430
 -14128013.023 7 -11015847.596 9  21806532.910       -1667.690
 -11891214.008 7  -9274912.249 6  22716381.336         -46.598
  -3109289.624 5  -1800325.730 5  24666405.762       -2992.918
 -17481317.494 8 -13468206.760 9  21049033.447        -247.760
  -7934126.478 6  -6205122.023 5  23834896.565         176.395
 -12732898.359 8 -14856607.921 9  20936621.599         117.802
 93  5  6  5 24  0.0010000  0  6 23 26 21 17 22  3                   0.001769700
 -14177848.185 7 -11054680.168 9  21797049.616       -1654.507
 -11892341.870 7  -9275791.101 6  22716166.916         -28.383
  -3199004.115 5  -1870233.073 5  24649333.618       -2987.935
 -17488637.718 8 -13473910.825 9  21047640.571        -240.085
  -7928567.044 6  -6200789.976 5  23835954.341         194.356
 -12729128.192 8 -14853670.145 9  20937339.001         133.388
 93  5  6  5 24 30.0010000  0  6 23 26 21 17 22  3                   0.001773980
 -14227284.383 7 -11093201.866 9  21787642.461       -1641.247
 -11892912.364 7  -9276235.610 6  22716058.002          -9.553
  -3288567.797 5  -1940022.862 5  24632289.598       -2983.017
 -17495724.484 8 -13479432.958 9  21046292.115        -232.368
  -7922463.190 6  -6196033.746 5  23837116.006         212.328
 -12724886.145 8 -14850364.645 9  20938146.133         149.275
 93  5  6  5 25  0.0010000  0  6 23 26 21 17 22  3                   0.001778260
 -14276314.938 7 -11131407.458 9  21778312.347       -1627.741
 -11892911.517 6  -9276234.935 6  22716058.223           9.342
  -3377988.654 5  -2009701.400 5  24615273.614       -2978.601
 -17502572.957 8 -13484769.428 9  21044988.717        -224.258
  -7915827.275 6  -6190862.882 5  23838379.234         229.904
 -12720162.923 8 -14846684.207 9  20939044.890         165.255
 93  5  6  5 25 30.0010000  0  6 23 26 21 17 22  3                   0.001782530
 -14324952.087 7 -11169306.498 9  21769057.026       -1614.893
 -11892348.562 6  -9275796.270 6  22716165.176          28.008
  -3467284.842 5  -2079282.758 5  24598281.360       -2974.609
 -17509173.240 8 -13489912.496 9  21043732.857        -216.056
  -7908667.988 6  -6185284.232 5  23839741.443         247.127
 -12714961.219 8 -14842630.941 9  20940034.656         181.109
 93  5  6  5 26  0.0010000  0  6 23 26 21 17 22  3                   0.001786780
 -14373209.480 7 -11206909.638 9  21759873.703       -1602.405
 -11891218.457 7  -9274915.640 6  22716380.078          47.462
  -3556454.381 5  -2148765.409 5  24581312.244       -2969.891
 -17515529.824 8 -13494865.661 9  21042523.283        -207.726
  -7900994.524 6  -6179304.902 5  23841201.589         264.388
 -12709281.422 8 -14838205.117 9  20941115.588         197.305
 93  5  6  5 26 30.0010000  0  6 23 26 21 17 22  3                   0.001791050
 -14421099.784 7 -11244226.734 9  21750760.304       -1590.072
 -11889508.720 6  -9273583.347 6  22716705.532          66.498
  -3645486.007 5  -2218140.601 5  24564370.509       -2965.229
 -17521648.590 8 -13499633.530 9  21041358.851        -200.128
  -7892818.509 6  -6172933.995 5  23842757.106         280.775
 -12703121.956 8 -14833405.544 9  20942287.856         213.217
 93  5  6  5 27  0.0010000  0  6 23 26 21 17 22  3                   0.001795320
 -14468604.660 7 -11281243.489 9  21741720.212       -1576.937
 -11887232.742 7  -9271809.837 6  22717138.529          85.278
  -3734355.140 5  -2287389.192 5  24547459.614       -2959.310
 -17527528.182 8 -13504215.013 9  21040239.974        -191.760
  -7884134.552 6  -6166167.241 5  23844410.020         298.315
 -12696476.764 8 -14828227.465 9  20943552.460         229.614
 93  5  6  5 27 30.0010000  0  6 23 26 21 17 22  3                   0.001799590
 -14515720.251 7 -11317956.922 9  21732754.597       -1564.113
 -11884399.664 7  -9269602.248 6  22717677.958         103.451
  -3823043.376 5  -2356496.872 5  24530583.536       -2953.314
 -17533170.743 8 -13508611.820 9  21039166.338        -184.549
  -7874932.251 6  -6158996.635 5  23846161.916         315.156
 -12689344.295 8 -14822669.703 9  20944909.802         245.516
 93  5  6  5 28  0.0010000  0  6 23 26 21 17 22  3                   0.001803860
 -14562438.409 7 -11354360.646 9  21723864.582       -1550.607
 -11881020.611 7  -9266969.189 6  22718321.034         121.612
  -3911540.540 5  -2425455.636 5  24513742.153       -2946.779
 -17538590.098 8 -13512834.683 9  21038135.051        -176.942
  -7865208.130 6  -6151419.380 5  23848011.932         332.841
 -12681726.027 8 -14816733.397 9  20946359.517         261.892
 93  5  6  5 28 30.0010000  0  6 23 26 21 17 22  3                   0.001808130
 -14608752.546 7 -11390449.564 9  21715051.073       -1537.017
 -11877114.968 7  -9263925.825 6  22719064.498         138.686
  -3999846.422 5  -2494265.268 5  24496938.827       -2940.375
 -17543784.690 8 -13516882.409 9  21037146.348        -169.293
  -7854963.035 6  -6143436.197 5  23849961.305         350.315
 -12673625.243 8 -14810421.083 9  20947901.088         277.908
 93  5  6  5 29  0.0010000  0  6 23 26 21 17 22  3                   0.001812380
 -14654658.390 7 -11426220.308 9  21706315.519       -1523.427
 -11872688.136 7  -9260476.318 6  22719906.806         156.619
  -4087948.374 5  -2562916.065 5  24480172.292       -2933.338
 -17548740.801 8 -13520744.311 9  21036203.359        -160.931
  -7844182.036 6  -6135035.423 5  23852013.262         368.455
 -12665037.263 8 -14803729.154 9  20949535.428         294.488
 93  5  6  5 29 30.0010000  0  6 23 26 21 17 22  3                   0.001816620
 -14700162.807 7 -11461678.299 9  21697656.255       -1510.074
 -11867722.273 7  -9256606.806 6  22720851.533         174.650
  -4175854.528 5  -2631414.280 5  24463443.971       -2927.060
 -17553448.043 8 -13524412.290 9  21035307.632        -152.656
  -7832866.912 6  -6126218.436 5  23854166.665         385.938
 -12655953.451 8 -14796650.854 9  20951263.971         310.952
 93  5  6  5 30  0.0010000  0  6 23 26 21 17 22  3                   0.001820860
 -14745273.511 7 -11496829.451 9  21689071.898       -1497.387
 -11862212.749 7  -9252313.675 6  22721899.856         192.620
  -4263582.259 5  -2699773.466 5  24446750.051       -2921.793
 -17557898.924 8 -13527880.503 9  21034460.836        -144.229
  -7821032.266 6  -6116996.634 5  23856418.284         402.722
 -12646377.848 8 -14789189.357 9  20953086.151         327.100
 93  5  6  5 30 30.0010000  0  6 23 26 21 17 22  3                   0.001825080
 -14789998.646 7 -11531680.175 9  21680561.031       -1484.347
 -11856151.477 7  -9247590.604 6  22723053.418         211.524
  -4351141.482 5  -2768001.354 5  24430087.754       -2915.804
 -17562100.886 8 -13531154.743 9  21033661.208        -135.981
  -7808696.985 6  -6107384.732 5  23858765.801         419.655
 -12636313.260 8 -14781346.825 9  20955001.296         343.637
 93  5  6  5 31  0.0010000  0  6 23 26 21 17 22  3                   0.001829310
 -14834332.975 7 -11566226.368 9  21672124.510       -1471.380
 -11849514.658 7  -9242419.024 6  22724316.255         230.927
  -4438536.003 5  -2836100.942 5  24413457.165       -2910.715
 -17566060.701 8 -13534240.312 9  21032907.540        -128.113
  -7795853.753 6  -6097377.026 5  23861209.897         436.506
 -12625752.034 8 -14773117.287 9  20957011.092         360.153
 93  5  6  5 31 30.0010000  0  6 23 26 21 17 22  3                   0.001833530
 -14878275.564 7 -11600467.330 9  21663762.360       -1458.129
 -11842300.117 7  -9236797.304 6  22725689.204         250.040
  -4525786.996 5  -2904088.688 5  24396854.889       -2905.929
 -17569787.080 8 -13537143.967 9  21032198.533        -120.412
  -7782511.399 6  -6086980.376 5  23863748.920         452.990
 -12614692.064 8 -14764499.137 9  20959115.746         376.816
 93  5  6  5 32  0.0010000  0  6 23 26 21 17 22  3                   0.001837750
 -14921827.393 7 -11634403.780 9  21655474.738       -1445.213
 -11834513.748 7  -9230729.984 6  22727170.956         269.063
  -4612886.251 5  -2971958.178 5  24380280.356       -2900.626
 -17573286.247 8 -13539870.586 9  21031532.745        -112.922
  -7768674.200 6  -6076198.170 5  23866381.676         469.679
 -12603134.805 8 -14755493.484 9  20961315.133         393.472
 93  5  6  5 32 30.0010000  0  6 23 26 21 17 22  3                   0.001841960
 -14964991.617 7 -11668038.217 9  21647260.813       -1432.269
 -11826158.512 7  -9224219.400 6  22728760.839         288.018
  -4699825.769 5  -3039703.165 5  24363736.174       -2895.078
 -17576566.470 8 -13542426.596 9  21030908.416        -105.474
  -7754328.969 6  -6065020.042 5  23869111.229         487.001
 -12591078.222 8 -14746098.742 9  20963609.284         410.257
 93  5  6  5 33  0.0010000  0  6 23 26 21 17 22  3                   0.001846190
 -15007769.350 7 -11701371.502 9  21639120.638       -1419.365
 -11817241.454 7  -9217271.004 6  22730457.910         306.614
  -4786601.641 5  -3107320.714 5  24347223.976       -2889.617
 -17579615.021 8 -13544802.086 9  21030328.368         -97.473
  -7739461.237 6  -6053434.792 5  23871940.307         504.407
 -12578518.094 8 -14736311.638 9  20965999.370         427.031
 93  5  6  5 33 30.0010000  0  6 23 26 21 17 22  3                   0.001850410
 -15050157.660 7 -11734401.313 9  21631054.383       -1406.471
 -11807765.307 7  -9209886.985 6  22732261.094         325.128
  -4873200.458 5  -3174800.231 5  24330744.299       -2883.410
 -17582415.945 8 -13546984.611 9  21029795.436         -89.293
  -7724071.669 6  -6041442.938 5  23874869.054         521.725
 -12565451.451 8 -14726129.832 9  20968485.990         443.862
 93  5  6  5 34  0.0010000  0  6 23 26 21 17 22  3                   0.001854650
 -15092153.935 8 -11767125.658 9  21623062.755       -1393.296
 -11797725.605 7  -9202063.809 6  22734171.679         344.006
  -4959598.527 5  -3242123.326 5  24314302.248       -2876.739
 -17584963.598 8 -13548969.792 9  21029310.570         -80.741
  -7708149.717 6  -6029036.223 5  23877898.634         539.761
 -12551874.218 8 -14715550.164 9  20971069.611         461.027
 93  5  6  5 34 30.0010000  0  6 23 26 21 17 22  3                   0.001858900
 -15133760.671 7 -11799546.457 9  21615145.406       -1380.285
 -11787128.469 7  -9193806.291 6  22736188.383         362.599
  -5045813.900 5  -3309304.101 5  24297896.203       -2870.650
 -17587270.128 8 -13550767.080 9  21028871.654         -72.769
  -7691697.041 6  -6016215.970 5  23881029.888         557.273
 -12537793.911 8 -14704578.499 9  20973749.095         477.708
 93  5  6  5 35  0.0010000  0  6 23 26 21 17 22  3                   0.001863150
 -15174972.334 8 -11831659.426 9  21607303.165       -1367.231
 -11775971.301 7  -9185112.370 6  22738311.326         381.308
  -5131847.808 6  -3376343.400 5  24281524.672       -2864.832
 -17589334.347 8 -13552375.539 9  21028478.718         -64.936
  -7674721.310 6  -6002988.129 5  23884260.220         574.302
 -12523205.321 8 -14693210.758 9  20976525.184         494.552
 93  5  6  5 35 30.0010000  0  6 23 26 21 17 22  3                   0.001867420
 -15215799.592 8 -11863472.890 9  21599533.833       -1354.350
 -11764248.166 7  -9175977.469 6  22740542.112         400.303
  -5217699.435 6  -3443240.740 5  24265187.577       -2858.429
 -17591169.152 8 -13553805.256 9  21028129.430         -57.251
  -7657244.230 6  -5989369.624 5  23887586.100         591.059
 -12508112.365 8 -14681450.020 9  20979397.197         511.640
 93  5  6  5 36  0.0010000  0  6 23 26 21 17 22  3                   0.001871680
 -15256234.682 8 -11894980.715 9  21591839.480       -1341.343
 -11751958.377 7  -9166400.982 6  22742880.610         418.976
  -5303366.402 5  -3509994.122 5  24248885.759       -2852.832
 -17592776.363 8 -13555057.619 9  21027823.590         -49.931
  -7639266.089 6  -5975360.686 5  23891006.968         607.369
 -12492508.945 8 -14669291.509 9  20982366.279         528.353
 93  5  6  5 36 30.0010000  0  6 23 26 21 17 22  3                   0.001875950
 -15296273.035 8 -11926179.376 9  21584220.474       -1328.113
 -11739099.109 7  -9156380.767 6  22745327.867         438.054
  -5388859.455 5  -3576612.038 5  24232617.056       -2846.921
 -17594152.919 8 -13556130.248 9  21027561.763         -42.009
  -7620792.340 6  -5960965.590 5  23894522.595         623.907
 -12476398.308 8 -14656736.987 9  20985432.236         545.252
 93  5  6  5 37  0.0010000  0  6 23 26 21 17 22  3                   0.001880210
 -15335913.056 8 -11957067.674 9  21576677.207       -1314.445
 -11725668.116 7  -9145915.033 6  22747883.668         457.427
  -5474163.829 5  -3643082.914 5  24216383.740       -2840.017
 -17595286.073 8 -13557013.226 9  21027346.081         -33.407
  -7601825.946 6  -5946186.569 5  23898131.909         640.430
 -12459777.059 8 -14643786.150 9  20988595.049         562.513
 93  5  6  5 37 30.0010000  0  6 23 26 21 17 22  3                   0.001884470
 -15375133.130 8 -11987628.740 9  21569213.793       -1300.107
 -11711653.726 7  -9134994.715 6  22750550.284         476.799
  -5559261.963 5  -3709393.055 5  24200190.052       -2833.108
 -17596151.585 8 -13557687.625 9  21027181.434         -24.183
  -7582364.432 6  -5931021.810 5  23901834.882         657.314
 -12442639.737 8 -14630432.397 9  20991856.169         579.838
 93  5  6  5 38  0.0010000  0  6 23 26 21 17 22  3                   0.001888730
 -15413921.085 8 -12017853.104 9  21561832.493       -1285.546
 -11697065.964 7  -9123627.621 6  22753326.341         496.135
  -5644166.520 5  -3775552.427 5  24184033.193       -2826.755
 -17596742.766 8 -13558148.281 9  21027068.942         -14.833
  -7562394.683 6  -5915460.939 5  23905635.364         674.383
 -12424988.034 8 -14616677.833 9  20995215.085         597.085
 93  5  6  5 38 30.0010000  0  6 23 26 21 17 22  3                   0.001892980
 -15452281.966 8 -12047744.685 9  21554532.627       -1271.622
 -11681898.499 7  -9111808.798 6  22756212.632         515.290
  -5728875.099 5  -3841559.021 5  24167913.740       -2820.144
 -17597050.840 8 -13558388.338 9  21027010.403          -5.606
  -7541912.198 6  -5899500.600 5  23909532.912         691.284
 -12406817.758 8 -14602519.193 9  20998672.850         614.339
 93  5  6  5 39  0.0010000  0  6 23 26 21 17 22  3                   0.001897220
 -15490222.798 8 -12077308.935 9  21547312.726       -1257.757
 -11666154.167 7  -9099540.474 6  22759208.809         534.412
  -5813374.757 6  -3907402.885 5  24151834.534       -2813.093
 -17597084.940 8 -13558414.905 9  21027003.878           3.418
  -7520927.953 6  -5883149.264 5  23913526.030         707.567
 -12388121.951 8 -14587951.026 9  21002230.678         631.942
 93  5  6  5 39 30.0010000  0  6 23 26 21 17 22  3                   0.001901450
 -15527763.161 8 -12106561.137 9  21540169.171       -1244.984
 -11649848.126 7  -9086834.454 6  22762311.779         552.580
  -5897683.698 5  -3973098.116 5  24135790.935       -2807.251
 -17596863.259 8 -13558242.147 9  21027046.038          11.207
  -7499459.270 6  -5866420.389 5  23917611.393         723.847
 -12368905.062 8 -14572976.828 9  21005887.547         649.061
 93  5  6  5 40  0.0010000  0  6 23 26 21 17 22  3                   0.001905680
 -15564924.740 8 -12135518.192 9  21533097.498       -1232.468
 -11632996.904 7  -9073703.636 6  22765518.410         570.824
  -5981798.310 5  -4038641.908 5  24119783.107       -2800.341
 -17596413.646 8 -13557891.803 9  21027131.511          18.858
  -7477501.984 6  -5849310.872 5  23921789.751         739.847
 -12349168.193 8 -14557597.466 9  21009643.296         666.520
 93  5  6  5 40 30.0010000  0  6 23 26 21 17 22  3                   0.001909910
 -15601718.301 8 -12164188.470 9  21526095.863       -1220.470
 -11615605.398 7  -9060151.796 6  22768827.989         588.548
  -6065707.340 5  -4104025.479 5  24103815.753       -2793.472
 -17595738.410 8 -13557365.636 9  21027260.012          26.108
  -7455073.286 6  -5831833.945 5  23926057.620         755.500
 -12328911.295 8 -14541812.851 9  21013498.139         683.729
 93  5  6  5 41  0.0010000  0  6 23 26 21 17 22  3                   0.001914130
 -15638151.783 8 -12192578.175 9  21519162.614       -1208.120
 -11597683.973 7  -9046187.020 6  22772238.441         606.360
  -6149410.378 5  -4169248.571 5  24087888.221       -2786.594
 -17594845.826 8 -13556670.110 9  21027429.873          33.692
  -7432175.675 6  -5813991.681 5  23930414.867         771.290
 -12308138.521 8 -14525626.286 9  21017451.111         701.120
 93  5  6  5 41 30.0010000  0  6 23 26 21 17 22  3                   0.001918350
 -15674201.733 8 -12220669.013 9  21512302.393       -1195.292
 -11579222.192 7  -9031801.208 6  22775751.584         624.251
  -6232901.014 6  -4234306.158 5  24072000.889       -2779.711
 -17593719.094 8 -13555792.138 9  21027644.266          41.345
  -7408785.411 6  -5795765.548 5  23934866.277         788.008
 -12286839.626 8 -14509029.745 9  21021504.116         718.439
 93  5  6  5 42  0.0010000  0  6 23 26 21 17 22  3                   0.001922570
 -15709860.227 8 -12248454.830 9  21505516.950       -1181.965
 -11560212.689 7  -9016988.594 6  22779368.652         643.098
  -6316190.991 6  -4299207.385 5  24056151.659       -2773.251
 -17592352.633 8 -13554727.352 9  21027904.275          49.786
  -7384894.046 6  -5777148.878 5  23939413.128         804.639
 -12265018.262 8 -14492026.082 9  21025656.502         735.961
 93  5  6  5 42 30.0010000  0  6 23 26 21 17 22  3                   0.001926790
 -15745119.351 7 -12275929.432 9  21498807.277       -1168.717
 -11540628.825 7  -9001728.425 6  22783095.361         662.367
  -6399300.808 5  -4363968.247 5  24040336.094       -2767.440
 -17590735.710 8 -13553467.408 9  21028212.030          57.839
  -7360495.236 6  -5758136.878 5  23944055.976         821.983
 -12242673.667 8 -14474614.712 9  21029908.618         753.406
 93  5  6  5 43  0.0010000  0  6 23 26 21 17 22  3                   0.001931030
 -15779978.018 8 -12303092.019 9  21492173.937       -1154.910
 -11520467.528 7  -8986018.327 6  22786931.745         681.865
  -6482238.653 5  -4428595.090 5  24024553.165       -2761.692
 -17588885.674 8 -13552025.821 9  21028564.078          65.749
  -7335581.015 6  -5738723.227 5  23948797.074         839.185
 -12219806.915 8 -14456796.468 9  21034259.834         771.032
 93  5  6  5 43 30.0010000  0  6 23 26 21 17 22  3                   0.001935280
 -15814419.423 8 -12329929.433 9  21485620.114       -1141.085
 -11499719.205 7  -8969850.792 6  22790880.191         701.418
  -6565007.628 5  -4493090.387 5  24008802.529       -2756.170
 -17586796.486 8 -13550397.877 9  21028961.555          73.639
  -7310141.649 6  -5718900.379 5  23953638.292         856.730
 -12196413.374 8 -14438567.737 9  21038711.432         788.413
 93  5  6  5 44  0.0010000  0  6 23 26 21 17 22  3                   0.001939550
 -15848446.940 8 -12356444.357 9  21479144.750       -1127.535
 -11478382.843 7  -8953225.033 6  22794940.502         720.869
  -6647602.020 5  -4557449.594 5  23993085.703       -2750.090
 -17584467.426 8 -13548583.029 9  21029404.706          81.413
  -7284185.090 6  -5698674.521 5  23958577.181         873.536
 -12172492.244 8 -14419927.906 9  21043263.492         805.944
 93  5  6  5 44 30.0010000  0  6 23 26 21 17 22  3                   0.001943820
 -15882072.656 8 -12382646.178 9  21472745.948       -1114.042
 -11456476.868 7  -8936155.409 6  22799109.082         739.533
  -6729999.609 5  -4621655.435 5  23977405.923       -2742.779
 -17581912.863 8 -13546592.444 9  21029890.869          89.093
  -7257732.240 6  -5678061.926 5  23963610.957         889.867
 -12148049.725 8 -14400881.793 9  21047914.792         823.490
 93  5  6  5 45  0.0010000  0  7 28 23 26 21 17 22  3                0.001948120
   -238090.25815   -189506.12011  25270202.104       -3397.809
 -15915290.535 8 -12408530.218 9  21466424.716       -1100.380
 -11434011.806 7  -8918650.173 6  22803384.164         758.204
  -6812173.425 6  -4685686.942 5  23961768.505       -2735.347
 -17579111.407 8 -13544409.500 9  21030423.969          97.854
  -7230803.189 6  -5657078.278 5  23968735.690         905.424
 -12123077.105 8 -14381422.608 9  21052666.763         841.258
 93  5  6  5 45 30.0010000  0  7 28 23 26 21 17 22  3                0.001952350
   -339980.959 6   -268901.378 3  25250812.965       -3394.575
 -15948107.137 8 -12434101.542 9  21460179.917       -1087.160
 -11410990.413 7  -8900711.394 6  22807764.883         776.830
  -6894126.429 6  -4749546.406 5  23946173.091       -2727.840
 -17576043.168 8 -13542018.649 9  21031007.716         106.856
  -7203412.654 6  -5635735.019 5  23973947.808         920.660
 -12097574.761 8 -14361550.656 9  21057519.853         858.991
 93  5  6  5 46  0.0010000  0  7 28 23 26 21 17 22  3                0.001956580
   -441776.450 6   -348222.420 5  25231442.157       -3391.733
 -15980536.291 8 -12459370.996 9  21454008.796       -1074.745
 -11387412.706 7  -8882339.166 6  22812251.678         795.239
  -6975855.451 6  -4813231.293 5  23930620.792       -2720.624
 -17572706.374 8 -13539418.543 9  21031642.648         115.668
  -7175577.991 6  -5614045.680 5  23979244.454         935.176
 -12071538.947 8 -14341263.012 9  21062474.321         876.584
 93  5  6  5 46 30.0010000  0  7 28 23 26 21 17 22  3                0.001960820
   -543481.066 6   -427472.623 5  25212088.476       -3388.823
 -16012587.841 8 -12484346.201 9  21447909.602       -1062.187
 -11363277.976 7  -8863532.875 6  22816844.104         813.472
  -7057374.451 6  -4876752.553 5  23915108.176       -2714.310
 -17569101.505 8 -13536609.541 9  21032328.602         124.324
  -7147297.505 6  -5592009.007 5  23984625.697         949.844
 -12044972.334 8 -14320561.762 9  21067529.772         894.059
 93  5  6  5 47  0.0010000  0  7 28 23 26 21 17 22  3                0.001965030
   -645095.290 6   -506652.458 5  25192752.518       -3385.715
 -16044256.493 8 -12509023.049 9  21441883.103       -1049.316
 -11338598.434 7  -8844302.049 6  22821540.448         831.509
  -7138708.078 6  -4940129.387 5  23899630.621       -2708.170
 -17565240.835 8 -13533601.208 9  21033063.424         132.632
  -7118567.824 6  -5569622.244 5  23990093.423         965.322
 -12017879.132 8 -14299450.178 9  21072685.541         911.715
 93  5  6  5 47 30.0010000  0  7 28 23 26 21 17 22  3                0.001969240
   -746618.821 6   -585761.562 5  25173433.294       -3382.528
 -16075538.620 8 -12533398.689 9  21435930.234       -1036.047
 -11313381.125 7  -8824652.190 6  22826339.366         849.631
  -7219848.156 6  -5003355.354 5  23884190.612       -2701.197
 -17561145.267 8 -13530409.846 9  21033842.852         140.282
  -7089369.675 6  -5546870.463 5  23995649.328         981.171
 -11990255.652 8 -14277925.382 9  21077942.015         929.582
 93  5  6  5 48  0.0010000  0  7 28 23 26 21 17 22  3                0.001973440
   -848048.890 6   -664797.869 5  25154132.289       -3379.690
 -16106417.545 8 -12557460.168 9  21430054.182       -1022.652
 -11287624.536 7  -8804582.138 6  22831240.241         867.351
  -7300778.798 6  -5066418.147 5  23868790.102       -2694.211
 -17556823.701 8 -13527042.387 9  21034665.225         147.658
  -7059696.511 6  -5523748.545 5  24001295.858         996.928
 -11962098.654 8 -14255984.875 9  21083300.185         947.175
 93  5  6  5 48 30.0010000  0  7 28 23 26 21 17 22  3                0.001977630
   -949391.840 6   -743766.296 5  25134846.929       -3376.693
 -16136884.789 8 -12581200.852 9  21424256.565       -1008.656
 -11261340.743 7  -8784101.216 6  22836241.828         884.794
  -7381495.467 6  -5129314.256 5  23853430.093       -2686.919
 -17552285.659 8 -13523506.244 9  21035528.697         154.826
  -7029545.691 6  -5500254.384 5  24007033.135        1012.795
 -11933412.536 8 -14233632.076 9  21088758.967         964.916
 93  5  6  5 49  0.0010000  0  7 28 23 26 21 17 22  3                0.001981820
  -1050653.474 6   -822671.405 5  25115576.665       -3374.167
 -16166944.287 8 -12604623.807 9  21418536.366        -995.535
 -11234529.254 7  -8763209.143 6  22841343.725         902.639
  -7461984.087 6  -5192032.584 5  23838114.020       -2679.119
 -17547524.227 8 -13519796.033 9  21036434.809         162.637
  -6998925.981 6  -5476394.870 5  24012859.686        1028.429
 -11904193.430 8 -14210863.959 9  21094319.117         982.729
 93  5  6  5 49 30.0010000  0  7 28 23 26 21 17 22  3                0.001986000
  -1151848.525 5   -901524.619 5  25096319.051       -3371.867
 -16196616.119 8 -12627744.699 9  21412890.216        -982.372
 -11207174.171 7  -8741893.458 6  22846549.423         921.313
  -7542249.678 6  -5254577.171 5  23822839.245       -2671.965
 -17542526.033 8 -13515901.337 9  21037385.861         170.821
  -6967843.682 6  -5452174.898 5  24018774.460        1043.941
 -11874445.495 8 -14187683.749 9  21099979.889        1000.392
 93  5  6  5 50  0.0010000  0  7 28 23 26 21 17 22  3                0.001990180
  -1252971.650 6   -980321.789 5  25077075.456       -3369.678
 -16225893.724 8 -12650558.379 9  21407318.841        -969.639
 -11179252.599 7  -8720136.397 6  22851862.851         940.179
  -7622305.372 6  -5316958.168 5  23807604.985       -2665.193
 -17537273.278 8 -13511808.265 9  21038385.378         179.366
  -6936288.480 6  -5427586.457 5  24024779.632        1059.696
 -11844162.934 8 -14164086.952 9  21105742.549        1018.218
 93  5  6  5 50 30.0010000  0  7 28 23 26 21 17 22  3                0.001994360
  -1354027.763 5  -1059066.756 5  25057845.190       -3367.041
 -16254798.392 8 -12673081.478 9  21401818.509        -957.170
 -11150762.012 7  -8697935.916 6  22857284.440         959.320
  -7702159.281 6  -5379181.958 5  23792409.191       -2658.403
 -17531768.729 8 -13507518.998 9  21039432.904         187.754
  -6904264.389 6  -5402632.631 5  24030873.174        1075.466
 -11813346.073 8 -14140073.836 9  21111606.858        1036.175
 93  5  6  5 51  0.0010000  0  7 28 23 26 21 17 22  3                0.001998540
  -1454996.423 5  -1137743.604 5  25038631.698       -3364.086
 -16283330.694 8 -12695314.428 9  21396388.965        -944.879
 -11121700.844 7  -8675290.839 6  22862814.670         978.067
  -7781816.680 6  -5441252.622 5  23777250.824       -2652.224
 -17526014.752 8 -13503035.366 9  21040527.866         195.685
  -6871764.402 6  -5377307.963 5  24037058.090        1091.297
 -11781993.612 8 -14115643.350 9  21117573.091        1053.762
 93  5  6  5 51 30.0020000  0  7 28 23 26 21 17 22  3                0.002002730
  -1555871.655 5  -1216347.651 5  25019435.622       -3360.691
 -16311481.318 8 -12717249.951 9  21391032.187        -931.683
 -11092078.257 7  -8652208.269 6  22868451.912         996.688
  -7861293.269 6  -5503182.368 5  23762127.289       -2645.986
 -17520033.882 8 -13498374.938 9  21041666.047         203.126
  -6838784.935 6  -5351609.662 5  24043333.928        1107.223
 -11750110.783 8 -14090799.611 9  21123640.018        1071.568
 93  5  6  5 52  0.0020000  0  7 28 23 26 21 17 22  3                0.002006930
  -1656635.606 5  -1294865.026 5  25000260.947       -3357.082
 -16339237.162 8 -12738877.880 9  21385750.132        -918.946
 -11061902.552 7  -8628694.718 6  22874193.934        1014.818
  -7940567.175 6  -5564954.192 5  23747041.980       -2639.106
 -17513822.595 8 -13493534.972 9  21042848.049         210.826
  -6805331.598 6  -5325542.170 5  24049700.338        1122.648
 -11717687.216 8 -14065534.516 9  21129810.138        1089.587
 93  5  6  5 52 30.0020000  0  7 28 23 26 21 17 22  3                0.002011120
  -1757285.170 5  -1373293.233 5  24981108.110       -3353.130
 -16366611.612 8 -12760208.591 9  21380540.908        -906.121
 -11031190.139 7  -8604762.948 7  22880038.388        1032.340
  -8019640.212 6  -5626569.498 5  23731994.700       -2632.616
 -17507384.177 8 -13488518.023 9  21044073.341         218.179
  -6771424.486 6  -5299121.028 5  24056152.237        1137.578
 -11684730.495 8 -14039853.981 9  21136081.706        1107.083
 93  5  6  5 53  0.0020000  0  7 28 23 26 21 17 22  3                0.002015290
  -1857822.454 5  -1451633.938 5  24961977.315       -3349.389
 -16393590.773 8 -12781231.305 9  21375406.902        -892.503
 -10999948.269 7  -8580418.609 6  22885983.555        1050.558
  -8098514.105 6  -5688029.621 5  23716984.990       -2625.497
 -17500716.938 8 -13483322.767 9  21045342.124         226.459
  -6737077.007 6  -5272356.782 5  24062687.946        1152.113
 -11651243.959 8 -14013760.578 9  21142454.013        1125.164
 93  5  6  5 53 30.0020000  0  7 28 23 26 21 17 22  3                0.002019460
  -1958257.390 5  -1529894.870 5  24942865.684       -3346.120
 -16420167.847 8 -12801940.678 9  21370349.396        -879.324
 -10968165.221 7  -8555652.582 6  22892031.764        1068.305
  -8177175.982 6  -5749324.522 5  23702016.877       -2618.469
 -17493798.736 8 -13477931.946 9  21046658.460         235.014
  -6702310.380 6  -5245265.902 5  24069304.048        1165.649
 -11617219.355 8 -13987247.923 9  21148928.601        1142.985
 93  5  6  5 54  0.0020000  0  7 28 23 26 21 17 22  3                0.002023590
  -2058588.252 5  -1608074.728 5  24923773.023       -3342.187
 -16446354.509 8 -12822345.858 9  21365366.166        -866.120
 -10935850.643 7  -8530472.377 6  22898180.790        1086.330
  -8255623.961 6  -5810452.785 5  23687088.749       -2611.111
 -17486617.821 8 -13472336.427 9  21048024.875         243.816
  -6667140.785 6  -5217860.997 5  24075997.006        1179.243
 -11582662.138 8 -13960320.230 8  21155504.742        1160.796
 93  5  6  5 54 30.0020000  0  7 28 23 26 21 17 22  3                0.002027700
  -2158791.747 5  -1686155.316 5  24904704.819       -3338.019
 -16472134.011 8 -12842433.750 9  21360460.361        -852.387
 -10902997.138 7  -8504872.241 6  22904432.320        1104.095
  -8333852.118 6  -5871409.740 5  23672202.597       -2603.886
 -17479179.967 8 -13466540.692 9  21049440.196         252.084
  -6631561.925 6  -5190137.216 5  24082767.316        1192.832
 -11547570.145 8 -13932975.832 9  21162182.447        1178.577
 93  5  6  5 55  0.0020000  0  7 28 23 26 21 17 22  3                0.002031790
  -2258878.632 5  -1764145.041 5  24885658.264       -3334.483
 -16497505.811 8 -12862203.976 9  21355632.433        -839.214
 -10869612.130 7  -8478857.934 6  22910785.395        1121.682
  -8411858.680 6  -5932194.016 5  23657358.424       -2596.591
 -17471497.460 8 -13460554.317 9  21050902.013         260.070
  -6595573.595 6  -5162094.387 5  24089615.346        1206.473
 -11511944.666 8 -13905215.749 8  21168961.673        1196.208
 93  5  6  5 55 30.0020000  0  7 28 23 26 21 17 22  3                0.002035860
  -2358844.134 5  -1842040.131 5  24866635.339       -3329.874
 -16522483.619 8 -12881667.179 9  21350879.492        -826.080
 -10835693.969 7  -8452428.173 6  22917239.773        1139.595
  -8489640.075 6  -5992802.838 5  23642556.876       -2588.933
 -17463572.604 8 -13454379.086 9  21052410.181         268.212
  -6559156.419 6  -5133717.380 5  24096545.751        1221.592
 -11475784.319 8 -13877038.859 8  21175842.811        1214.176
 93  5  6  5 56  0.0020000  0  7 28 23 26 21 17 22  3                0.002039960
  -2458665.839 6  -1919823.167 5  24847640.626       -3325.348
 -16547070.156 8 -12900825.507 9  21346200.753        -813.318
 -10801230.476 7  -8425573.488 6  22923798.396        1157.651
  -8567193.777 6  -6053234.251 5  23627799.106       -2581.574
 -17455411.942 8 -13448020.127 9  21053963.055         275.529
  -6522273.594 6  -5104977.505 5  24103564.297        1237.046
 -11439083.390 8 -13848440.747 8  21182826.875        1231.985
 93  5  6  5 56 30.0020000  0  7 28 23 26 21 17 22  3                0.002044050
  -2558366.734 6  -1997512.175 5  24828668.041       -3321.593
 -16571279.831 8 -12919690.182 9  21341593.593        -800.847
 -10766229.202 7  -8398299.772 6  22930458.722        1175.576
  -8644531.831 6  -6113497.633 5  23613082.066       -2574.456
 -17447027.314 8 -13441486.648 9  21055558.680         283.433
  -6484931.386 6  -5075879.670 5  24110670.321        1252.573
 -11401847.359 8 -13819425.689 8  21189912.539        1250.062
 93  5  6  5 57  0.0020000  0  7 28 23 26 21 17 22  3                0.002048160
  -2657961.743 6  -2075118.556 5  24809716.110       -3317.783
 -16595122.192 8 -12938268.617 9  21337056.493        -788.499
 -10730689.365 7  -8370606.378 6  22937221.899        1193.926
  -8721651.578 6  -6173590.854 5  23598406.035       -2566.782
 -17438401.126 8 -13434764.930 9  21057200.075         291.870
  -6447122.838 6  -5046418.653 5  24117864.868        1268.211
 -11364071.685 8 -13789990.098 8  21197100.973        1268.222
 93  5  6  5 57 30.0020000  0  7 28 23 26 21 17 22  3                0.002052270
  -2757434.177 6  -2152629.463 5  24790787.210       -3313.617
 -16618597.080 8 -12956560.710 9  21332589.336        -776.222
 -10694596.694 7  -8342482.209 6  22944089.778        1212.248
  -8798550.830 6  -6233512.332 5  23583772.745       -2559.684
 -17429517.770 8 -13427842.824 9  21058890.493         300.387
  -6408848.607 6  -5016594.385 5  24125147.965        1283.377
 -11325752.508 8 -13760131.025 8  21204393.184        1286.193
 93  5  6  5 58  0.0020000  0  7 28 23 26 21 17 22  3                0.002056380
  -2856785.908 6  -2230046.329 5  24771881.069       -3309.939
 -16641692.602 8 -12974557.208 9  21328194.430        -763.417
 -10657960.059 7  -8313934.179 6  22951061.600        1230.115
  -8875230.293 6  -6293262.524 5  23569181.043       -2552.205
 -17420381.128 8 -13420723.372 9  21060629.230         308.769
  -6370133.055 6  -4986426.465 5  24132515.425        1297.545
 -11286892.893 8 -13729850.816 8  21211787.996        1304.187
 93  5  6  5 58 30.0020000  0  7 28 23 26 21 17 22  3                0.002060480
  -2956025.618 6  -2307375.890 5  24752996.290       -3305.635
 -16664402.057 8 -12992252.860 9  21323872.830        -750.126
 -10620792.633 7  -8284972.528 6  22958134.117        1248.116
  -8951690.712 6  -6352842.005 5  23554631.267       -2544.715
 -17410988.122 8 -13413404.147 9  21062416.824         317.723
  -6331003.342 6  -4955935.773 5  24139961.305        1311.678
 -11247498.338 8 -13699153.777 8  21219284.313        1322.312
 93  5  6  5 59  0.0020000  0  7 28 23 26 21 17 22  3                0.002064560
  -3055123.759 6  -2384595.115 5  24734138.605       -3300.770
 -16686700.533 8 -13009628.286 9  21319629.577        -736.508
 -10583078.964 7  -8255585.259 6  22965310.776        1266.142
  -9027917.104 6  -6412239.163 5  23540125.920       -2537.262
 -17401329.952 8 -13405878.298 9  21064254.738         326.131
  -6291437.328 6  -4925105.160 5  24147490.570        1325.770
 -11207560.002 8 -13668032.999 8  21226884.314        1340.101
 93  5  6  5 59 30.0020000  0  7 28 23 26 21 17 22  3                0.002068630
  -3154062.674 6  -2461690.297 5  24715310.842       -3295.287
 -16708582.916 8 -13026679.479 9  21315465.541        -722.345
 -10544812.666 7  -8225767.356 6  22972592.549        1284.722
  -9103913.841 6  -6471457.356 5  23525664.068       -2529.380
 -17391406.602 8 -13398145.819 9  21066142.900         335.229
  -6251444.709 6  -4893942.064 5  24155101.294        1340.055
 -11167075.411 8 -13636486.584 8  21234588.211        1358.486
 93  5  6  6  0  0.0020000  0  7 28 23 26 21 17 22  3                0.002072680
  -3252855.237 6  -2538671.407 5  24696511.138       -3290.664
 -16730052.063 8 -13043408.677 9  21311380.118        -709.058
 -10506011.030 7  -8195532.315 6  22979976.034        1302.151
  -9179692.987 6  -6530506.008 5  23511243.618       -2522.534
 -17381230.095 8 -13390216.067 9  21068079.431         343.315
  -6211040.478 6  -4862458.246 5  24162789.885        1353.563
 -11126048.263 8 -13604517.387 8  21242395.485        1376.493
 93  5  6  6  0 30.0020000  0  7 28 23 26 21 17 22  3                0.002076710
  -3351494.268 6  -2615532.900 5  24677740.451       -3285.301
 -16751131.216 8 -13059833.974 9  21307368.966        -696.320
 -10466681.351 7  -8164885.816 6  22987460.253        1319.834
  -9255262.401 6  -6589391.238 5  23496863.229       -2515.453
 -17370801.435 8 -13382089.833 9  21070064.099         351.812
  -6170222.192 6  -4830651.814 5  24170557.714        1367.766
 -11084477.941 8 -13572124.978 8  21250305.959        1394.662
 93  5  6  6  1  0.0020000  0  7 28 23 26 21 17 22  3                0.002080730
  -3449974.077 6  -2692270.322 5  24658999.857       -3280.084
 -16771832.845 8 -13075965.084 9  21303429.591        -683.949
 -10426827.082 7  -8133830.497 6  22995044.433        1337.141
  -9330623.034 6  -6648113.742 5  23482522.686       -2508.580
 -17360129.731 8 -13373774.212 9  21072094.742         359.689
  -6128984.427 6  -4798518.495 5  24178404.298        1381.224
 -11042361.150 8 -13539306.715 8  21258320.580        1412.949
 93  5  6  6  1 30.0020000  0  7 28 23 26 21 17 22  3                0.002084740
  -3548309.103 6  -2768894.968 5  24640287.166       -3275.591
 -16792176.782 8 -13091817.489 9  21299558.392        -672.200
 -10386458.770 7  -8102374.680 6  23002726.335        1354.018
  -9405780.365 6  -6706677.880 5  23468221.008       -2501.817
 -17349224.640 8 -13365276.737 9  21074169.855         367.258
  -6087355.337 6  -4766080.264 5  24186326.707        1394.153
 -10999700.509 8 -13506064.662 8  21266438.710        1430.858
 93  5  6  6  2  0.0020000  0  7 28 23 26 21 17 22  3                0.002088750
  -3646506.360 6  -2845412.241 5  24621601.997       -3270.608
 -16812166.195 8 -13107393.639 9  21295754.517        -660.340
 -10345585.495 7  -8070525.349 6  23010504.217        1371.216
  -9480721.198 6  -6765073.269 5  23453959.832       -2493.957
 -17338096.351 8 -13356605.346 9  21076287.580         374.969
  -6045325.036 6  -4733329.402 5  24194324.878        1408.095
 -10956498.298 8 -13472400.632 8  21274659.890        1449.176
 93  5  6  6  2 30.0020000  0  7 28 23 26 21 17 22  3                0.002092770
  -3744553.280 5  -2921812.396 5  24602944.296       -3265.619
 -16831798.914 8 -13122691.840 9  21292018.414        -648.152
 -10304186.156 7  -8038266.109 6  23018382.159        1388.927
  -9555421.611 6  -6823281.336 5  23439744.711       -2485.871
 -17326725.645 8 -13347745.065 9  21078451.371         383.227
  -6002868.487 6  -4700246.378 5  24202403.665        1422.478
 -10912749.539 8 -13438310.700 8  21282984.817        1467.393
 93  5  6  6  3  0.0020000  0  7 28 23 26 21 17 22  3                0.002096800
  -3842462.684 6  -2998105.369 5  24584311.875       -3261.406
 -16851059.976 8 -13137700.438 9  21288353.160        -635.743
 -10262255.530 7  -8005592.901 6  23026361.242        1406.651
  -9629881.853 6  -6881302.285 5  23425575.309       -2477.861
 -17315109.881 8 -13338693.818 9  21080661.893         391.495
  -5959983.186 6  -4666829.303 5  24210564.828        1436.618
 -10868456.904 8 -13403796.992 8  21291413.709        1485.391
 93  5  6  6  3 30.0020000  0  7 28 23 26 21 17 22  3                0.002100840
  -3940235.802 5  -3074292.166 5  24565705.747       -3256.618
 -16869948.810 8 -13152418.986 9  21284758.559        -623.475
 -10219790.444 7  -7972503.216 6  23034441.935        1424.418
  -9704095.382 6  -6939130.970 5  23411452.468       -2469.604
 -17303229.041 8 -13329436.020 9  21082922.686         400.627
  -5916672.969 6  -4633081.107 5  24218806.171        1451.132
 -10823618.493 8 -13368857.996 8  21299946.273        1503.590
 93  5  6  6  4  0.0020000  0  7 28 23 26 21 17 22  3                0.002104890
  -4037860.070 6  -3150362.961 5  24547127.961       -3251.573
 -16888472.490 8 -13166853.012 9  21281233.839        -611.375
 -10176795.004 7  -7939000.262 6  23042623.812        1441.979
  -9778062.944 6  -6996767.983 5  23397377.401       -2461.608
 -17291070.884 8 -13319962.135 9  21085236.255         409.953
  -5872920.715 6  -4598988.452 5  24227132.146        1465.757
 -10778234.261 8 -13333493.681 8  21308582.544        1521.857
 93  5  6  6  4 30.0020000  0  7 28 23 26 21 17 22  3                0.002108930
  -4135323.407 5  -3226308.385 5  24528581.429       -3245.803
 -16906627.362 8 -13180999.649 9  21277779.050        -598.813
 -10133282.967 7  -7905094.790 6  23050904.081        1458.976
  -9851799.734 6  -7054225.175 5  23383345.358       -2454.012
 -17278633.492 8 -13310270.661 9  21087602.978         419.269
  -5828736.895 6  -4564559.533 5  24235539.847        1479.871
 -10732301.067 8 -13297701.601 8  21317323.364        1540.361
 93  5  6  6  5  0.0020000  0  7 28 23 26 21 17 22  3                0.002112960
  -4232617.959 5  -3302122.300 5  24510066.973       -3240.149
 -16924414.421 8 -13194859.670 9  21274394.301        -586.906
 -10089264.356 7  -7870794.569 6  23059280.802        1475.772
  -9925313.920 6  -7111508.935 5  23369355.924       -2446.730
 -17265929.534 8 -13300371.468 9  21090020.512         427.851
  -5784140.445 6  -4529809.076 5  24244026.432        1493.195
 -10685817.474 7 -13261480.649 8  21326168.832        1558.533
 93  5  6  6  5 30.0020000  0  7 28 23 26 21 17 22  3                0.002116990
  -4329724.826 6  -3377789.897 5  24491587.933       -3233.664
 -16941842.212 8 -13208439.764 9  21271077.789        -574.781
 -10044736.009 7  -7836097.162 6  23067754.143        1492.902
  -9998607.306 6  -7168620.632 5  23355408.667       -2439.389
 -17252974.148 8 -13290276.368 9  21092485.877         435.720
  -5739147.170 6  -4494749.396 5  24252588.055        1506.488
 -10638785.186 8 -13224832.146 8  21335118.745        1576.744
 93  5  6  6  6  0.0020000  0  7 28 23 26 21 17 22  3                0.002121020
  -4426639.361 6  -3453307.685 5  24473146.496       -3227.126
 -16958894.023 8 -13221726.856 9  21267832.888        -561.706
  -9999690.564 7  -7800996.799 6  23076325.853        1510.365
 -10071678.106 6  -7225558.872 5  23341504.161       -2431.879
 -17239789.557 8 -13280002.660 9  21094994.800         443.306
  -5693756.266 6  -4459379.902 5  24261225.852        1519.581
 -10591204.226 7 -13187756.085 8  21344173.196        1595.185
 93  5  6  6  6 30.0020000  0  7 28 23 26 21 17 22  3                0.002125070
  -4523356.587 5  -3528671.691 5  24454742.341       -3220.717
 -16975549.004 8 -13234704.757 9  21264663.377        -548.530
  -9954109.427 7  -7765479.020 6  23084999.918        1528.645
 -10144526.788 6  -7282324.044 6  23327641.303       -2424.561
 -17226379.841 8 -13269553.532 9  21097546.873         450.784
  -5647987.255 6  -4423715.770 5  24269935.261        1531.825
 -10543075.544 7 -13150253.232 8  21353331.765        1613.227
 93  5  6  6  7  0.0020000  0  7 28 23 26 21 17 22  3                0.002129120
  -4619884.520 6  -3603888.192 5  24436373.149       -3214.535
 -16991798.057 8 -13247366.329 9  21261571.351        -534.729
  -9907963.208 7  -7729520.918 6  23093781.027        1547.493
 -10217148.179 6  -7338912.117 6  23313821.836       -2416.937
 -17212740.082 8 -13258925.141 9  21100142.417         458.520
  -5601848.086 6  -4387763.207 5  24278715.593        1544.267
 -10494399.925 7 -13112324.190 8  21362594.514        1631.560
 93  5  6  6  7 30.0020000  0  7 28 23 26 21 17 22  3                0.002133170
  -4716228.863 6  -3678961.657 5  24418039.040       -3208.492
 -17007627.071 8 -13259700.611 9  21258559.176        -520.493
  -9861268.430 7  -7693135.410 6  23102666.788        1565.590
 -10289535.189 6  -7395317.545 6  23300046.904       -2408.933
 -17198868.122 8 -13248115.828 9  21102782.037         466.569
  -5555333.244 6  -4351517.912 5  24287567.446        1556.879
 -10445176.097 7 -13073967.989 8  21371961.388        1649.936
 93  5  6  6  8  0.0020000  0  7 28 23 26 21 17 22  3                0.002137200
  -4812397.375 6  -3753898.123 5  24399739.080       -3202.261
 -17023033.769 8 -13271705.812 9  21255627.385        -506.322
  -9814041.102 6  -7656334.882 6  23111654.186        1583.135
 -10361688.178 6  -7451540.644 6  23286316.947       -2401.039
 -17184739.162 8 -13237106.260 9  21105470.787         475.657
  -5508434.467 6  -4314973.435 5  24296492.516        1569.988
 -10395403.637 7 -13035184.256 8  21381432.703        1668.343
 93  5  6  6  8 30.0020000  0  7 28 23 26 21 17 22  3                0.002141200
  -4908384.281 6  -3828693.082 5  24381473.087       -3196.858
 -17038024.626 8 -13283386.987 9  21252774.890        -493.019
  -9766294.882 7  -7619130.066 6  23120739.784        1599.905
 -10433606.446 6  -7507580.826 6  23272631.354       -2393.376
 -17170347.687 8 -13225892.111 9  21108209.223         483.933
  -5461145.576 6  -4278125.013 5  24305491.195        1582.801
 -10345082.206 7 -12995972.752 8  21391008.594        1686.334
 93  5  6  6  9  0.0020000  0  7 28 23 26 21 17 22  3                0.002145170
  -5004211.543 6  -3903363.630 5  24363237.252       -3191.304
 -17052622.834 8 -13294762.185 9  21249996.863        -480.153
  -9718064.848 6  -7581548.183 6  23129917.543        1615.363
 -10505285.106 6  -7563434.289 6  23258991.244       -2385.132
 -17155706.411 8 -13214483.324 9  21110995.351         492.289
  -5413464.911 6  -4240971.270 5  24314563.625        1596.021
 -10294217.856 7 -12956338.204 8  21400687.722        1704.502
 93  5  6  6  9 30.0020000  0  7 28 23 26 21 17 22  3                0.002149120
  -5099854.627 6  -3977890.648 5  24345037.123       -3184.817
 -17066839.374 8 -13305839.992 9  21247291.376        -467.652
  -9669363.441 7  -7543599.058 6  23139184.985        1631.694
 -10576707.442 6  -7619088.050 6  23245400.120       -2376.313
 -17140804.608 8 -13202871.540 9  21113830.969         501.259
  -5365382.668 6  -4203504.595 5  24323713.351        1609.498
 -10242803.316 7 -12916274.956 8  21410471.648        1722.892
 93  5  6  6 10  0.0020000  0  7 28 23 26 21 17 22  3                0.002153080
  -5195295.346 6  -4052260.012 5  24326875.865       -3177.699
 -17080683.987 8 -13316627.990 9  21244656.770        -455.146
  -9620159.557 7  -7505258.365 6  23148548.353        1648.718
 -10647865.399 6  -7674535.797 6  23231859.258       -2367.268
 -17125639.135 8 -13191054.291 9  21116716.830         509.686
  -5316896.696 6  -4165723.361 5  24332939.836        1622.944
 -10190835.397 7 -12875780.506 8  21420360.893        1741.511
 93  5  6  6 10 30.0020000  0  7 28 23 26 21 17 22  3                0.002157060
  -5290524.497 6  -4126464.470 5  24308754.671       -3170.756
 -17094161.075 8 -13327129.591 9  21242092.256        -443.298
  -9570441.464 7  -7466517.000 6  23158009.613        1665.929
 -10718750.996 6  -7729771.283 6  23218369.998       -2358.416
 -17110234.933 8 -13179051.014 9  21119648.252         517.566
  -5268027.257 6  -4127643.320 5  24342240.007        1635.030
 -10138313.333 7 -12834854.240 8  21430355.643        1759.790
 93  5  6  6 11  0.0020000  0  7 28 23 26 21 17 22  3                0.002161050
  -5385537.287 6  -4200500.336 5  24290673.996       -3163.324
 -17107279.791 8 -13337351.959 9  21239595.913        -431.376
  -9520211.622 6  -7427376.843 6  23167567.926        1682.737
 -10789375.025 6  -7784802.993 6  23204930.762       -2350.213
 -17094582.497 8 -13166854.307 9  21122626.721         525.799
  -5218804.301 6  -4089287.798 5  24351607.042        1646.275
 -10085242.016 7 -12793499.988 8  21440454.652        1777.895
 93  5  6  6 11 30.0020000  0  7 28 23 26 21 17 22  3                0.002165040
  -5480324.691 6  -4274360.602 5  24272636.004       -3155.846
 -17120036.358 8 -13347292.125 9  21237168.414        -418.972
  -9469465.241 6  -7387834.240 6  23177224.512        1700.464
 -10859765.168 6  -7839652.420 6  23191536.023       -2342.436
 -17078683.573 8 -13154465.538 9  21125652.164         534.164
  -5169241.826 6  -4050667.725 5  24361038.622        1658.048
 -10031630.082 7 -12751724.462 8  21450656.600        1796.084
 93  5  6  6 12  0.0020000  0  7 28 23 26 21 17 22  3                0.002169020
  -5574892.878 6  -4348050.032 5  24254640.371       -3148.682
 -17132413.291 8 -13356936.470 9  21234813.155        -405.955
  -9418194.764 6  -7347883.213 6  23186980.827        1717.476
 -10929931.722 6  -7894327.613 6  23178183.657       -2335.274
 -17062532.595 8 -13141880.361 9  21128725.478         542.789
  -5119324.809 5  -4011771.404 5  24370537.617        1669.887
  -9977471.409 7 -12709522.932 8  21460962.694        1814.396
 93  5  6  6 12 30.0020000  0  7 28 23 26 21 17 22  3                0.002172960
  -5669246.130 6  -4421572.000 5  24236686.221       -3141.395
 -17144395.543 8 -13366273.285 9  21232533.003        -392.710
  -9366421.578 6  -7307540.486 6  23196832.975        1734.178
 -10999884.049 6  -7948835.902 6  23164872.297       -2328.123
 -17046100.442 8 -13129076.096 9  21131852.421         553.010
  -5069045.654 5  -3972592.878 5  24380104.496        1682.417
  -9922761.682 7 -12666891.987 8  21471373.568        1832.849
 93  5  6  6 13  0.0020000  0  7 28 23 26 21 17 22  3                0.002176860
  -5763388.629 6  -4494929.744 5  24218771.064       -3134.443
 -17155975.567 8 -13375296.662 9  21230329.340        -379.087
  -9314158.925 6  -7266816.332 6  23206778.243        1750.291
 -11069620.624 6  -8003176.065 6  23151601.540       -2320.660
 -17029359.472 8 -13116031.168 9  21135037.999         563.167
  -5018371.569 5  -3933106.575 5  24389747.669        1696.251
  -9867497.642 7 -12623829.103 8  21481890.097        1851.430
 93  5  6  6 13 30.0020000  0  7 28 23 26 21 17 22  3                0.002180750
  -5857321.374 6  -4568124.035 5  24200896.318       -3127.623
 -17167159.071 8 -13384011.061 9  21228201.074        -366.411
  -9261408.662 6  -7225712.242 6  23216816.124        1766.497
 -11139128.580 6  -8057338.079 5  23138374.994       -2312.749
 -17012319.179 8 -13102753.021 9  21138280.789         572.989
  -4967269.754 5  -3893287.012 5  24399472.435        1710.605
  -9811680.227 8 -12580335.026 7  21492511.754        1869.726
 93  5  6  6 14  0.0020000  0  7 28 23 26 21 17 22  3                0.002184640
  -5951044.506 6  -4641155.032 5  24183061.434       -3120.482
 -17177966.797 8 -13392432.665 9  21226144.377        -353.988
  -9208174.988 7  -7184231.486 6  23226946.128        1782.508
 -11208386.049 6  -8111304.918 6  23125194.951       -2304.200
 -16994983.714 8 -13089244.885 9  21141579.558         582.747
  -4915750.945 5  -3853142.534 5  24409276.260        1723.965
  -9755312.840 7 -12536412.412 7  21503238.357        1887.947
 93  5  6  6 14 30.0020000  0  7 28 23 26 21 17 22  3                0.002188530
  -6044543.323 6  -4714011.199 5  24165269.276       -3112.840
 -17188406.166 8 -13400567.238 9  21224157.752        -342.133
  -9154449.652 7  -7142367.577 6  23237169.873        1799.133
 -11277376.160 6  -8165063.408 6  23112066.917       -2295.351
 -16977366.427 8 -13075517.121 9  21144932.008         591.478
  -4863837.216 5  -3812690.284 5  24419154.700        1736.731
  -9698396.309 7 -12492061.887 7  21514069.209        1906.046
 93  5  6  6 15  0.0020000  0  7 28 23 26 21 17 22  3                0.002192450
  -6137808.939 6  -4786685.674 5  24147521.328       -3104.829
 -17198484.824 8 -13408420.728 9  21222239.868        -329.922
  -9100214.980 7  -7100106.817 6  23247490.649        1816.536
 -11346094.666 6  -8218610.269 6  23098990.353       -2285.990
 -16959496.385 8 -13061592.419 9  21148332.726         599.668
  -4811544.666 6  -3771942.846 5  24429105.631        1749.200
  -9640934.464 7 -12447286.441 8  21525003.799        1924.394
 93  5  6  6 15 30.0020000  0  7 28 23 26 21 17 22  3                0.002196410
  -6230830.135 6  -4859169.703 5  24129819.782       -3096.617
 -17208205.653 8 -13415995.393 9  21220389.958        -317.961
  -9045448.072 7  -7057431.315 6  23257912.335        1834.582
 -11414538.552 6  -8271943.135 6  23085965.869       -2276.898
 -16941383.878 8 -13047478.780 9  21151779.509         607.919
  -4758893.438 6  -3730915.942 5  24439124.454        1760.652
  -9582926.683 7 -12402085.614 8  21536042.177        1942.638
 93  5  6  6 16  0.0020000  0  7 28 23 26 21 17 22  3                0.002200390
  -6323611.429 6  -4931466.731 5  24112163.668       -3088.716
 -17217557.479 8 -13423282.520 9  21218610.351        -305.208
  -8990143.932 7  -7014337.196 6  23268436.578        1852.395
 -11482721.667 6  -8325072.809 6  23072991.119       -2268.610
 -16923019.647 8 -13033168.996 9  21155273.969         616.451
  -4705908.802 6  -3689629.216 5  24449207.846        1771.869
  -9524371.732 7 -12356458.399 8  21547184.992        1960.931
 93  5  6  6 16 30.0020000  0  7 28 23 26 21 17 22  3                0.002204370
  -6416161.679 6  -5003583.795 5  24094551.386       -3081.165
 -17226526.836 8 -13430271.604 9  21216903.784        -292.545
  -8934317.007 7  -6970835.698 6  23279060.112        1869.480
 -11550667.603 6  -8378017.661 6  23060061.592       -2260.887
 -16904402.999 8 -13018662.517 9  21158816.676         625.078
  -4652585.343 5  -3648078.493 5  24459354.739        1783.429
  -9465273.217 7 -12310407.621 8  21558431.039        1978.957
 93  5  6  6 17  0.0020000  0  7 28 23 26 21 17 22  3                0.002208340
  -6508485.298 6  -5075524.261 5  24076983.032       -3074.001
 -17235114.697 8 -13436963.445 9  21215269.654        -280.162
  -8877986.450 7  -6926941.761 6  23289779.399        1885.666
 -11618371.353 6  -8430773.795 6  23047177.492       -2252.857
 -16885513.221 8 -13003943.212 9  21162411.278         634.096
  -4598905.945 5  -3606250.389 5  24469569.530        1795.054
  -9405627.261 7 -12263930.290 8  21569781.362        1997.045
 93  5  6  6 17 30.0020000  0  7 28 23 26 21 17 22  3                0.002212310
  -6600586.050 6  -5147291.031 5  24059456.884       -3066.203
 -17243327.413 8 -13443362.953 9  21213706.738        -267.522
  -8821169.909 7  -6882669.117 6  23300591.315        1901.684
 -11685831.414 6  -8483340.034 6  23034339.972       -2244.652
 -16866339.860 8 -12989002.934 9  21166060.111         643.986
  -4544872.521 6  -3564146.476 5  24479852.371        1806.922
  -9345432.525 7 -12217025.330 8  21581235.822        2015.536
 93  5  6  6 18  0.0020000  0  7 28 23 26 21 17 22  3                0.002216240
  -6692459.133 6  -5218880.397 5  24041974.567       -3058.385
 -17251165.678 8 -13449470.696 9  21212215.239        -254.931
  -8763895.015 7  -6838039.351 6  23311490.231        1916.759
 -11753049.719 6  -8535717.908 6  23021548.634       -2236.310
 -16846882.117 8 -12973841.049 9  21169762.719         653.296
  -4490494.002 6  -3521773.599 5  24490200.538        1818.465
  -9284691.080 7 -12169694.354 8  21592794.750        2033.767
 93  5  6  6 18 30.0020000  0  7 28 23 26 21 17 22  3                0.002220150
  -6784090.486 6  -5290281.448 5  24024537.930       -3050.477
 -17258636.736 8 -13455292.276 9  21210793.512        -243.325
  -8706172.018 6  -6793060.382 6  23322474.636        1931.329
 -11820006.115 6  -8587891.679 6  23008807.135       -2227.552
 -16827152.600 8 -12958467.410 9  21173517.199         661.791
  -4435772.197 5  -3479133.246 5  24500613.749        1829.500
  -9223405.548 7 -12121939.412 7  21604456.996        2051.618
 93  5  6  6 19  0.0020000  0  7 28 23 26 21 17 22  3                0.002224040
  -6875478.051 6  -5361492.514 5  24007147.829       -3041.953
 -17265756.165 8 -13460839.867 9  21209438.621        -231.327
  -8648004.882 6  -6747735.346 6  23333543.404        1946.667
 -11886698.470 6  -8639859.715 6  22996116.240       -2218.762
 -16807171.345 8 -12942897.596 9  21177319.437         670.155
  -4380723.240 5  -3436237.984 5  24511088.629        1840.234
  -9161582.622 7 -12073765.731 7  21616221.641        2069.682
 93  5  6  6 19 30.0020000  0  7 28 23 26 21 17 22  3                0.002227920
  -6966605.779 6  -5432501.095 5  23989806.780       -3032.988
 -17272516.751 8 -13466107.851 9  21208152.062        -219.297
  -8589375.138 7  -6702049.825 6  23344700.130        1962.117
 -11953138.614 6  -8691631.215 6  22983473.293       -2210.443
 -16786944.538 8 -12927136.453 9  21181168.423         678.382
  -4325358.597 5  -3393096.720 5  24521624.389        1850.826
  -9099219.873 7 -12025171.409 7  21628088.786        2087.719
 93  5  6  6 20  0.0020000  0  7 28 23 26 21 17 22  3                0.002231790
  -7057467.143 6  -5503302.138 5  23972516.276       -3024.316
 -17278916.644 8 -13471094.754 9  21206934.146        -207.228
  -8530277.782 6  -6655999.945 6  23355946.025        1978.032
 -12019327.464 6  -8743206.915 6  22970878.333       -2202.106
 -16766480.471 8 -12911190.416 9  21185062.576         685.954
  -4269679.993 5  -3349710.776 5  24532219.928        1861.311
  -9036318.262 7 -11976157.179 7  21640058.540        2105.592
 93  5  6  6 20 30.0020000  0  7 28 23 26 21 17 22  3                0.002235670
  -7148061.290 6  -5573894.967 5  23955276.438       -3015.455
 -17284950.049 8 -13475796.114 9  21205785.930        -194.971
  -8470685.101 6  -6609564.102 6  23367286.365        1994.889
 -12085264.443 6  -8794586.350 6  22958330.745       -2193.768
 -16745778.055 8 -12895058.672 9  21189002.091         694.190
  -4213674.433 5  -3306070.103 5  24542876.631        1872.502
  -8972872.663 7 -11926719.079 7  21652131.881        2123.852
 93  5  6  6 21  0.0020000  0  7 28 23 26 21 17 22  3                0.002239570
  -7238394.897 6  -5644284.754 5  23938086.228       -3006.773
 -17290613.825 8 -13480209.409 9  21204708.047        -182.806
  -8410583.105 7  -6562731.377 6  23378723.268        2011.931
 -12150960.144 6  -8845777.755 6  22945829.261       -2185.916
 -16724825.087 8 -12878731.675 9  21192989.279         702.727
  -4157334.731 5  -3262169.058 5  24553598.007        1883.303
  -8908882.844 7 -11876856.896 7  21664308.652        2141.840
 93  5  6  6 21 30.0020000  0  7 28 23 26 21 17 22  3                0.002243470
  -7328467.048 6  -5714470.839 5  23920946.291       -2997.910
 -17295918.295 8 -13484342.762 9  21203698.554        -170.700
  -8349974.081 6  -6515503.560 6  23390256.762        2028.747
 -12216410.584 6  -8896778.083 6  22933374.476       -2177.124
 -16703607.864 8 -12862198.786 9  21197026.724         711.979
  -4100673.492 5  -3218017.450 5  24564380.385        1894.293
  -8844356.303 7 -11826576.531 7  21676587.760        2159.831
 93  5  6  6 22  0.0020000  0  7 28 23 26 21 17 22  3                0.002247390
  -7418275.138 6  -5784451.143 5  23903856.194       -2989.197
 -17300856.052 8 -13488190.347 9  21202758.856        -158.345
  -8288860.763 7  -6467882.817 6  23401886.360        2045.455
 -12281589.524 6  -8947566.835 6  22920970.891       -2167.912
 -16682110.795 8 -12845447.828 9  21201117.471         721.314
  -4043679.745 5  -3173606.767 5  24575224.975        1905.438
  -8779288.879 7 -11775874.648 7  21688969.818        2177.823
 93  5  6  6 22 30.0020000  0  7 28 23 26 21 17 22  3                0.002251320
  -7507807.699 6  -5854216.728 5  23886818.952       -2979.872
 -17305417.920 8 -13491745.042 9  21201890.937        -145.983
  -8227250.137 7  -6419874.534 6  23413610.604        2061.489
 -12346483.963 6  -8998133.906 6  22908621.854       -2158.578
 -16660318.667 8 -12828466.944 9  21205264.491         731.261
  -3986342.333 5  -3128928.274 5  24586136.104        1916.755
  -8713676.336 7 -11724748.021 7  21701455.505        2195.913
 93  5  6  6 23  0.0020000  0  7 28 23 26 21 17 22  3                0.002255230
  -7597062.277 6  -5923765.706 5  23869833.975       -2970.399
 -17309615.411 8 -13495015.800 9  21201092.338        -133.965
  -8165177.849 6  -6371506.542 6  23425422.578        2076.480
 -12411102.996 6  -9048486.364 6  22896325.485       -2149.442
 -16638236.513 8 -12811260.075 9  21209466.541         740.834
  -3928675.922 5  -3083993.464 5  24597109.485        1927.457
  -8647525.513 7 -11673201.959 7  21714043.561        2213.851
 93  5  6  6 23 30.0020000  0  7 28 23 26 21 17 22  3                0.002259130
  -7686035.054 6  -5993095.127 5  23852902.882       -2961.403
 -17313448.892 8 -13498002.914 9  21200362.864        -121.707
  -8102663.030 6  -6322793.700 6  23437318.824        2090.932
 -12475446.287 6  -9098623.967 6  22884081.521       -2140.488
 -16615867.174 8 -12793829.403 9  21213723.255         750.139
  -3870688.137 5  -3038808.212 5  24608144.360        1938.279
  -8580831.755 7 -11621232.810 7  21726734.913        2231.944
 93  5  6  6 24  0.0020000  0  7 28 23 26 21 17 22  3                0.002263000
  -7774742.956 6  -6062218.134 5  23836022.226       -2952.466
 -17316912.894 8 -13500702.125 9  21199703.582        -109.175
  -8039715.822 6  -6273743.940 6  23449297.239        2105.692
 -12539539.420 6  -9148566.623 6  22871884.783       -2132.360
 -16593229.399 8 -12776189.581 9  21218031.123         759.094
  -3812373.786 5  -2993368.484 5  24619240.621        1949.598
  -8513600.474 7 -11568844.845 7  21739528.749        2250.000
 93  5  6  6 24 30.0020000  0  7 28 23 26 21 17 22  3                0.002266870
  -7863188.446 6  -6131136.667 5  23819191.214       -2944.124
 -17320007.227 8 -13503113.277 9  21199114.768         -97.304
  -7976326.205 6  -6224349.440 6  23461359.596        2120.194
 -12603395.293 6  -9198324.422 6  22859733.167       -2124.893
 -16570327.868 8 -12758344.228 9  21222389.136         767.488
  -3753722.103 5  -2947665.931 5  24630401.666        1960.346
  -8445830.687 7 -11516037.233 7  21752424.780        2267.581
 93  5  6  6 25  0.0020000  0  7 28 23 26 21 17 22  3                0.002270730
  -7951382.682 6  -6199859.406 5  23802408.795       -2935.641
 -17322738.065 8 -13505241.206 9  21198595.269         -84.996
  -7912485.834 6  -6174603.734 6  23473507.949        2135.703
 -12667012.807 6  -9247896.496 6  22847627.247       -2116.331
 -16547166.860 8 -12740296.692 9  21226796.373         776.409
  -3694744.585 5  -2901709.470 5  24641625.090        1971.257
  -8377527.877 7 -11462814.284 7  21765422.102        2285.508
 93  5  6  6 25 30.0020000  0  7 28 23 26 21 17 22  3                0.002274600
  -8039321.575 6  -6268383.157 5  23785674.639       -2926.966
 -17325101.056 8 -13507082.474 9  21198145.779         -72.710
  -7848170.718 6  -6124488.049 6  23485746.775        2151.726
 -12730372.133 6  -9297267.379 6  22835570.434       -2107.868
 -16523740.484 8 -12722042.366 9  21231254.278         785.212
  -3635435.869 5  -2855494.891 5  24652911.826        1982.536
  -8308690.243 7 -11409174.585 7  21778521.632        2303.243
 93  5  6  6 26  0.0020000  0  7 28 23 26 21 17 22  3                0.002278490
  -8126984.162 6  -6336691.627 5  23768993.086       -2917.101
 -17327097.220 8 -13508637.920 9  21197765.822         -60.448
  -7783372.024 6  -6073995.576 6  23498077.492        2168.033
 -12793476.629 6  -9346439.695 6  22823561.976       -2098.993
 -16500043.908 8 -12703577.510 9  21235763.527         794.536
  -3575788.488 5  -2809016.475 5  24664263.226        1993.709
  -8239319.845 7 -11355119.747 7  21791722.624        2321.156
 93  5  6  6 26 30.0020000  0  7 28 23 26 21 17 22  3                0.002282400
  -8214342.884 6  -6404763.326 5  23752369.627       -2906.847
 -17328729.834 8 -13509910.085 9  21197455.089         -48.610
  -7718093.156 6  -6023128.921 6  23510499.619        2183.607
 -12856306.010 7  -9395397.624 6  22811605.936       -2089.917
 -16476069.590 8 -12684896.224 9  21240325.807         803.587
  -3515826.842 5  -2762293.130 5  24675673.767        2003.391
  -8169413.798 7 -11300647.522 7  21805025.125        2338.860
 93  5  6  6 27  0.0020000  0  7 28 23 26 21 17 22  3                0.002286290
  -8301387.350 6  -6472590.131 5  23735805.991       -2896.083
 -17330013.369 8 -13510910.217 9  21197210.826         -36.948
  -7652354.396 6  -5971903.917 6  23523009.449        2198.933
 -12918869.032 7  -9444148.018 6  22799700.812       -2081.098
 -16451822.784 8 -12666002.601 9  21244939.855         812.836
  -3455588.214 5  -2715353.981 5  24687136.603        2012.727
  -8098977.088 7 -11245761.756 7  21818428.876        2356.724
 93  5  6  6 27 30.0020000  0  7 28 23 26 21 17 22  3                0.002290180
  -8388099.594 6  -6540158.047 5  23719305.195       -2884.983
 -17330941.374 8 -13511633.331 9  21197034.269         -25.179
  -7586158.971 6  -5920323.064 6  23535606.188        2213.746
 -12981175.321 7  -9492698.353 6  22787844.205       -2072.907
 -16427300.495 8 -12646894.332 9  21249606.184         821.796
  -3395064.391 5  -2668192.564 5  24698654.006        2022.048
  -8028001.054 7 -11190455.790 7  21831935.176        2374.523
 93  5  6  6 28  0.0020000  0  7 28 23 26 21 17 22  3                0.002294040
  -8474489.654 6  -6607474.950 5  23702865.279       -2874.443
 -17331518.786 8 -13512083.253 9  21196924.385         -13.296
  -7519532.231 6  -5868406.128 6  23548284.653        2228.059
 -13043236.836 7  -9541057.945 6  22776034.389       -2064.300
 -16402509.197 8 -12627576.433 9  21254323.798         830.862
  -3334276.953 5  -2620825.796 5  24710221.846        2030.516
  -7956496.469 7 -11134737.957 7  21845542.126        2392.166
 93  5  6  6 28 30.0020000  0  7 28 23 26 21 17 22  3                0.002297880
  -8560563.622 6  -6674545.524 5  23686485.708       -2864.037
 -17331738.570 8 -13512254.506 9  21196882.514          -1.577
  -7452470.821 6  -5816150.497 6  23561045.987        2242.532
 -13105025.145 7  -9589204.665 6  22764276.430       -2055.194
 -16377448.465 8 -12608048.600 9  21259092.696         839.685
  -3273225.387 5  -2573253.202 5  24721838.774        2039.545
  -7884455.657 7 -11078602.269 7  21859251.025        2410.157
 93  5  6  6 29  0.0020000  0  7 28 23 26 21 17 22  3                0.002301710
  -8646337.284 6  -6741382.110 6  23670163.569       -2854.155
 -17331619.574 8 -13512161.766 9  21196905.177           9.735
  -7384978.243 6  -5763558.893 6  23573889.475        2257.127
 -13166550.086 7  -9637146.159 6  22752568.516       -2046.263
 -16352127.079 8 -12588317.647 9  21263911.230         848.579
  -3211891.908 5  -2525460.913 5  24733509.919        2049.676
  -7811885.465 7 -11022054.072 7  21873060.675        2427.792
 93  5  6  6 29 30.0020000  0  7 28 23 26 21 17 22  3                0.002305550
  -8731817.420 6  -6807989.964 6  23653896.896       -2844.231
 -17331148.703 8 -13511794.853 9  21196994.836          21.910
  -7317046.781 6  -5710625.302 6  23586816.459        2272.038
 -13227799.613 7  -9684873.057 6  22740913.015       -2036.670
 -16326533.343 8 -12568374.492 9  21268781.667         858.082
  -3150249.619 5  -2477428.013 5  24745240.137        2059.998
  -7738787.293 7 -10965094.498 7  21886971.075        2445.495
 93  5  6  6 30  0.0020000  0  7 28 23 26 21 17 22  3                0.002309400
  -8816998.011 6  -6874364.433 6  23637687.468       -2834.457
 -17330317.530 8 -13511147.180 9  21197153.016          33.389
  -7248662.113 6  -5657338.562 6  23599829.577        2286.912
 -13288761.514 7  -9732375.828 6  22729312.014       -2027.471
 -16300645.773 8 -12548202.356 9  21273707.878         867.709
  -3088297.532 5  -2429153.671 5  24757030.173        2070.094
  -7665156.766 7 -10907720.087 7  21900982.306        2462.997
 93  5  6  6 30 30.0020000  0  7 28 23 26 21 17 22  3                0.002313260
  -8901870.689 6  -6940498.946 6  23621537.227       -2823.901
 -17329143.773 8 -13510232.571 9  21197376.244          44.731
  -7179827.474 6  -5603701.183 6  23612928.219        2301.899
 -13349447.119 7  -9779663.288 6  22717763.887       -2018.488
 -16274463.611 8 -12527800.677 9  21278690.129         877.841
  -3026028.100 5  -2380632.057 5  24768879.120        2080.891
  -7590995.099 7 -10849931.793 7  21915094.777        2480.780
 93  5  6  6 31  0.0020000  0  7 28 23 26 21 17 22  3                0.002317130
  -8986433.391 6  -7006391.927 6  23605445.047       -2813.639
 -17327629.595 8 -13509052.685 9  21197664.521          56.380
  -7110547.769 6  -5549717.029 6  23626111.762        2316.736
 -13409873.461 7  -9826748.739 6  22706265.300       -2009.858
 -16247970.434 8 -12507156.646 9  21283731.569         888.406
  -2963447.666 5  -2331868.133 5  24780788.206        2090.939
  -7516305.048 7 -10791731.798 7  21929307.606        2498.355
 93  5  6  6 31 30.0020000  0  7 28 23 26 21 17 22  3                0.002321000
  -9070691.210 6  -7072047.349 6  23589411.531       -2803.177
 -17325763.946 8 -13507598.918 9  21198019.638          68.054
  -7040832.980 6  -5495393.824 6  23639378.180        2331.181
 -13470041.364 7  -9873632.787 6  22694816.065       -2001.118
 -16221167.094 8 -12486270.925 9  21288832.308         898.567
  -2900582.692 6  -2282882.448 5  24792751.065        2100.141
  -7441090.930 7 -10733123.429 7  21943620.496        2515.913
 93  5  6  6 32  0.0020000  0  7 28 23 26 21 17 22  3                0.002324860
  -9154617.292 6  -7137444.264 6  23573441.336       -2791.912
 -17323555.591 8 -13505878.113 9  21198439.926          79.185
  -6970682.312 6  -5440730.935 6  23652727.389        2345.461
 -13529940.026 7  -9920307.047 6  22683417.517       -1992.023
 -16194062.503 8 -12465150.474 9  21293990.225         908.212
  -2837443.956 5  -2233683.449 5  24804765.280        2109.184
  -7365342.780 7 -10674098.936 7  21958035.118        2533.660
 93  5  6  6 32 30.0020000  0  7 28 23 26 21 17 22  3                0.002328720
  -9238217.010 6  -7202586.885 6  23557532.630       -2781.338
 -17321014.688 8 -13503898.160 9  21198923.371          90.431
  -6900110.310 6  -5385739.774 6  23666156.970        2359.452
 -13589568.950 7  -9966771.115 6  22672070.253       -1983.240
 -16166689.718 8 -12443821.034 9  21299199.001         916.555
  -2774042.256 5  -2184279.583 5  24816830.358        2117.539
  -7289070.721 7 -10614666.190 7  21972549.161        2550.877
 93  5  6  6 33  0.0020000  0  7 28 23 26 21 17 22  3                0.002332570
  -9321481.583 6  -7267468.374 6  23541687.380       -2769.779
 -17318108.850 8 -13501633.873 9  21199476.129         103.093
  -6829095.825 6  -5330403.823 6  23679670.556        2374.719
 -13648916.074 7 -10013015.624 6  22660776.590       -1973.458
 -16139056.160 8 -12422288.397 9  21304457.370         925.332
  -2710379.928 5  -2134672.598 5  24828944.183        2126.563
  -7212268.858 7 -10554820.602 7  21987164.093        2568.751
 93  5  6  6 33 30.0020000  0  7 28 23 26 21 17 22  3                0.002336430
  -9404408.216 6  -7332086.502 6  23525906.914       -2758.308
 -17314838.578 8 -13499085.592 9  21200098.407         115.086
  -6757629.522 6  -5274715.816 6  23693270.061        2389.846
 -13707984.026 7 -10059042.558 6  22649536.501       -1964.252
 -16111177.194 8 -12400564.534 9  21309762.599         933.496
  -2646452.515 5  -2084859.048 5  24841109.480        2135.449
  -7134941.742 7 -10494565.731 7  22001879.106        2586.274
 93  5  6  6 34  0.0020000  0  7 28 23 26 21 17 22  3                0.002340300
  -9486991.534 6  -7396437.120 6  23510191.680       -2747.253
 -17311206.961 8 -13496255.758 9  21200789.261         127.162
  -6685710.857 6  -5218675.306 6  23706955.837        2404.798
 -13766780.219 7 -10104857.763 6  22638348.197       -1955.430
 -16083051.139 8 -12378648.133 9  21315114.722         941.734
  -2582262.633 5  -2034840.995 5  24853324.705        2143.930
  -7057094.518 7 -10433905.602 7  22016693.059        2603.428
 93  5  6  6 34 30.0020000  0  7 28 23 26 21 17 22  3                0.002344160
  -9569244.653 6  -7460530.437 6  23494539.002       -2736.394
 -17307199.291 8 -13493132.866 9  21201551.920         139.829
  -6613339.452 6  -5162282.004 6  23720728.062        2419.789
 -13825309.244 7 -10150464.770 6  22627210.257       -1946.717
 -16054661.862 8 -12356526.627 9  21320516.834         950.877
  -2517810.670 5  -1984618.746 5  24865589.832        2152.659
  -6978728.743 7 -10372841.385 7  22031605.406        2620.625
 93  5  6  6 35  0.0020000  0  7 28 23 26 21 17 22  3                0.002348020
  -9651169.797 6  -7524368.196 6  23478949.590       -2725.358
 -17302824.865 8 -13489724.222 9  21202384.382         151.636
  -6540522.772 6  -5105541.737 6  23734584.231        2434.555
 -13883583.588 7 -10195873.318 6  22616121.066       -1938.301
 -16025986.196 8 -12334181.960 9  21325973.686         960.793
  -2453104.581 5  -1934198.430 5  24877902.646        2161.157
  -6899846.986 7 -10311375.107 7  22046616.016        2637.887
 93  5  6  6 35 30.0020000  0  7 28 23 26 21 17 22  3                0.002351870
  -9732757.735 6  -7587943.206 6  23463423.961       -2713.929
 -17298100.108 8 -13486042.586 9  21203283.564         163.214
  -6467272.810 6  -5048463.871 6  23748522.788        2448.514
 -13941603.955 7 -10241083.966 6  22605080.208       -1929.828
 -15997005.846 8 -12311599.887 9  21331488.467         971.184
  -2388145.774 5  -1883581.237 5  24890264.237        2169.209
  -6820445.508 7 -10249503.892 7  22061725.496        2655.165
 93  5  6  6 36  0.0020000  0  7 28 23 26 21 17 22  3                0.002355710
  -9813999.090 6  -7651248.137 6  23447963.656       -2702.665
 -17293029.830 8 -13482091.712 9  21204248.417         174.252
  -6393607.126 6  -4991062.032 6  23762541.245        2462.022
 -13999362.057 7 -10286090.261 6  22594089.097       -1921.217
 -15967708.818 8 -12288771.041 9  21337063.598         981.453
  -2322939.549 5  -1832771.214 5  24902672.822        2177.455
  -6740523.427 7 -10187226.983 7  22076934.549        2672.243
 93  5  6  6 36 30.0020000  0  7 28 23 26 21 17 22  3                0.002359540
  -9894896.695 6  -7714285.196 6  23432569.449       -2690.571
 -17287636.106 8 -13477888.794 9  21205274.794         185.007
  -6319540.077 6  -4933347.452 6  23776635.539        2475.566
 -14056861.916 7 -10330895.323 6  22583147.702       -1912.339
 -15938103.441 8 -12265701.913 9  21342697.239         992.013
  -2257480.573 5  -1781764.214 5  24915129.127        2186.211
  -6660090.393 7 -10124551.952 7  22092240.581        2689.499
 93  5  6  6 37  0.0020000  0  7 28 23 26 21 17 22  3                0.002363380
  -9975428.236 6  -7777037.023 6  23417245.198       -2678.204
 -17281929.590 8 -13473442.149 9  21206360.762         195.318
  -6245072.111 6  -4875320.471 6  23790806.368        2488.864
 -14114101.420 7 -10375497.480 6  22572255.523       -1903.666
 -15908187.519 8 -12242390.803 9  21348390.197        1002.127
  -2191762.133 5  -1730555.105 5  24927634.086        2194.857
  -6579141.775 7 -10061475.147 7  22107644.498        2706.721
 93  5  6  6 37 30.0020000  0  7 28 23 26 21 17 22  3                0.002367230
 -10055580.915 6  -7839493.659 6  23401993.039       -2665.517
 -17275910.628 8 -13468752.057 9  21207506.080         205.832
  -6170210.896 6  -4816987.079 5  23805052.015        2501.726
 -14171069.221 7 -10419887.964 6  22561414.927       -1894.294
 -15877975.161 8 -12218848.725 9  21354139.427        1011.837
  -2125781.733 5  -1679141.839 5  24940190.042        2203.636
  -6497677.071 7  -9997996.207 7  22123146.764        2723.862
 93  5  6  6 38  0.0020000  0  7 28 23 26 21 17 22  3                0.002371090
 -10135366.656 6  -7901664.326 6  23386810.277       -2653.561
 -17269583.141 8 -13463821.522 9  21208710.146         215.978
  -6094967.610 6  -4758355.927 5  23819370.344        2514.519
 -14227759.552 7 -10464062.189 7  22550627.146       -1885.208
 -15847482.695 8 -12195088.341 9  21359941.830        1020.832
  -2059550.854 5  -1627533.386 5  24952793.949        2211.653
  -6415703.503 7  -9934120.718 7  22138745.735        2740.772
 93  5  6  6 38 30.0020000  0  7 28 23 26 21 17 22  3                0.002374940
 -10214782.557 6  -7963546.828 6  23371698.398       -2641.081
 -17262942.016 8 -13458646.635 9  21209973.881         226.672
  -6019333.095 6  -4699419.949 5  23833762.981        2527.571
 -14284181.148 7 -10508027.065 7  22539890.029       -1876.436
 -15816717.634 8 -12171115.585 9  21365796.258        1029.967
  -1993082.912 5  -1575740.237 5  24965442.802        2219.261
  -6333220.039 7  -9869847.960 7  22154441.909        2757.714
 93  5  6  6 39  0.0020000  0  7 28 23 26 21 17 22  3                0.002378780
 -10293826.542 6  -8025139.514 6  23356656.183       -2628.717
 -17255972.841 8 -13453216.095 9  21211300.254         237.904
  -5943305.425 6  -4640177.614 5  23848230.866        2540.791
 -14340335.174 7 -10551783.428 7  22529204.247       -1867.203
 -15785683.183 8 -12146932.900 9  21371702.047        1038.826
  -1926387.576 5  -1523769.852 5  24978134.503        2226.800
  -6250228.541 7  -9805179.272 7  22170234.804        2774.629
 93  5  6  6 39 30.0020000  0  7 28 23 26 21 17 22  3                0.002382610
 -10372500.829 6  -8086444.140 6  23341685.320       -2616.303
 -17248655.291 8 -13447514.094 9  21212692.678         249.900
  -5866875.043 6  -4580621.469 5  23862774.475        2554.587
 -14396201.655 7 -10595315.696 7  22518573.315       -1857.328
 -15754380.864 8 -12122541.485 9  21377658.994        1048.033
  -1859465.340 5  -1471622.694 5  24990869.519        2234.728
  -6166731.298 7  -9740116.526 7  22186123.977        2791.570
 93  5  6  6 40  0.0020000  0  7 28 23 26 21 17 22  3                0.002386440
 -10450800.861 6  -8147457.134 6  23326785.271       -2603.791
 -17240973.726 8 -13441528.453 9  21214154.576         262.025
  -5790026.364 6  -4520739.379 5  23877398.741        2568.515
 -14451779.790 7 -10638623.326 7  22507996.799       -1848.191
 -15722795.944 8 -12097929.863 9  21383669.464        1057.532
  -1792304.067 5  -1419289.314 5  25003649.518        2242.547
  -6082725.068 7  -9674657.156 7  22202109.840        2808.359
 93  5  6  6 40 30.0020000  0  7 28 23 26 21 17 22  3                0.002390270
 -10528716.286 6  -8208170.405 6  23311958.257       -2590.664
 -17232921.282 8 -13435253.809 9  21215686.986         274.708
  -5712760.035 6  -4460531.855 5  23892102.343        2582.428
 -14507080.510 7 -10681714.755 7  22497473.434       -1838.611
 -15690919.686 8 -12073091.219 9  21389735.184        1067.443
  -1724891.483 5  -1366760.053 5  25016476.814        2251.514
  -5998214.747 7  -9608805.004 7  22218191.368        2825.328
 93  5  6  6 41  0.0020000  0  7 28 23 26 21 17 22  3                0.002394120
 -10606247.705 6  -8268584.481 6  23297204.413       -2577.937
 -17224502.578 8 -13428693.780 9  21217289.006         286.649
  -5635082.093 6  -4400003.591 5  23906884.040        2596.214
 -14562094.506 7 -10724582.787 6  22487004.418       -1828.893
 -15658758.204 8 -12048030.336 9  21395855.397        1076.901
  -1657212.302 5  -1314023.058 5  25029356.979        2260.393
  -5913202.235 7  -9542561.529 7  22234368.896        2842.083
 93  5  6  6 41 30.0020000  0  7 28 23 26 21 17 22  3                0.002397970
 -10683394.534 7  -8328698.859 6  23282524.133       -2565.066
 -17215733.170 8 -13421860.467 9  21218957.679         298.017
  -5556997.551 6  -4339158.522 5  23921742.750        2609.565
 -14616826.295 7 -10767230.909 7  22476589.530       -1819.946
 -15626307.264 8 -12022743.887 9  21402030.542        1086.702
  -1589273.147 5  -1261083.479 5  25042284.869        2269.060
  -5827687.747 7  -9475926.886 7  22250641.673        2858.869
 93  5  6  6 42  0.0020000  0  7 28 23 26 21 17 22  3                0.002401840
 -10760152.554 6  -8388510.287 6  23267917.764       -2552.154
 -17206626.254 8 -13414764.158 9  21220690.641         309.143
  -5478513.906 6  -4278002.436 5  23936677.831        2622.735
 -14671300.993 7 -10809678.690 7  22466223.357       -1811.690
 -15593558.372 8 -11997225.276 9  21408262.468        1096.589
  -1521078.465 5  -1207944.789 5  25055262.221        2277.142
  -5741668.381 7  -9408898.870 7  22267010.698        2875.564
 93  5  6  6 42 30.0020000  0  7 28 23 26 21 17 22  3                0.002405720
 -10836527.705 7  -8448023.376 6  23253383.646       -2539.479
 -17197192.376 8 -13407413.076 9  21222485.730         319.716
  -5399633.977 6  -4216537.577 6  23951688.023        2636.047
 -14725527.666 7 -10851933.227 7  22455904.522       -1803.336
 -15560520.554 8 -11971481.535 9  21414549.347        1105.969
  -1452651.767 5  -1154625.317 5  25068283.082        2284.549
  -5655150.608 7  -9341482.461 7  22283474.591        2892.089
 93  5  6  6 43  0.0020000  0  7 28 23 26 21 17 22  3                0.002409610
 -10912519.758 7  -8507237.948 6  23238922.639       -2526.713
 -17187444.578 8 -13399817.385 9  21224340.554         330.068
  -5320343.004 6  -4154752.423 6  23966776.186        2649.748
 -14779495.485 7 -10893986.045 7  22445634.641       -1794.662
 -15527190.487 8 -11945510.056 9  21420891.767        1116.032
  -1384017.337 5  -1101143.971 5  25081343.598        2290.840
  -5568134.796 7  -9273677.977 7  22300033.158        2908.579
 93  5  6  6 43 30.0020000  0  7 28 23 26 21 17 22  3                0.002413500
 -10988124.747 7  -8566150.909 6  23224535.490       -2513.780
 -17177376.338 8 -13391971.986 9  21226256.549         340.995
  -5240645.069 6  -4092650.132 6  23981942.085        2663.275
 -14833200.534 7 -10935834.110 7  22435414.924       -1785.790
 -15493551.119 8 -11919297.560 9  21427292.964        1126.305
  -1315205.792 5  -1047524.652 5  25094437.980        2296.485
  -5480621.058 7  -9205485.499 7  22316686.578        2925.234
 93  5  6  6 44  0.0020000  0  7 28 23 26 21 17 22  3                0.002417370
 -11063346.427 7  -8624765.199 6  23210221.607       -2501.149
 -17166982.646 8 -13383873.008 9  21228234.229         351.731
  -5160547.629 6  -4030236.555 6  23997184.375        2676.298
 -14886634.436 7 -10977470.895 7  22425246.676       -1776.495
 -15459618.970 8 -11892856.939 9  21433750.014        1135.663
  -1246226.269 5   -993774.381 5  25107564.807        2302.031
  -5392616.224 7  -9136910.351 7  22333433.266        2941.406
 93  5  6  6 44 30.0020000  0  7 28 23 26 21 17 22  3                0.002421230
 -11138180.823 7  -8683077.707 6  23195980.937       -2487.884
 -17156261.880 8 -13375519.151 9  21230274.348         362.619
  -5080051.094 6  -3967511.986 6  24012502.389        2689.713
 -14939763.140 7 -11018869.864 7  22415136.446       -1765.632
 -15425397.870 8 -11866191.155 9  21440262.105        1145.455
  -1177071.782 5   -939887.838 5  25120723.747        2308.221
  -5304116.602 7  -9067949.644 7  22350274.406        2958.077
 93  5  6  6 45  0.0020000  0  7 28 23 26 21 17 22  3                0.002425070
 -11212622.249 6  -8741083.991 6  23181814.813       -2474.927
 -17145229.395 8 -13366922.401 9  21232373.862         372.932
  -4999175.121 6  -3904491.766 6  24027892.494        2701.793
 -14992575.337 7 -11060022.217 7  22405086.532       -1755.327
 -15390899.817 8 -11839309.548 9  21446826.891        1154.335
  -1107738.795 5   -885862.171 5  25133917.762        2314.095
  -5215124.349 7  -8998605.059 7  22367208.834        2974.380
 93  5  6  6 45 30.0020000  0  7 28 23 26 21 17 22  3                0.002428900
 -11286677.066 7  -8798789.027 6  23167722.570       -2462.075
 -17133884.159 8 -13358081.953 9  21234532.759         383.354
  -4917949.331 6  -3841198.948 6  24043349.437        2713.338
 -15045088.648 7 -11100941.648 7  22395093.799       -1745.669
 -15356144.064 8 -11812227.158 9  21453440.782        1162.741
  -1038211.774 5   -831685.282 5  25147148.067        2321.206
  -5125644.526 7  -8928880.542 7  22384236.465        2990.647
 93  5  6  6 46  0.0020000  0  7 28 23 26 21 17 22  3                0.002432740
 -11360342.807 7  -8856190.896 6  23153704.486       -2449.048
 -17122225.545 8 -13348997.317 9  21236751.313         393.703
  -4836366.305 6  -3777627.761 5  24058873.912        2725.340
 -15097311.636 7 -11141634.873 7  22385156.178       -1736.037
 -15321125.122 8 -11784939.679 9  21460104.658        1171.837
   -968460.223 5   -777333.446 5  25160421.633        2328.673
  -5035672.661 7  -8858772.621 6  22401357.652        3007.051
 93  5  6  6 46 30.0020000  0  7 28 23 26 21 17 22  3                0.002436570
 -11433607.205 7  -8913280.021 6  23139763.026       -2435.581
 -17110256.699 8 -13339670.929 9  21239028.938         403.986
  -4754421.678 6  -3713774.782 6  24074467.621        2737.323
 -15149255.417 7 -11182110.525 7  22375271.730       -1727.282
 -15285821.411 8 -11757430.295 9  21466822.827        1181.373
   -898496.176 5   -722816.059 5  25173735.037        2335.278
  -4945210.889 7  -8788282.955 6  22418571.885        3023.162
 93  5  6  6 47  0.0020000  0  7 28 23 26 21 17 22  3                0.002440420
 -11506470.915 7  -8970056.942 6  23125897.785       -2421.954
 -17097966.427 8 -13330094.087 9  21241367.837         415.604
  -4672115.536 6  -3649640.129 6  24090130.090        2749.905
 -15200951.140 7 -11222392.873 7  22365434.241       -1718.976
 -15250228.852 8 -11729695.837 9  21473595.877        1191.721
   -828331.421 5   -668142.262 5  25187087.531        2342.501
  -4854269.639 7  -8717419.673 6  22435877.585        3039.466
 93  5  6  6 47 30.0020000  0  7 28 23 26 21 17 22  3                0.002444260
 -11578931.561 7  -9026519.769 6  23112108.722       -2408.561
 -17085325.216 8 -13320243.782 9  21243773.432         427.256
  -4589437.037 6  -3585215.362 6  24105863.019        2762.399
 -15252402.698 7 -11262484.976 7  22355643.091       -1710.811
 -15214316.322 8 -11701712.045 9  21480429.718        1202.690
   -757953.647 5   -613302.454 5  25200479.948        2349.367
  -4762844.804 7  -8646179.549 6  22453275.041        3055.440
 93  5  6  6 48  0.0020000  0  7 28 23 26 21 17 22  3                0.002448100
 -11650978.703 7  -9082660.416 6  23098398.403       -2394.388
 -17072332.990 8 -13310119.969 9  21246245.582         439.080
  -4506374.033 6  -3520490.955 6  24121669.843        2775.150
 -15303592.630 7 -11302373.222 7  22345901.824       -1701.510
 -15178072.423 8 -11673470.062 9  21487326.774        1213.671
   -687375.970 5   -558306.911 5  25213910.893        2355.995
  -4670939.133 7  -8574564.802 6  22470764.203        3071.479
 93  5  6  6 48 30.0020000  0  7 28 23 26 21 17 22  3                0.002451950
 -11722590.002 7  -9138461.410 6  23084770.945       -2379.943
 -17058983.503 8 -13299717.767 9  21248785.901         450.790
  -4422928.887 6  -3455468.757 6  24137549.073        2787.700
 -15354490.318 7 -11342033.748 7  22336216.739       -1691.735
 -15141503.489 8 -11644974.781 9  21494285.377        1224.050
   -616587.063 5   -503146.753 5  25227381.394        2363.309
  -4578550.605 7  -8502573.753 6  22488345.122        3087.458
 93  5  6  6 49  0.0020000  0  7 28 23 26 21 17 22  3                0.002455800
 -11793772.785 7  -9193928.496 6  23071225.313       -2365.463
 -17045286.143 8 -13289044.482 9  21251392.296         462.360
  -4339115.125 6  -3390159.331 6  24153497.922        2799.991
 -15405085.666 7 -11381458.648 7  22326588.814       -1681.127
 -15104626.582 8 -11616239.548 9  21501302.929        1234.381
   -545576.128 5   -447813.622 5  25240894.535        2370.832
  -4485682.533 7  -8430209.052 6  22506017.338        3103.635
 93  5  6  6 49 30.0020000  0  7 28 23 26 21 17 22  3                0.002459660
 -11864518.309 7  -9249054.869 6  23057762.874       -2350.561
 -17031261.889 8 -13278116.490 9  21254061.030         472.754
  -4254942.410 6  -3324570.206 5  24169515.484        2811.951
 -15455360.738 7 -11420634.018 7  22317021.398       -1670.294
 -15067450.212 8 -11587270.944 9  21508377.330        1244.105
   -474353.586 5   -392315.555 5  25254447.570        2377.515
  -4392333.410 7  -8357469.489 6  22523781.202        3119.677
 93  5  6  6 50  0.0020000  0  7 28 23 26 21 17 22  3                0.002463540
 -11934814.334 7  -9303830.973 6  23044386.076       -2335.795
 -17016932.583 8 -13266950.774 9  21256787.982         482.519
  -4170405.198 6  -3258697.053 5  24185602.705        2823.768
 -15505313.335 7 -11459558.096 7  22307515.968       -1659.887
 -15029994.066 8 -11558084.344 9  21515505.057        1253.015
   -402940.750 5   -336669.235 5  25268037.262        2383.430
  -4298502.942 7  -8284354.878 6  22541636.619        3135.483
 93  5  6  6 50 30.0020000  0  7 28 23 26 21 17 22  3                0.002467410
 -12004665.918 7  -9358260.769 6  23031094.056       -2320.942
 -17002316.547 8 -13255561.665 9  21259569.305         491.938
  -4085520.894 6  -3192553.439 5  24201755.685        2835.317
 -15554965.643 7 -11498248.189 7  22298067.380       -1650.410
 -14992269.281 8 -11528688.419 9  21522683.757        1262.067
   -331358.384 5   -280890.792 5  25281659.209        2388.579
  -4204198.843 7  -8210871.208 6  22559582.026        3151.333
 93  5  6  6 51  0.0020000  0  7 28 23 26 21 17 22  3                0.002471280
 -12074077.183 7  -9412347.471 6  23017885.508       -2306.295
 -16987420.661 8 -13243954.465 9  21262403.824         501.327
  -4000290.308 6  -3126139.984 5  24217974.455        2846.855
 -15604345.705 7 -11536726.146 7  22288670.404       -1641.649
 -14954268.671 8 -11499077.553 9  21529914.871        1271.377
   -259640.745 5   -225006.991 5  25295307.045        2392.829
  -4109423.471 7  -8137020.311 6  22577617.241        3166.911
 93  5  6  6 51 30.0020000  0  7 28 23 26 21 17 22  3                0.002475130
 -12143053.734 7  -9466095.421 6  23004759.906       -2292.044
 -16972240.652 8 -13232125.883 9  21265292.384         510.856
  -3914713.720 6  -3059456.930 5  24234259.410        2858.439
 -15653474.302 7 -11575008.147 7  22279321.718       -1633.616
 -14915992.246 8 -11469251.771 9  21537198.779        1280.592
   -187798.484 5   -169026.043 5  25308977.310        2396.906
  -4014182.815 7  -8062806.833 6  22595741.114        3182.249
 93  5  6  6 52  0.0020000  0  7 28 23 26 21 17 22  3                0.002478980
 -12211600.898 7  -9519508.775 6  22991715.836       -2277.613
 -16956758.571 8 -13220061.912 9  21268238.424         521.434
  -3828784.891 6  -2992499.399 5  24250611.083        2870.003
 -15702356.978 7 -11613098.516 7  22270019.445       -1624.989
 -14877429.666 8 -11439203.015 9  21544536.937        1290.411
   -115819.781 5   -112938.784 5  25322674.462        2401.973
  -3918479.411 7  -7988232.791 6  22613952.656        3197.857
 93  5  6  6 52 30.0020000  0  7 28 23 26 21 17 22  3                0.002482820
 -12279714.546 7  -9572584.340 6  22978754.411       -2263.350
 -16940956.343 8 -13207748.474 9  21271245.502         532.039
  -3742519.491 6  -2925279.577 5  24267026.654        2881.126
 -15750981.885 7 -11650988.017 7  22260766.482       -1616.643
 -14838570.258 8 -11408922.950 9  21551931.639        1300.206
    -43684.606 5    -56729.598 5  25336400.684        2407.013
  -3822312.524 7  -7913297.582 6  22632252.617        3213.043
 93  5  6  6 53  0.0020000  0  7 28 23 26 21 17 22  3                0.002486660
 -12347400.554 7  -9625326.674 6  22965873.637       -2249.186
 -16924826.883 8 -13195180.064 9  21274314.888         543.109
  -3655909.544 6  -2857791.318 5  24283507.818        2892.784
 -15799346.769 7 -11688674.920 7  22251563.234       -1607.727
 -14799405.539 8 -11378404.996 9  21559384.439        1310.698
     28615.526 5      -391.826 5  25350159.367        2412.954
  -3725683.283 7  -7838002.099 6  22650640.478        3228.476
 93  5  6  6 53 30.0020000  0  7 28 23 26 21 17 22  3                0.002490500
 -12414665.596 7  -9677740.985 6  22953073.328       -2234.900
 -16908371.460 8 -13182357.655 9  21277446.220         553.957
  -3568954.076 6  -2790033.845 5  24300054.912        2904.444
 -15847440.752 7 -11726150.745 7  22242411.311       -1598.244
 -14759928.254 8 -11347643.491 9  21566896.748        1321.283
    101098.314 5     56088.204 5  25363952.202        2419.289
  -3628594.886 7  -7762348.856 6  22669116.096        3243.949
 93  5  6  6 54  0.0020000  0  7 28 23 26 21 17 22  3                0.002494360
 -12481497.194 7  -9729817.536 6  22940355.852       -2220.788
 -16891601.712 8 -13169290.300 9  21280637.510         563.665
  -3481658.408 6  -2722011.237 5  24316666.852        2914.961
 -15895245.786 7 -11763401.390 7  22233314.157       -1588.952
 -14720138.396 8 -11316638.391 9  21574468.415        1331.179
    173759.714 5    112707.437 5  25377779.830        2424.506
  -3531046.336 7  -7686337.019 6  22687678.897        3258.865
 93  5  6  6 54 30.0020000  0  7 28 23 26 21 17 22  3                0.002498210
 -12547893.050 7  -9781554.558 6  22927721.340       -2206.054
 -16874537.448 8 -13155993.465 9  21283884.703         573.485
  -3394034.422 6  -2653732.825 5  24333341.458        2926.405
 -15942767.990 7 -11800431.653 7  22224271.028       -1579.717
 -14680035.531 8 -11285389.422 9  21582099.784        1342.038
    246581.793 5    169451.891 5  25391637.418        2429.763
  -3433039.678 7  -7609968.225 6  22706328.828        3274.278
 93  5  6  6 55  0.0020000  0  7 28 23 26 21 17 22  3                0.002502070
 -12613856.197 7  -9832954.403 6  22915169.245       -2191.294
 -16857190.532 8 -13142476.389 9  21287185.798         583.144
  -3306072.691 6  -2585191.229 5  24350080.300        2937.828
 -15990028.320 7 -11837257.866 7  22215277.573       -1570.773
 -14639609.596 8 -11253888.684 9  21589792.700        1353.115
    319553.438 5    226312.875 5  25405523.043        2435.264
  -3334581.110 7  -7533247.276 6  22725064.846        3289.521
 93  5  6  6 55 30.0020000  0  7 28 23 26 21 17 22  3                0.002505940
 -12679369.920 7  -9884004.049 6  22902702.360       -2176.090
 -16839556.874 8 -13128735.861 9  21290541.314         592.493
  -3217782.645 6  -2516393.812 5  24366881.167        2948.299
 -16037021.306 7 -11873875.745 7  22206335.125       -1562.023
 -14598866.821 8 -11222141.091 9  21597545.911        1363.150
    392682.438 5    283296.456 5  25419440.087        2440.033
  -3235670.981 6  -7456174.486 6  22743886.914        3304.345
 93  5  6  6 56  0.0020000  0  7 28 23 26 21 17 22  3                0.002509800
 -12744418.103 7  -9934690.940 6  22890323.899       -2160.424
 -16821640.385 8 -13114774.964 9  21293950.786         601.966
  -3129184.878 6  -2447356.586 5  24383740.469        2958.427
 -16083754.839 7 -11910291.478 7  22197442.030       -1553.654
 -14557818.627 8 -11190155.496 9  21605357.112        1373.530
    465949.183 5    340387.402 5  25433381.195        2444.542
  -3136315.259 7  -7378754.494 6  22762793.805        3319.152
 93  5  6  6 56 30.0020000  0  7 28 23 26 21 17 22  3                0.002513660
 -12808992.122 7  -9985008.340 6  22878035.527       -2144.595
 -16803425.343 8 -13100581.414 9  21297416.966         612.143
  -3040268.546 6  -2378071.126 5  24400660.878        2969.249
 -16130240.344 7 -11946513.912 7  22188596.073       -1545.543
 -14516454.980 8 -11157924.082 9  21613228.346        1383.650
    539363.718 5    397593.463 5  25447351.396        2449.699
  -3036511.436 7  -7300985.299 6  22781785.859        3333.959
 93  5  6  6 57  0.0020000  0  6 28 23 26 21 17  3                   0.002517460
 -12873086.272 7 -10034951.846 6  22865838.879       -2128.410
 -16784906.575 8 -13086151.209 9  21300940.925         622.278
  -2951025.351 6  -2308530.989 5  24417642.940        2980.032
 -16176474.000 7 -11982540.129 7  22179798.097       -1536.577
 -14474803.425 8 -11125468.340 9  21621154.257        1392.824
  -2936267.567 6  -7222873.232 6  22800861.431        3348.584
 93  5  6  6 57 30.0020000  0  6 28 23 26 21 17  3                   0.002521290
 -12936696.396 7 -10084518.147 6  22853734.279       -2112.165
 -16766086.117 8 -13071485.903 9  21304522.477         632.447
  -2861469.756 6  -2238747.413 5  24434684.520        2990.345
 -16222426.160 7 -12018346.977 7  22171053.830       -1526.933
 -14432891.523 8 -11092809.705 9  21629129.886        1401.404
  -2835587.663 6  -7144421.381 6  22820020.179        3363.254
 93  5  6  6 58  0.0020000  0  6 28 23 26 21 17  3                   0.002525130
 -12999823.171 7 -10133707.813 6  22841721.743       -2096.260
 -16746963.411 8 -13056585.085 9  21308161.487         642.506
  -2771600.692 6  -2168719.556 5  24451786.141        3001.088
 -16268087.711 7 -12053927.373 7  22162364.525       -1516.992
 -14390712.877 8 -11059943.238 9  21637155.990        1410.525
  -2734466.196 7  -7065625.447 6  22839263.078        3377.902
 93  5  6  6 58 30.0020000  0  6 28 23 26 21 17  3                   0.002529000
 -13062475.339 7 -10182527.701 6  22829799.449       -2080.431
 -16727535.447 8 -13041446.415 9  21311858.567         652.559
  -2681408.186 6  -2098439.706 5  24468949.480        3011.632
 -16313437.235 7 -12089264.662 7  22153734.770       -1506.303
 -14348270.583 8 -11026871.306 9  21645232.639        1418.935
  -2632905.316 6  -6986487.096 6  22858589.529        3392.467
 93  5  6  6 59  0.0020000  0  7 28 23 26 21 17  3  1                0.002532960
 -13124655.118 7 -10230979.462 6  22817966.939       -2064.757
 -16707820.931 8 -13026084.455 9  21315610.161         661.866
  -2590913.391 6  -2027924.300 5  24486170.025        3021.234
 -16358466.133 7 -12124352.079 7  22145166.069       -1495.516
 -14305572.139 8 -10993599.793 9  21653357.952        1427.943
  -2530914.828 6  -6907013.985 6  22877997.573        3406.785
   -255805.74415   -220884.70711  24871336.463       -3540.407
 93  5  6  6 59 30.0020000  0  7 28 23 26 21 17  3  1                0.002536790
 -13186361.932 7 -10279062.689 6  22806224.670       -2049.016
 -16687814.144 8 -13010494.753 9  21319417.184         671.897
  -2500126.943 6  -1957181.612 5  24503446.268        3031.160
 -16403176.691 7 -12159191.467 7  22136657.690       -1485.557
 -14262585.861 8 -10960104.011 9  21661538.058        1437.871
  -2428489.202 6  -6827201.829 6  22897488.531        3421.250
   -361976.736 5   -303616.377 2  24851133.666       -3537.476
 93  5  6  7  0  0.0020000  0  7 28 23 26 21 17  3  1                0.002540620
 -13247601.771 7 -10326782.033 6  22794571.147       -2033.503
 -16667513.793 8 -12994676.290 9  21323280.251         681.595
  -2409041.629 6  -1886206.029 5  24520779.274        3041.309
 -16447603.180 7 -12193809.469 7  22128203.812       -1476.063
 -14219292.021 8 -10926368.566 9  21669776.596        1448.514
  -2325633.654 6  -6747054.677 6  22917061.269        3435.602
   -468055.248 5   -386274.957 4  24830946.961       -3534.257
 93  5  6  7  0 30.0020000  0  7 28 23 26 21 17  3  1                0.002544450
 -13308373.395 7 -10374136.514 6  22783006.262       -2018.014
 -16646917.349 8 -12978627.095 9  21327199.488         691.392
  -2317650.152 6  -1814991.923 5  24538170.549        3051.369
 -16491752.420 7 -12228211.445 8  22119802.578       -1467.427
 -14175679.692 8 -10892384.921 9  21678075.749        1459.031
  -2222351.365 6  -6666575.010 6  22936715.394        3449.695
   -574042.404 5   -468862.307 5  24810777.218       -3531.572
 93  5  6  7  1  0.0020000  0  8 28 23 26 21 17 22  3  1             0.002548300
 -13368681.132 7 -10421129.550 6  22771530.005       -2002.732
 -16626029.454 8 -12962350.815 9  21331174.226         701.094
  -2225950.059 6  -1743537.318 5  24555620.157        3061.788
 -16535646.933 7 -12262414.940 8  22111449.723       -1459.073
 -14131738.231 8 -10858144.841 9  21686437.592        1470.279
      7459.02015     11374.87011  25574201.860        2486.283
  -2118641.874 6  -6585762.461 6  22956450.500        3463.858
   -679937.120 5   -551377.667 5  24790625.975       -3528.421
 93  5  6  7  1 30.0020000  0  8 28 23 26 21 17 22  3  1             0.002552130
 -13428534.352 7 -10467768.413 7  22760140.423       -1987.467
 -16604847.996 8 -12945845.787 9  21335204.935         710.982
  -2133942.061 6  -1671842.775 5  24573128.576        3072.098
 -16579297.744 7 -12296428.538 8  22103143.201       -1451.002
 -14087464.588 8 -10823645.883 9  21694862.637        1481.349
     82094.924 5     69536.033 1  25588405.768        2489.385
  -2014509.960 6  -6504620.751 6  22976266.593        3477.954
   -785747.345 5   -633827.164 5  24770491.485       -3525.757
 93  5  6  7  2  0.0020000  0  8 28 23 26 21 17 22  3  1             0.002555950
 -13487930.738 7 -10514051.309 7  22748837.558       -1972.055
 -16583377.982 8 -12929115.901 9  21339290.568         720.424
  -2041624.925 6  -1599907.349 5  24590696.343        3082.425
 -16622694.157 7 -12330243.929 8  22094885.189       -1441.770
 -14042858.420 8 -10788887.850 9  21703350.910        1492.425
    156825.084 5    127766.788 1  25602627.360        2492.830
  -1909955.656 6  -6423149.916 6  22996162.769        3492.227
   -891481.324 5   -716217.268 5  24750371.682       -3523.086
 93  5  6  7  2 30.0020000  0  8 28 23 26 21 17 22  3  1             0.002559780
 -13546860.043 7 -10559970.234 7  22737623.580       -1956.466
 -16561625.112 8 -12912165.605 9  21343429.852         729.607
  -1949005.930 6  -1527736.731 5  24608321.403        3092.271
 -16665812.788 7 -12363842.832 8  22086679.900       -1432.715
 -13997936.425 8 -10753883.696 9  21711899.343        1502.339
    231664.017 5    186079.772 1  25616868.966        2496.197
  -1804977.136 6  -6341348.498 6  23016139.549        3506.106
   -997136.407 5   -798545.857 5  24730264.614       -3520.587
 93  5  6  7  3  0.0020000  0  7 28 23 26 21 17  3  1                0.002563520
 -13605301.122 7 -10605508.720 7  22726502.988       -1939.405
 -16539600.263 8 -12895003.373 9  21347620.989         738.929
  -1856089.540 6  -1455334.345 5  24626003.292        3102.250
 -16708643.309 7 -12397217.228 8  22078529.642       -1422.487
 -13952715.307 8 -10718646.465 9  21720504.657        1512.463
  -1699575.844 6  -6259217.662 6  23036196.912        3520.449
  -1102700.985 5   -880803.950 5  24710176.990       -3517.022
 93  5  6  7  3 30.0020000  0  7 28 23 26 21 17  3  1                0.002567340
 -13663235.977 7 -10650652.744 7  22715478.311       -1922.375
 -16517300.924 8 -12877627.269 9  21351864.531         748.081
  -1762885.623 6  -1382707.928 5  24643739.246        3111.812
 -16751172.160 7 -12430356.592 8  22070436.596       -1412.362
 -13907209.191 8 -10683187.164 9  21729164.072        1521.613
  -1593756.029 6  -6176760.679 6  23056333.633        3534.379
  -1208162.727 5   -962981.873 5  24690109.052       -3513.302
 93  5  6  7  4  0.0020000  0  7 28 23 26 21 17  3  1                0.002571170
 -13720655.817 7 -10695395.464 7  22704551.474       -1905.326
 -16494733.299 8 -12860042.092 9  21356159.058         756.578
  -1669389.938 6  -1309854.138 5  24661530.729        3121.291
 -16793392.128 7 -12463255.236 8  22062402.307       -1402.316
 -13861434.564 8 -10647518.630 9  21737874.533        1530.106
  -1487518.939 6  -6093978.596 6  23076549.768        3547.925
  -1313510.273 5  -1045070.793 5  24670061.651       -3509.810
 93  5  6  7  4 30.0020000  0  7 28 23 26 21 17  3  1                0.002575030
 -13777546.296 7 -10739725.704 7  22693725.629       -1887.460
 -16471894.730 8 -12842245.805 9  21360505.191         765.944
  -1575606.023 6  -1236775.773 5  24679377.083        3130.927
 -16835310.714 7 -12495919.056 8  22054425.518       -1392.360
 -13815396.829 8 -10611645.075 9  21746635.138        1539.245
  -1380866.275 6  -6010872.659 6  23096844.957        3561.913
  -1418746.335 5  -1127072.903 5  24650036.364       -3506.124
 93  5  6  7  5  0.0020000  0  7 28 23 26 21 17  3  1                0.002578900
 -13833910.193 7 -10783645.610 7  22682999.985       -1870.378
 -16448777.705 8 -12824232.526 9  21364904.225         775.300
  -1481537.144 6  -1163475.353 5  24697277.744        3140.274
 -16876939.078 7 -12528356.710 8  22046503.863       -1383.036
 -13769076.193 8 -10575551.081 9  21755449.956        1548.901
  -1273800.012 6  -5927444.457 6  23117219.252        3575.553
  -1523873.586 5  -1208990.201 5  24630031.303       -3502.523
 93  5  6  7  5 30.0020000  0  7 28 23 26 21 17  3  1                0.002582770
 -13889769.333 7 -10827172.204 7  22672370.413       -1853.434
 -16425372.253 8 -12805994.515 9  21369358.001         785.217
  -1387186.092 6  -1089955.062 5  24715231.789        3149.915
 -16918296.518 7 -12560583.266 8  22038633.981       -1374.044
 -13722449.312 8 -10539218.472 9  21764322.903        1559.719
  -1166322.177 6  -5843695.551 6  23137671.701        3589.519
  -1628894.411 5  -1290824.537 5  24610046.626       -3498.825
 93  5  6  7  6  0.0020000  0  7 28 23 26 21 17  3  1                0.002586630
 -13945131.499 7 -10870311.546 7  22661835.526       -1837.133
 -16401678.462 8 -12787531.816 9  21373866.669         794.635
  -1292557.041 6  -1016218.140 5  24733238.883        3158.899
 -16959399.957 7 -12592611.898 8  22030812.337       -1365.915
 -13675504.354 8 -10502637.996 9  21773256.088        1570.231
  -1058436.330 6  -5759628.694 6  23158201.479        3602.846
  -1733816.032 5  -1372581.582 5  24590080.840       -3495.682
 93  5  6  7  6 30.0020000  0  7 28 23 26 21 17  3  1                0.002590480
 -13999999.646 7 -10913065.929 7  22651394.375       -1820.724
 -16377694.934 8 -12768843.333 9  21378430.719         804.309
  -1197658.772 6   -942271.457 5  24751297.646        3167.977
 -17000253.949 7 -12624446.160 8  22023037.880       -1357.511
 -13628237.657 8 -10465806.812 9  21782250.640        1580.957
   -950150.840 6  -5675250.424 6  23178807.286        3616.098
  -1838639.024 5  -1454261.769 5  24570133.193       -3492.341
 93  5  6  7  7  0.0020000  0  7 28 23 26 21 17  3  1                0.002594320
 -14054377.095 7 -10955437.963 7  22641046.409       -1804.288
 -16353424.714 8 -12749931.473 9  21383049.192         813.772
  -1102479.090 6   -868105.478 5  24769409.603        3177.469
 -17040853.215 7 -12656081.955 8  22015312.059       -1348.976
 -13580645.299 8 -10428721.875 9  21791307.213        1591.993
   -841464.049 6  -5590559.472 6  23199489.590        3629.540
  -1943351.760 5  -1535856.072 5  24550206.596       -3488.397
 93  5  6  7  7 30.0020000  0  7 28 23 26 21 17  3  1                0.002598150
 -14108251.640 7 -10997418.118 7  22630794.707       -1787.256
 -16328874.593 8 -12730801.508 9  21387720.829         822.790
  -1007019.676 5   -793721.511 5  24787575.176        3186.419
 -17081192.514 7 -12687515.139 8  22007635.462       -1340.224
 -13532725.928 8 -10391382.132 9  21800425.959        1602.472
   -732378.503 6  -5505557.806 6  23220248.486        3642.538
  -2047946.391 5  -1617358.343 5  24530302.322       -3484.644
 93  5  6  7  8  0.0020000  0  7 28 23 26 21 17  3  1                0.002602000
 -14161601.199 7 -11038989.187 7  22620642.684       -1769.328
 -16304055.743 8 -12711462.130 9  21392443.779         831.738
   -911286.073 5   -719123.936 5  24805792.887        3195.773
 -17121251.495 7 -12718729.908 8  22000012.548       -1330.425
 -13484497.252 8 -10353801.339 9  21809603.644        1612.850
   -622898.992 6  -5420249.097 5  23241081.504        3655.833
  -2152423.854 5  -1698769.272 5  24510421.146       -3480.724
 93  5  6  7  8 30.0020000  0  7 28 23 26 21 17  3  1                0.002605840
 -14214411.684 7 -11080140.212 7  22610593.332       -1751.356
 -16278977.503 8 -12691920.643 9  21397215.986         840.195
   -815281.468 5   -644315.119 5  24824061.949        3204.591
 -17161029.464 7 -12749725.698 8  21992442.950       -1321.364
 -13435962.171 8 -10315981.812 9  21818839.642        1622.998
   -513028.051 6  -5334635.427 5  23261989.459        3668.775
  -2256795.684 5  -1780097.920 5  24490559.114       -3477.318
 93  5  6  7  9  0.0020000  0  7 28 23 26 21 17  3  1                0.002609690
 -14266685.180 7 -11120872.813 7  22600645.620       -1733.329
 -16253645.563 8 -12672181.486 9  21402036.529         848.930
   -719013.583 5   -569301.241 5  24842381.527        3213.356
 -17200533.511 7 -12780508.058 8  21984925.634       -1311.988
 -13387112.758 8 -10277917.344 9  21828135.266        1633.785
   -402768.997 6  -5248719.355 5  23282971.105        3681.744
  -2361063.507 5  -1861345.537 5  24470717.876       -3473.528
 93  5  6  7  9 30.0020000  0  7 28 23 26 21 17  3  1                0.002613540
 -14318410.491 7 -11161178.222 7  22590802.674       -1715.178
 -16228044.070 8 -12652232.243 9  21406908.376         857.704
   -622487.534 5   -494086.127 5  24860749.452        3221.639
 -17239752.624 7 -12811068.376 8  21977462.629       -1302.736
 -13337948.919 8 -10239607.864 9  21837490.919        1643.549
   -292119.340 6  -5162498.849 5  23304026.900        3694.590
  -2465214.743 5  -1942502.274 5  24450898.945       -3469.993
 93  5  6  7 10  0.0020000  0  7 28 23 26 21 17  3  1                0.002617380
 -14369603.136 7 -11201068.598 7  22581061.086       -1697.990
 -16202175.309 8 -12632074.782 9  21411831.047         866.784
   -525708.672 5   -418674.078 5  24879165.443        3230.081
 -17278694.701 7 -12841412.834 8  21970052.150       -1293.701
 -13288496.387 8 -10201073.457 9  21846901.376        1653.132
   -181084.169 6  -5075977.959 5  23325156.360        3707.367
  -2569254.246 6  -2023571.998 5  24431100.952       -3466.004
 93  5  6  7 10 30.0020000  0  7 28 23 26 21 17  3  1                0.002621210
 -14420290.155 7 -11240564.972 7  22571415.655       -1681.210
 -16176027.814 8 -12611700.089 9  21416806.743         876.569
   -428685.818 5   -343071.828 5  24897627.864        3238.308
 -17317370.138 7 -12871549.532 8  21962692.215       -1284.411
 -13238752.089 8 -10162311.668 9  21856367.563        1663.234
    -69667.672 6  -4989159.960 5  23346358.450        3720.258
  -2673161.733 5  -2104538.837 5  24411327.406       -3460.856
 93  5  6  7 11  0.0020000  0  7 28 23 26 21 17  3  1                0.002625030
 -14470493.107 7 -11279684.146 7  22561862.277       -1665.427
 -16149593.543 8 -12591101.959 9  21421837.071         885.848
   -331428.445 6   -267286.909 5  24916135.167        3245.557
 -17355760.443 7 -12901464.033 8  21955386.781       -1274.932
 -13188718.394 7 -10123324.407 9  21865888.639        1672.359
     42127.107 6  -4902047.211 5  23367632.813        3732.555
  -2776908.663 6  -2185380.554 5  24391585.084       -3455.579
 93  5  6  7 11 30.0020000  0  7 28 23 26 21 17  3  1                0.002628850
 -14520209.988 7 -11318424.582 7  22552401.678       -1649.160
 -16122876.805 8 -12570283.722 9  21426921.011         894.907
   -233944.146 6   -191325.103 5  24934686.193        3253.143
 -17393865.363 7 -12931156.161 8  21948135.861       -1265.618
 -13138409.485 8 -10084122.682 9  21875462.114        1681.543
    154296.424 6  -4814642.600 5  23388977.877        3744.979
  -2880491.445 6  -2266094.381 5  24371874.059       -3450.123
 93  5  6  7 12  0.0020000  0  7 28 23 26 21 17  3  1                0.002632650
 -14569439.167 7 -11356784.968 7  22543033.562       -1632.785
 -16095889.477 8 -12549254.626 9  21432056.496         904.013
   -136235.471 5   -115188.496 5  24953279.850        3260.592
 -17431682.882 7 -12960624.329 8  21940939.273       -1255.696
 -13087810.499 7 -10044694.916 9  21885090.727        1691.690
    266839.443 6  -4726946.778 5  23410393.723        3757.400
  -2983909.311 6  -2346679.701 5  24352194.233       -3444.566
 93  5  6  7 12 30.0020000  0  7 28 23 26 21 17  3  1                0.002636440
 -14618158.453 7 -11394748.047 7  22533762.682       -1615.232
 -16068637.364 8 -12528019.206 9  21437242.346         912.586
    -38301.882 6    -38876.610 5  24971916.296        3268.162
 -17469201.101 7 -12989859.274 8  21933799.777       -1245.635
 -13036901.185 7 -10005025.339 9  21894778.441        1702.062
    379754.262 6  -4638961.217 5  23431880.996        3769.871
  -3087163.777 5  -2427137.719 5  24332546.351       -3439.389
 93  5  6  7 13  0.0020000  0  7 28 23 26 21 17  3  1                0.002640220
 -14666342.894 7 -11432294.373 7  22524593.377       -1596.617
 -16041137.777 8 -12506590.950 9  21442475.253         920.785
     59863.054 6     37615.511 5  24990596.197        3276.339
 -17506419.391 7 -13018860.525 8  21926717.339       -1235.655
 -12985685.842 7  -9965117.295 9  21904524.504        1712.379
    493041.300 6  -4550685.642 5  23453438.571        3782.485
  -3190281.964 5  -2507489.503 5  24312922.578       -3434.953
 93  5  6  7 13 30.0020000  0  7 28 23 26 21 17  3  1                0.002644010
 -14713957.125 7 -11469396.376 7  22515532.752       -1577.772
 -16013393.968 8 -12484972.402 9  21447754.798         928.670
    158274.369 6    114299.648 5  25009322.943        3284.222
 -17543350.587 7 -13047638.065 8  21919689.484       -1226.553
 -12934159.977 7  -9924967.303 9  21914329.436        1722.578
    606701.397 6  -4462119.385 5  23475067.200        3794.488
  -3293273.601 6  -2587742.693 5  24293324.451       -3431.196
 93  5  6  7 14  0.0020000  0  7 28 23 26 21 17  3  1                0.002647800
 -14760994.717 7 -11506049.043 7  22506581.580       -1558.296
 -15985400.066 8 -12463158.965 9  21453081.881         937.363
    256933.456 6    191176.866 5  25028097.619        3292.670
 -17580001.804 7 -13076197.432 8  21912715.113       -1217.240
 -12882325.134 7  -9884576.517 9  21924193.079        1732.731
    720726.213 6  -4373268.939 5  23496765.771        3806.669
  -3396148.140 6  -2667904.637 5  24273748.088       -3427.307
 93  5  6  7 14 30.0020000  0  7 28 23 26 21 17  3  1                0.002651610
 -14807447.891 7 -11542246.313 7  22497741.966       -1538.776
 -15957147.692 8 -12441144.117 9  21458458.238         946.109
    355849.204 6    268254.096 5  25046921.112        3301.472
 -17616386.883 7 -13104549.409 8  21905791.187       -1208.586
 -12830189.868 7  -9843951.644 9  21934114.069        1742.764
    835112.630 6  -4284136.732 5  23518532.683        3818.751
  -3498898.688 5  -2747970.007 5  24254195.183       -3422.904
 93  5  6  7 15  0.0020000  0  8 28 23 26 21 31 17  3  1             0.002655470
 -14853326.437 7 -11577995.837 7  22489011.571       -1519.684
 -15928637.471 8 -12418928.365 9  21463883.423         954.623
    455010.155 6    345522.332 5  25065790.949        3309.337
 -17652522.418 7 -13132706.936 8  21898914.728       -1200.433
   -213335.56015   -168021.79312  25418166.449       -2953.155
 -12777763.068 7  -9803099.618 9  21944090.743        1752.429
    949852.869 6  -4194728.788 5  23540366.804        3830.407
  -3601520.244 6  -2827934.854 5  24234666.760       -3418.300
 93  5  6  7 15 30.0020000  0  8 28 23 26 21 31 17  3  1             0.002659270
 -14898637.826 7 -11613303.411 7  22480388.932       -1501.269
 -15899868.116 8 -12396510.698 9  21469358.033         963.215
    554409.827 5    422976.615 5  25084705.852        3317.120
 -17688416.324 7 -13160676.221 8  21892084.294       -1192.502
   -301809.613 5   -236962.584 4  25401329.733       -2945.101
 -12725043.446 7  -9762019.408 8  21954122.816        1762.140
   1064941.793 6  -4105049.173 5  23562267.640        3841.804
  -3703993.226 6  -2907783.906 5  24215167.040       -3413.256
 93  5  6  7 16  0.0020000  0  8 28 23 26 21 31 17  3  1             0.002663060
 -14943403.812 7 -11648185.988 7  22471870.207       -1483.335
 -15870843.021 8 -12373893.729 9  21474881.379         971.543
    654036.364 6    500607.640 5  25103663.313        3324.466
 -17724067.758 7 -13188456.538 8  21885300.104       -1184.358
   -390035.857 5   -305710.240 5  25384541.001       -2936.867
 -12672025.997 7  -9720707.136 8  21964211.752        1772.251
   1180377.766 6  -4015099.110 5  23584234.853        3853.428
  -3806309.591 5  -2987510.916 5  24195696.333       -3407.955
 93  5  6  7 16 30.0020000  0  8 28 23 26 21 31 17  3  1             0.002666860
 -14987634.932 7 -11682651.802 7  22463453.348       -1465.518
 -15841569.923 8 -12351083.525 9  21480451.933         979.768
    753883.802 6    578410.831 5  25122663.760        3331.573
 -17759464.818 7 -13216038.647 8  21878564.145       -1175.394
   -478002.180 5   -374255.380 5  25367801.614       -2927.771
 -12618694.274 7  -9679149.947 8  21974360.457        1782.903
   1296167.436 6  -3924873.446 5  23606269.120        3865.365
  -3908458.397 6  -3067107.354 5  24176257.555       -3402.122
 93  5  6  7 17  0.0020000  0  8 28 23 26 21 31 17  3  1             0.002670650
 -15031339.350 7 -11716707.196 7  22455136.652       -1448.216
 -15812063.914 8 -12328091.819 9  21486066.826         987.304
    853917.341 6    656359.034 5  25141699.749        3337.424
 -17794596.458 7 -13243413.912 8  21871878.874       -1166.723
   -565711.478 6   -442600.257 5  25351109.932       -2919.404
 -12565061.394 7  -9637358.110 8  21984566.600        1792.703
   1412302.932 6  -3834378.322 5  23628368.528        3876.676
  -4010447.507 6  -3146579.357 5  24156849.920       -3396.956
 93  5  6  7 17 30.0020000  0  8 28 23 26 21 31 17  3  1             0.002674430
 -15074526.364 7 -11750359.400 7  22446918.842       -1431.000
 -15782322.927 8 -12304917.022 9  21491726.398         995.299
    954140.495 5    734455.045 5  25160771.717        3343.683
 -17829460.444 7 -13270580.642 9  21865244.477       -1157.624
   -653162.789 5   -510744.091 5  25334469.012       -2910.861
 -12511125.943 7  -9595330.510 8  21994830.156        1802.904
   1528780.081 6  -3743616.982 5  23650533.235        3888.052
  -4112267.627 6  -3225919.701 5  24137474.562       -3391.246
 93  5  6  7 18  0.0020000  0  8 28 23 26 21 31 17  3  1             0.002678210
 -15117189.125 7 -11783603.129 7  22438800.292       -1413.206
 -15752336.143 8 -12281550.700 9  21497432.577        1003.881
   1054553.762 5    812699.116 5  25179879.476        3350.522
 -17864040.812 7 -13297526.354 9  21858664.181       -1147.716
   -740348.632 5   -578681.107 5  25317878.125       -2901.631
 -12456878.341 7  -9553059.645 8  22005153.059        1813.601
   1645600.340 6  -3652588.282 5  23672763.207        3899.761
  -4213916.707 6  -3305126.743 5  24118130.958       -3385.280
 93  5  6  7 18 30.0020000  0  8 28 23 26 21 31 17  3  1             0.002681980
 -15159318.919 7 -11816431.528 7  22430783.461       -1395.486
 -15722091.809 8 -12257983.693 9  21503187.793        1012.346
   1155169.552 5    891101.046 5  25199026.427        3357.161
 -17898326.139 7 -13324242.174 9  21852139.819       -1138.095
   -827263.340 5   -646406.824 5  25301338.241       -2892.799
 -12402321.778 7  -9510548.047 8  22015535.031        1823.326
   1762764.935 6  -3561291.222 5  23695059.124        3910.881
  -4315380.479 6  -3384189.383 5  24098823.732       -3379.045
 93  5  6  7 19  0.0020000  0  8 28 23 26 21 31 17  3  1             0.002685750
 -15200910.383 7 -11848840.473 7  22422868.912       -1377.555
 -15691581.731 8 -12234209.603 9  21508993.703        1021.561
   1255998.491 5    969668.987 5  25218213.903        3364.872
 -17932328.484 7 -13350737.506 9  21845669.458       -1128.897
   -913910.139 6   -713923.743 5  25284850.042       -2883.812
 -12347469.469 7  -9467806.016 8  22025972.916        1833.522
   1880265.532 6  -3469732.379 5  23717418.744        3922.095
  -4416656.983 6  -3463106.107 5  24079551.165       -3372.768
 93  5  6  7 19 30.0020000  0  8 28 23 26 21 31 17  3  1             0.002689530
 -15241971.217 7 -11880835.924 7  22415054.991       -1359.650
 -15660798.053 8 -12210222.324 9  21514851.717        1030.531
   1357065.683 5   1048422.660 5  25237446.509        3372.703
 -17966055.067 7 -13377017.938 9  21839251.200       -1119.645
  -1000284.986 6   -781228.826 5  25268414.210       -2874.575
 -12292305.469 7  -9424821.090 8  22036470.311        1843.971
   1998100.096 6  -3377913.295 5  23739842.426        3933.249
  -4517741.354 6  -3541873.134 5  24060315.804       -3366.600
 93  5  6  7 20  0.0020000  0  8 28 23 26 21 31 17  3  1             0.002693310
 -15282487.271 7 -11912406.882 7  22407345.218       -1341.382
 -15629754.020 8 -12186032.163 9  21520759.247        1038.934
   1458366.840 5   1127358.616 5  25256723.938        3380.470
 -17999509.260 7 -13403086.130 9  21832885.038       -1110.743
  -1086387.339 6   -848321.515 5  25252029.687       -2865.591
 -12236838.371 7  -9381599.991 8  22047025.364        1853.727
   2116264.705 6  -3285837.039 5  23762328.265        3944.155
  -4618656.295 6  -3620508.123 5  24041111.874       -3361.076
 93  5  6  7 20 30.0020000  0  8 28 23 26 21 31 17  3  1             0.002697080
 -15322442.114 7 -11943540.536 7  22399741.941       -1321.920
 -15598459.264 8 -12161646.626 9  21526714.516        1047.451
   1559896.606 5   1206472.725 5  25276044.199        3388.273
 -18032691.153 7 -13428942.129 9  21826570.700       -1101.218
  -1172211.194 6   -915197.187 5  25235697.836       -2855.813
 -12181076.955 7  -9338149.561 8  22057636.197        1863.932
   2234759.648 6  -3193503.391 5  23784876.495        3955.461
  -4719403.490 6  -3699012.382 5  24021940.764       -3355.238
 93  5  6  7 21  0.0020000  0  8 28 23 26 21 31 17  3  1             0.002700850
 -15361820.640 7 -11974225.109 7  22392248.568       -1302.843
 -15566930.195 8 -12137078.525 9  21532714.171        1054.740
   1661638.582 5   1285752.147 5  25295404.308        3394.997
 -18065601.887 7 -13454586.841 9  21820308.005       -1092.357
  -1257754.325 6   -981854.152 5  25219419.332       -2846.483
 -12125008.786 7  -9294460.076 8  22068305.919        1874.355
   2353581.893 6  -3100914.706 5  23807487.569        3966.145
  -4819992.281 6  -3777393.242 5  24002799.559       -3350.128
 93  5  6  7 21 30.0020000  0  8 28 23 26 21 31 17  3  1             0.002704620
 -15400620.213 7 -12004458.539 7  22384865.469       -1283.312
 -15535194.657 8 -12112349.524 9  21538753.200        1061.040
   1763575.494 5   1365183.515 5  25314801.239        3400.933
 -18098241.084 7 -13480019.964 9  21814096.937       -1083.418
  -1343017.691 6  -1048293.111 5  25203193.987       -2837.389
 -12068633.857 7  -9250531.581 8  22079033.993        1884.135
   2472725.675 6  -3008075.425 5  23830160.380        3976.679
  -4920424.185 6  -3855651.791 5  23983687.999       -3345.167
 93  5  6  7 22  0.0020000  0  8 28 23 26 21 31 17  3  1             0.002708390
 -15438821.354 7 -12034225.669 7  22377596.042       -1263.488
 -15503266.314 8 -12087470.300 9  21544829.125        1067.533
   1865694.561 5   1444756.743 5  25334234.335        3407.018
 -18130601.887 7 -13505236.150 9  21807938.909       -1073.905
  -1427994.185 6  -1114508.558 5  25187023.648       -2827.678
 -12011959.318 7  -9206369.601 8  22089818.918        1894.272
   2592192.235 6  -2914984.641 5  23852894.325        3987.484
  -5020691.815 6  -3933782.391 5  23964607.136       -3339.111
 93  5  6  7 22 30.0020000  0  8 28 23 26 21 31 17  3  1             0.002712150
 -15476437.300 7 -12063536.817 7  22370437.868       -1244.403
 -15471146.107 8 -12062441.571 9  21550941.513        1073.759
   1967992.204 5   1524469.184 5  25353701.094        3412.849
 -18162678.865 7 -13530231.193 9  21801834.874       -1064.823
  -1512682.576 6  -1180499.525 5  25170908.183       -2818.275
 -11954975.427 7  -9161966.583 8  22100662.541        1904.543
   2711977.967 6  -2821645.199 5  23875688.724        3997.931
  -5120769.487 6  -4011764.910 5  23945562.950       -3332.819
 93  5  6  7 23  0.0020000  0  8 28 23 26 21 31 17  3  1             0.002715930
 -15513485.617 7 -12092405.636 7  22363387.589       -1225.459
 -15438831.738 8 -12037261.550 9  21557090.497        1080.550
   2070473.930 5   1604325.077 5  25373202.586        3419.257
 -18194488.121 7 -13555017.607 9  21795781.844       -1055.869
  -1597081.390 5  -1246264.793 5  25154847.839       -2808.325
 -11897686.097 7  -9117325.551 8  22111564.392        1914.460
   2832078.298 6  -2728060.549 5  23898543.003        4008.475
  -5220650.685 6  -4089594.407 5  23926557.426       -3326.021
 93  5  6  7 23 30.0020000  0  8 28 23 26 21 31 17  3  1             0.002719710
 -15549965.929 7 -12120831.842 7  22356445.474       -1206.501
 -15406312.361 8 -12011921.762 9  21563278.583        1087.524
   2173144.311 6   1684328.051 5  25392740.024        3425.365
 -18226037.459 7 -13579601.472 9  21789778.430       -1047.307
  -1681189.154 5  -1311803.263 5  25138842.326       -2798.852
 -11840121.387 7  -9072469.946 8  22122518.550        1923.260
   2952489.746 6  -2634233.519 5  23921456.532        4018.760
  -5320332.008 6  -4167268.112 5  23907588.033       -3319.507
 93  5  6  7 24  0.0020000  0  8 28 23 26 21 31 17  3  1             0.002723490
 -15585870.263 7 -12148809.257 7  22349613.035       -1187.343
 -15373560.762 8 -11986401.053 9  21569510.987        1095.874
   2275997.522 6   1764473.373 5  25412312.882        3431.400
 -18257314.096 7 -13603972.870 9  21783826.751       -1038.063
  -1765000.539 5  -1377110.768 5  25122893.922       -2788.765
 -11782278.436 7  -9027397.538 8  22133525.550        1932.713
   3073213.039 6  -2540163.465 5  23944429.435        4029.102
  -5419806.522 6  -4244780.664 5  23888658.518       -3312.353
 93  5  6  7 24 30.0020000  0  8 28 23 26 21 31 17  3  1             0.002727270
 -15621194.926 7 -12176334.966 7  22342891.169       -1167.796
 -15340544.085 8 -11960673.759 9  21575793.798        1105.230
   2379029.363 6   1844757.927 5  25431919.497        3437.178
 -18288313.638 7 -13628128.322 9  21777927.585       -1028.753
  -1848505.525 5  -1442179.603 5  25107003.367       -2778.339
 -11724148.037 7  -8982101.136 7  22144587.312        1942.452
   3194251.840 6  -2445847.577 5  23967462.701        4039.752
  -5519066.632 6  -4322126.150 5  23869769.664       -3305.361
 93  5  6  7 25  0.0020000  0  8 28 23 26 21 31 17  3  1             0.002731040
 -15655938.375 7 -12203407.793 7  22336279.743       -1148.381
 -15307248.634 8 -11934729.251 9  21582129.853        1114.444
   2482222.328 5   1925168.008 5  25451557.044        3442.315
 -18319036.348 7 -13652068.091 9  21772081.103       -1019.362
  -1931704.015 5  -1507009.544 5  25091171.096       -2768.114
 -11665731.619 7  -8936581.869 7  22155703.635        1952.111
   3315601.554 6  -2351289.448 5  23990554.774        4050.097
  -5618132.696 6  -4399320.443 5  23850918.733       -3299.007
 93  5  6  7 25 30.0020000  0  8 28 23 26 21 31 17  3  1             0.002734780
 -15690098.654 7 -12230026.190 7  22329779.284       -1129.158
 -15273677.309 8 -11908569.767 9  21588518.369        1123.535
   2585559.096 5   2005690.205 5  25471221.772        3446.866
 -18349470.016 7 -13675782.610 9  21766289.891       -1009.605
  -2014595.110 5  -1571600.016 5  25075396.809       -2757.909
 -11607003.236 7  -8890819.488 7  22166879.469        1963.193
   3437257.072 6  -2256493.010 5  24013705.118        4060.049
  -5717002.559 6  -4476361.873 5  23832103.959       -3292.525
 93  5  6  7 26  0.0020000  0  8 28 23 26 21 31 17  3  1             0.002738500
 -15723680.990 7 -12256194.248 7  22323388.701       -1109.752
 -15239825.370 8 -11882191.630 9  21594960.130        1132.946
   2689044.207 5   2086327.961 5  25490914.053        3452.201
 -18379608.974 7 -13699267.488 9  21760554.720       -1000.004
  -2097170.663 5  -1635944.580 5  25059683.229       -2747.253
 -11547928.072 7  -8844786.918 7  22178120.887        1975.011
   3559221.129 6  -2161456.127 5  24036914.158        4070.534
  -5815673.752 6  -4553248.453 5  23813327.388       -3285.720
 93  5  6  7 26 30.0020000  0  8 28 23 26 21 31 17  3  1             0.002742210
 -15756686.510 7 -12281912.834 7  22317108.006       -1090.350
 -15205714.622 8 -11855611.828 9  21601451.247        1141.216
   2792691.957 5   2167092.442 5  25510637.700        3458.004
 -18409477.519 7 -13722541.670 9  21754870.936        -991.024
  -2179433.500 5  -1700045.502 5  25044029.672       -2736.708
 -11488501.913 7  -8798480.832 7  22189429.477        1986.910
   3681486.456 6  -2066184.491 5  24060180.836        4080.511
  -5914151.686 6  -4629984.481 5  23794587.826       -3279.242
 93  5  6  7 27  0.0020000  0  8 28 23 26 21 31 17  3  1             0.002745920
 -15789100.647 7 -12307170.618 7  22310939.867       -1070.408
 -15171369.834 8 -11828849.661 9  21607986.833        1148.348
   2896524.356 5   2248000.742 5  25530396.140        3464.239
 -18439079.433 7 -13745608.086 9  21749237.916        -982.504
  -2261381.723 6  -1763901.269 5  25028435.663       -2726.329
 -11428724.499 7  -8751901.055 7  22200804.645        1998.255
   3804049.038 6  -1970681.262 5  24083503.738        4090.124
  -6012423.934 6  -4706560.242 5  23775887.535       -3272.005
 93  5  6  7 27 30.0020000  0  8 28 23 26 21 31 17  3  1             0.002749640
 -15820899.280 7 -12331948.770 7  22304888.976       -1049.628
 -15136811.329 8 -11801920.948 9  21614563.109        1155.490
   3000549.300 5   2329059.112 5  25550191.407        3470.809
 -18468424.839 7 -13768474.630 9  21743653.622        -973.942
  -2343013.728 5  -1827510.624 5  25012901.441       -2715.837
 -11368608.470 7  -8705057.394 7  22212244.273        2009.219
   3926905.195 6  -1874949.272 5  24106882.691        4099.908
  -6110470.923 6  -4782960.446 5  23757229.513       -3264.464
 93  5  6  7 28  0.0020000  0  8 28 23 26 21 31 17  3  1             0.002753360
 -15852076.682 7 -12356242.845 8  22298955.905       -1028.738
 -15102045.409 8 -11774830.617 9  21621178.719        1162.275
   3104769.353 5   2410269.583 5  25570023.573        3477.248
 -18497515.852 7 -13791142.928 9  21738117.735        -965.284
  -2424332.463 5  -1890875.842 5  24997426.714       -2705.299
 -11308184.385 7  -8657973.717 7  22223742.422        2019.297
   4050046.987 6  -1778994.652 5  24130316.019        4109.507
  -6208288.230 6  -4859181.689 5  23738614.965       -3256.422
 93  5  6  7 28 30.0020000  0  8 28 23 26 21 31 17  3  1             0.002757110
 -15882625.396 7 -12380047.041 8  22293142.259       -1007.955
 -15067076.488 8 -11747582.101 9  21627833.102        1169.146
   3209178.716 5   2491627.511 5  25589890.996        3483.253
 -18526336.975 7 -13813600.928 9  21732633.261        -956.018
  -2505332.161 6  -1953992.491 5  24982013.273       -2694.631
 -11247454.469 7  -8610651.716 7  22235299.004        2029.208
   4173474.297 6  -1682817.593 5  24153803.993        4118.777
  -6305856.200 6  -4935208.656 5  23720048.053       -3248.210
 93  5  6  7 29  0.0020000  0  8 28 23 26 21 31 17  3  1             0.002760860
 -15912551.268 7 -12403365.886 8  22287447.720        -987.136
 -15031888.555 8 -11720162.929 9  21634529.206        1176.747
   3313761.254 5   2573120.437 5  25609793.053        3488.922
 -18554876.396 7 -13835839.419 9  21727202.211        -946.526
  -2586007.146 6  -2016856.103 5  24966660.922       -2683.539
 -11186435.264 7  -8563104.309 7  22246910.525        2038.867
   4297187.563 6  -1586417.726 5  24177345.733        4128.522
  -6403172.307 6  -5011039.357 5  23701529.241       -3239.552
 93  5  6  7 29 30.0020000  0  8 28 23 26 21 31 17  3  1             0.002764610
 -15941868.206 7 -12426210.260 8  22281869.132        -967.639
 -14996474.820 8 -11692567.821 9  21641268.312        1184.107
   3418504.462 5   2654738.502 5  25629724.545        3493.814
 -18583134.269 7 -13857858.541 9  21721824.614        -937.443
  -2666352.940 6  -2079463.221 5  24951371.384       -2672.850
 -11125124.611 7  -8515329.776 7  22258577.609        2048.439
   4421185.611 6  -1489795.949 5  24200941.640        4137.693
  -6500240.774 6  -5086677.116 5  23683057.842       -3231.894
 93  5  6  7 30  0.0020000  0  8 28 23 26 21 31 17  3  1             0.002768370
 -15970603.254 7 -12448601.217 8  22276400.829        -948.262
 -14960829.247 8 -11664792.041 9  21648051.316        1192.097
   3523407.371 5   2736481.044 5  25649686.862        3499.364
 -18611116.476 7 -13879662.832 9  21716500.020        -928.481
  -2746367.490 6  -2141812.206 5  24936144.883       -2661.488
 -11063518.501 7  -8467325.031 7  22270300.851        2058.515
   4545465.588 6  -1392954.499 5  24224591.238        4147.239
  -6597075.579 6  -5162132.765 5  23664631.235       -3224.182
 93  5  6  7 30 30.0020000  0  8 28 23 26 21 31 17  3  1             0.002772130
 -15998757.197 7 -12470539.341 8  22271043.358        -928.733
 -14924947.634 8 -11636832.342 9  21654879.289        1200.018
   3628465.402 5   2818344.471 5  25669679.363        3504.670
 -18638850.680 7 -13901273.877 9  21711222.044        -920.584
  -2826047.811 6  -2203900.729 5  24920981.803       -2650.481
 -11001615.906 7  -8419089.257 7  22282080.574        2068.008
   4670025.216 6  -1295895.130 5  24248294.015        4156.398
  -6693695.844 6  -5237421.261 5  23646245.466       -3217.324
 93  5  6  7 31  0.0020000  0  7 28 23 21 31 17  3  1                0.002775920
 -16026326.486 7 -12492021.921 8  22265797.508        -909.251
 -14888830.147 8 -11608688.849 9  21661752.311        1207.585
 -18666349.452 7 -13922701.479 9  21705988.968        -912.703
  -2905393.394 6  -2265728.425 5  24905882.467       -2639.247
 -10939433.089 7  -8370635.141 7  22293913.623        2077.656
   4794859.672 6  -1198621.595 5  24272048.973        4165.584
  -6790108.736 6  -5312548.195 5  23627898.577       -3210.269
 93  5  6  7 31 30.0020000  0  8 28 23 26 21 31 17  3  1             0.002779630
 -16053318.006 7 -12513054.276 8  22260661.206        -890.365
 -14852492.822 8 -11580374.050 9  21668666.795        1214.823
  -3659903.40615     23275.04111  25709746.685        3514.225
 -18693605.841 7 -13943940.204 9  21700802.118        -904.516
  -2984401.623 6  -2327293.259 5  24890848.093       -2628.075
 -10876955.913 7  -8321951.651 7  22305802.744        2087.171
   4919965.740 6  -1101136.448 5  24295855.865        4174.490
  -6886307.162 6  -5387507.956 5  23609592.149       -3203.174
 93  5  6  7 32  0.0020000  0  8 28 23 26 21 31 17  3  1             0.002783380
 -16079741.668 7 -12533644.139 8  22255632.236        -871.143
 -14815935.216 8 -11551887.602 9  21675623.499        1222.198
  -3554403.356 5    105486.847 1  25729825.405        3518.962
 -18720611.768 8 -13964983.773 9  21695663.484        -895.925
  -3063076.558 6  -2388598.378 5  24875877.078       -2616.949
 -10814199.417 7  -8273050.520 7  22317744.776        2096.508
   5045334.305 6  -1003446.725 5  24319713.104        4183.138
  -6982290.579 6  -5462300.208 5  23591326.934       -3195.652
 93  5  6  7 32 30.0020000  0  8 28 23 26 21 31 17  3  1             0.002787130
 -16105583.151 7 -12553780.356 8  22250714.980        -851.762
 -14779162.913 8 -11523233.858 9  21682621.224        1229.264
  -3448768.753 5    187798.177 2  25749926.888        3523.255
 -18747345.353 8 -13985815.115 9  21690576.266        -886.151
  -3141412.944 6  -2449639.667 5  24860969.915       -2605.509
 -10751165.235 7  -8223932.990 7  22329739.591        2105.788
   5170964.819 6   -905552.865 5  24343620.181        4191.933
  -7078034.024 6  -5536905.455 5  23573107.899       -3187.160
 93  5  6  7 33  0.0020000  0  7 28 23 21 31 17  3  1                0.002790920
 -16130849.768 7 -12573468.649 8  22245907.078        -832.810
 -14742179.057 8 -11494415.272 9  21689659.013        1236.076
 -18773774.854 8 -14006409.525 9  21685547.319        -876.159
  -3219405.633 5  -2510413.175 5  24846128.533       -2594.204
 -10687839.421 7  -8174588.221 7  22341790.000        2115.867
   5296857.520 6   -807454.771 5  24367576.016        4200.423
  -7173512.394 6  -5611304.168 6  23554938.855       -3178.325
 93  5  6  7 33 30.0020000  0  7 28 23 21 31 17  3  1                0.002794650
 -16155545.652 7 -12592712.188 8  22241207.512        -813.732
 -14704988.659 8 -11465435.745 9  21696735.992        1243.048
 -18799910.057 8 -14026774.605 9  21680573.912        -866.564
  -3297057.868 6  -2570921.396 5  24831351.814       -2582.949
 -10624215.886 7  -8125011.461 7  22353897.427        2125.332
   5423003.303 6   -709159.426 5  24391580.860        4208.615
  -7268725.129 6  -5685495.856 6  23536820.637       -3169.569
 93  5  6  7 34  0.0020000  0  7 28 23 21 31 17  3  1                0.002798370
 -16179647.716 7 -12611493.028 8  22236621.077        -793.055
 -14667579.568 8 -11436285.796 9  21703854.594        1250.636
 -18825759.152 8 -14046916.735 9  21675654.948        -856.880
  -3374367.592 6  -2631162.700 5  24816640.176       -2571.082
 -10560296.413 7  -8075204.127 7  22366061.139        2135.946
   5549399.359 6   -610669.034 5  24415633.724        4217.404
  -7363667.566 6  -5759476.921 6  23518753.726       -3159.932
 93  5  6  7 34 30.0020000  0  7 28 23 21 31 17  3  1                0.002802080
 -16203139.356 7 -12629798.214 8  22232150.633        -772.941
 -14629963.343 8 -11406974.456 9  21711012.689        1257.227
 -18851333.999 8 -14066845.180 9  21670788.076        -848.164
  -3451330.620 6  -2691133.839 5  24801995.155       -2559.762
 -10496061.136 7  -8025150.681 7  22378284.756        2146.543
   5676044.157 6   -511984.861 5  24439733.984        4225.372
  -7458345.385 6  -5833251.808 6  23500736.700       -3151.809
 93  5  6  7 35  0.0020000  0  7 28 23 21 31 17  3  1                0.002805790
 -16226017.953 7 -12647625.693 8  22227797.166        -752.312
 -14592141.741 8 -11377503.081 9  21718209.937        1264.018
 -18876649.821 8 -14086571.782 9  21665970.423        -839.741
  -3527944.309 5  -2750832.807 5  24787415.609       -2547.937
 -10431496.910 7  -7974840.942 7  22390570.668        2157.535
   5802935.293 6   -413108.724 5  24463880.090        4233.593
  -7552773.484 6  -5906832.101 6  23482767.916       -3143.443
 93  5  6  7 35 30.0020000  0  7 28 23 21 31 17  3  1                0.002809500
 -16248273.554 7 -12664967.735 8  22223562.228        -731.393
 -14554116.113 8 -11347872.718 9  21725446.066        1270.980
 -18901706.247 7 -14106096.267 9  21661202.494        -830.562
  -3604202.655 6  -2810254.859 5  24772904.043       -2535.939
 -10366614.812 7  -7924283.464 7  22402917.452        2168.125
   5930072.954 6   -314040.497 5  24488073.526        4241.945
  -7646951.575 6  -5980217.575 6  23464846.413       -3135.114
 93  5  6  7 36  0.0020000  0  7 28 23 21 31 17  3  1                0.002813210
 -16269915.413 7 -12681831.534 8  22219443.849        -711.249
 -14515901.080 8 -11318094.764 9  21732718.262        1276.849
 -18926500.317 7 -14125416.294 9  21656484.170        -822.144
  -3680109.987 6  -2869403.415 5  24758459.306       -2524.429
 -10301415.560 7  -7873478.870 7  22415324.559        2178.608
   6057447.771 6   -214787.477 5  24512312.088        4249.568
  -7740898.588 6  -6053422.997 6  23446968.951       -3127.951
 93  5  6  7 36 30.0020000  0  7 28 23 21 31 17  3  1                0.002816910
 -16290949.883 7 -12698222.042 8  22215441.070        -690.955
 -14477504.051 8 -11288175.006 9  21740025.133        1283.087
 -18951030.724 7 -14144530.875 9  21651816.160        -813.207
  -3755663.339 6  -2928276.175 5  24744082.342       -2512.467
 -10235898.836 7  -7822426.885 7  22427791.871        2189.093
   6185057.268 6   -115351.592 5  24536595.160        4257.476
  -7834627.982 6  -6126458.822 6  23429132.808       -3120.533
 93  5  6  7 37  0.0020000  0  7 28 23 21 31 17  3  1                0.002820610
 -16311369.295 7 -12714133.281 8  22211555.361        -670.303
 -14438907.614 8 -11258099.842 9  21747369.659        1289.935
 -18975287.462 7 -14163432.227 9  21647200.184        -803.810
  -3830851.996 6  -2986864.709 5  24729773.965       -2500.079
 -10170074.171 7  -7771134.949 7  22440317.932        2199.125
   6312906.853 6    -15728.654 5  24560923.764        4265.564
  -7928118.890 6  -6199308.837 6  23411341.884       -3112.197
 93  5  6  7 37 30.0020000  0  7 28 23 21 31 17  3  1                0.002824300
 -16331175.768 7 -12729566.909 8  22207786.351        -650.089
 -14400112.118 8 -11227869.613 9  21754752.009        1296.438
 -18999274.152 7 -14182123.147 9  21642635.735        -795.236
  -3905677.149 6  -3045169.993 5  24715534.675       -2488.243
 -10103959.457 7  -7719617.002 7  22452899.202        2208.621
   6440989.902 6     84076.272 5  24585297.983        4273.014
  -8021368.287 6  -6271970.673 6  23393596.984       -3104.332
 93  5  6  7 38  0.0020000  0  7 28 23 21 31 17  3  1                0.002827990
 -16350368.784 7 -12744522.522 8  22204133.978        -629.393
 -14361119.385 8 -11197485.663 9  21762172.162        1303.164
 -19023003.727 8 -14200613.711 9  21638120.041        -786.658
  -3980139.747 6  -3103192.762 5  24701365.238       -2475.913
 -10037557.897 7  -7667875.541 7  22465534.823        2217.980
   6569300.031 6    184058.111 5  24609714.911        4280.751
  -8114368.173 6  -6344438.059 6  23375898.751       -3095.524
 93  5  6  7 38 30.0020000  0  7 28 23 21 31 17  3  1                0.002831670
 -16368951.946 7 -12759002.934 8  22200597.684        -609.290
 -14321931.038 8 -11166949.303 9  21769629.559        1309.609
 -19046477.472 7 -14218904.925 9  21633653.142        -777.993
  -4054238.085 6  -3160931.716 5  24687264.992       -2463.739
  -9970891.104 7  -7615927.429 7  22478221.230        2226.648
   6697833.538 6    284213.980 5  24634173.668        4288.188
  -8207097.687 6  -6416694.775 6  23358253.158       -3086.116
 93  5  6  7 39  0.0020000  0  7 28 23 21 31 17  3  1                0.002835350
 -16386928.644 7 -12773010.740 8  22197176.763        -589.343
 -14282544.861 8 -11136258.771 9  21777124.401        1315.935
 -19069685.503 8 -14236989.084 9  21629236.730        -769.339
  -4127962.929 6  -3218379.605 5  24673235.851       -2451.414
  -9903961.588 7  -7563774.551 7  22490957.744        2235.212
   6826594.833 6    384547.371 5  24658675.940        4295.472
  -8299529.782 6  -6488719.720 6  23340663.814       -3076.358
 93  5  6  7 39 30.0020000  0  7 28 23 21 31 17  3  1                0.002839010
 -16404307.248 7 -12786552.516 8  22193869.623        -569.058
 -14242969.034 8 -11105420.471 9  21784655.616        1322.767
 -19092628.120 8 -14254866.452 9  21624870.914        -759.929
  -4201319.864 6  -3275540.816 5  24659276.258       -2438.876
  -9836767.181 7  -7511415.297 7  22503744.313        2244.684
   6955572.116 6    485049.103 5  24683220.012        4303.008
  -8391670.726 6  -6560517.808 6  23323130.221       -3066.208
 93  5  6  7 40  0.0020000  0  7 28 23 21 31 17  3  1                0.002842670
 -16421078.569 7 -12799621.087 8  22190678.275        -548.984
 -14203187.025 8 -11074421.510 9  21792226.086        1329.495
 -19115286.431 8 -14272522.269 9  21620559.127        -750.721
  -4274296.805 6  -3332405.958 5  24645388.902       -2426.214
  -9769281.797 7  -7458829.332 7  22516586.375        2254.575
   7084772.450 5    585724.570 5  24707806.282        4310.184
  -8483509.375 6  -6632080.348 6  23305654.062       -3056.481
 93  5  6  7 40 30.0020000  0  7 28 23 21 31 17  3  1                0.002846320
 -16437248.186 7 -12812220.810 8  22187601.163        -528.950
 -14163193.620 8 -11043257.819 9  21799836.468        1336.764
 -19137672.795 8 -14289966.178 9  21616299.189        -741.894
  -4346897.383 6  -3388977.802 5  24631574.002       -2413.655
  -9701486.732 7  -7406002.042 7  22529487.070        2265.325
   7214187.329 5    686567.235 5  24732432.142        4317.303
  -8575063.338 6  -6703421.063 6  23288231.582       -3047.117
 93  5  6  7 41  0.0020000  0  7 28 23 21 31 17  3  1                0.002849970
 -16452812.013 7 -12824348.475 8  22184639.384        -508.506
 -14122982.224 8 -11011924.270 9  21807488.191        1344.054
 -19159804.525 8 -14307211.653 9  21612087.631        -733.583
  -4419120.823 6  -3445255.808 5  24617830.505       -2401.166
  -9633365.727 7  -7352920.759 7  22542450.147        2276.228
   7343811.895 5    787573.347 5  24757098.766        4324.109
  -8666339.664 6  -6774545.442 6  23270861.966       -3038.074
 93  5  6  7 41 30.0020000  0  7 28 23 21 31 17  3  1                0.002853620
 -16467756.299 7 -12835993.377 8  22181795.563        -487.805
 -14082543.207 8 -10980413.342 9  21815183.503        1351.805
 -19181681.238 8 -14324258.444 9  21607924.826        -724.952
  -4490957.357 6  -3501232.312 5  24604160.709       -2387.998
  -9564903.096 7  -7299573.288 7  22555478.166        2287.767
   7473650.432 5    888746.176 5  24781806.382        4331.442
  -8757342.844 6  -6845456.971 6  23253544.655       -3028.948
 93  5  6  7 42  0.0020000  0  7 28 23 21 31 17  3  1                0.002857280
 -16482092.200 7 -12847164.225 8  22179067.469        -467.651
 -14041888.294 8 -10948734.189 9  21822919.997        1358.652
 -19203319.672 8 -14341119.538 9  21603807.185        -717.527
  -4562405.844 6  -3556906.412 5  24590563.957       -2375.078
  -9496111.807 7  -7245969.730 7  22568568.874        2298.381
   7603698.650 5    990082.361 5  24806554.417        4338.252
  -8848081.997 6  -6916162.766 6  23236277.892       -3020.128
 93  5  6  7 42 30.0020000  0  7 28 23 21 31 17  3  1                0.002860950
 -16495821.192 7 -12857862.148 8  22176455.179        -447.681
 -14001030.427 8 -10916896.885 9  21830694.893        1364.969
 -19224732.883 8 -14357805.139 9  21599732.447        -710.144
  -4633464.349 6  -3612276.664 5  24577041.560       -2362.335
  -9427013.966 7  -7192127.281 7  22581717.552        2307.854
   7733953.565 5   1091579.666 5  24831341.781        4344.794
  -8938556.943 6  -6986662.693 6  23219060.927       -3011.503
 93  5  6  7 43  0.0020000  0  7 28 23 21 31 17  3  1                0.002864630
 -16508937.094 7 -12868082.352 8  22173959.398        -426.491
 -13959985.530 8 -10884913.857 9  21838505.448        1371.475
 -19245912.005 8 -14374308.388 9  21595702.147        -701.516
  -4704132.090 6  -3667342.426 5  24563593.837       -2348.826
  -9357633.074 7  -7138064.283 7  22594920.312        2317.560
   7864410.674 5   1193234.458 5  24856166.567        4352.025
  -9028764.096 6  -7056953.939 6  23201894.973       -3002.162
 93  5  6  7 43 30.0020000  0  7 28 23 21 31 17  3  1                0.002868310
 -16521419.050 7 -12877808.555 8  22171584.102        -405.366
 -13918748.509 8 -10852781.107 9  21846352.604        1377.899
 -19266829.420 8 -14390607.617 9  21591721.601        -692.792
  -4774399.677 6  -3722096.358 5  24550222.506       -2335.613
  -9287965.560 7  -7083777.924 7  22608177.756        2327.012
   7995073.667 5   1295049.701 5  24881030.648        4358.715
  -9118694.727 6  -7127029.705 6  23184781.754       -2992.931
 93  5  6  7 44  0.0020000  0  7 28 23 21 31 17  3  1                0.002871980
 -16533264.263 7 -12887038.602 8  22169330.032        -384.246
 -13877324.923 8 -10820503.004 9  21854235.329        1383.643
 -19287486.480 8 -14406704.031 9  21587790.833        -684.347
  -4844271.431 6  -3776541.846 5  24536925.913       -2322.569
  -9218019.316 7  -7029274.395 7  22621488.170        2336.188
   8125933.175 5   1397018.105 5  24905932.199        4364.857
  -9208338.238 6  -7196881.776 6  23167723.517       -2983.352
 93  5  6  7 44 30.0020000  0  7 28 23 21 31 17  3  1                0.002875650
 -16544459.983 7 -12895762.546 8  22167199.488        -362.412
 -13835717.764 8 -10788081.815 9  21862152.846        1389.940
 -19307868.742 8 -14422586.303 9  21583912.259        -674.534
  -4913747.169 6  -3830678.811 5  24523705.891       -2309.305
  -9147782.951 7  -6974544.775 7  22634853.487        2346.139
   8256983.646 5   1499135.300 5  24930870.636        4371.259
  -9297690.952 6  -7266507.220 6  23150720.109       -2973.546
 93  5  6  7 45  0.0020000  0  7 28 23 21 31 17  3  1                0.002879300
 -16555011.246 7 -12903984.330 8  22165191.588        -341.049
 -13793927.545 8 -10755518.018 9  21870105.102        1396.085
 -19327956.797 8 -14438239.320 9  21580089.635        -664.658
  -4982827.074 6  -3884507.255 5  24510560.233       -2296.010
  -9077248.885 7  -6919583.195 7  22648275.753        2356.145
   8388220.010 5   1601397.411 5  24955844.051        4377.603
  -9386743.741 6  -7335898.962 6  23133773.711       -2963.394
 93  5  6  7 45 30.0020000  0  7 28 23 21 31 17  3  1                0.002882930
 -16564928.785 7 -12911712.292 8  22163304.393        -320.712
 -13751949.869 8 -10722808.149 9  21878093.264        1401.897
 -19347747.287 8 -14453660.474 9  21576323.611        -655.268
  -5051502.474 6  -3938020.547 5  24497492.045       -2282.720
  -9006409.978 7  -6864384.099 7  22661756.074        2365.971
   8519645.654 5   1703806.909 4  24980852.766        4383.516
  -9475484.180 7  -7405047.313 6  23116887.351       -2953.133
 93  5  6  7 46  0.0020000  0  7 28 23 21 31 17  3  1                0.002886550
 -16574243.542 7 -12918970.549 8  22161532.051        -300.547
 -13709806.002 8 -10689968.756 9  21886112.940        1407.468
 -19367260.288 8 -14468865.394 9  21572610.382        -645.869
  -5119778.833 6  -3991222.891 5  24484499.003       -2269.130
  -8935277.405 7  -6808956.161 7  22675292.161        2376.016
   8651249.740 5   1806355.546 4  25005896.636        4389.655
  -9563920.451 6  -7473958.665 6  23100058.162       -2942.902
 93  5  6  7 46 30.0020000  0  7 28 23 21 31 17  3  1                0.002890170
 -16582953.808 7 -12925757.787 8  22159874.508        -280.128
 -13667490.915 8 -10656995.956 9  21894165.175        1413.610
 -19386496.483 8 -14483854.634 9  21568949.766        -636.539
  -5187649.389 6  -4044109.006 5  24471583.355       -2255.384
  -8863847.699 7  -6753296.663 7  22688885.110        2385.964
   8783033.738 6   1909044.343 5  25030974.206        4395.813
  -9652055.974 6  -7542635.654 6  23083286.493       -2932.689
 93  5  6  7 47  0.0020000  0  7 28 23 21 31 17  3  1                0.002893800
 -16591052.314 7 -12932068.321 8  22158333.105        -259.770
 -13624992.559 8 -10623880.371 9  21902252.495        1419.606
 -19405468.075 8 -14498637.686 9  21565339.646        -628.494
  -5255107.160 6  -4096673.519 5  24458746.699       -2241.843
  -8792115.321 7  -6697401.344 7  22702535.233        2396.060
   8914999.331 6   2011874.643 5  25056086.832        4401.659
  -9739890.729 7  -7611078.283 6  23066572.196       -2923.134
 93  5  6  7 47 30.0020000  0  7 28 23 21 31 17  3  1                0.002897420
 -16598529.199 7 -12937894.461 8  22156910.390        -238.542
 -13582308.161 8 -10590619.794 9  21910374.774        1426.048
 -19424202.696 8 -14513236.073 9  21561774.654        -620.319
  -5322154.862 6  -4148918.453 5  24445987.725       -2227.827
  -8720074.216 7  -6641265.425 7  22716244.044        2406.829
   9047138.610 6   2114840.209 5  25081232.042        4407.589
  -9827438.852 7  -7679297.552 6  23049912.376       -2913.242
 93  5  6  7 48  0.0020000  0  7 28 23 21 31 17  3  1                0.002901050
 -16605365.611 7 -12943221.552 8  22155609.621        -216.672
 -13539431.717 8 -10557209.576 9  21918533.925        1432.821
 -19442693.427 8 -14527644.432 9  21558255.821        -612.000
  -5388786.274 6  -4200839.026 5  24433308.521       -2213.819
  -8647713.995 7  -6584880.889 6  22730013.520        2417.599
   9179452.497 6   2217941.859 5  25106410.424        4413.494
  -9914692.766 7  -7747287.584 6  23033308.532       -2903.258
 93  5  6  7 48 30.0020000  0  7 28 23 21 31 17  3  1                0.002904690
 -16611540.122 7 -12948032.867 8  22154434.614        -194.846
 -13496348.205 8 -10523638.005 9  21926732.319        1439.465
 -19460934.061 8 -14541857.896 9  21554784.704        -603.793
  -5454995.424 6  -4252430.557 5  24420709.731       -2199.971
  -8575037.786 7  -6528250.097 6  22743843.555        2427.699
   9311941.411 6   2321179.919 5  25131621.741        4419.037
 -10001641.310 7  -7815039.657 6  23016763.010       -2893.210
 93  5  6  7 49  0.0020000  0  7 28 23 21 31 17  3  1                0.002908330
 -16617066.502 7 -12952339.159 8  22153383.250        -173.649
 -13453067.706 8 -10489912.952 9  21934968.477        1445.786
 -19478923.605 8 -14555875.729 9  21551361.414        -595.498
  -5520785.541 6  -4303695.576 5  24408190.264       -2186.070
  -8502054.757 7  -6471380.242 6  22757731.930        2437.654
   9444597.544 5   2424548.256 5  25156866.152        4424.472
 -10088272.117 7  -7882544.151 6  23000277.139       -2882.173
 93  5  6  7 49 30.0020000  0  7 28 23 21 31 17  3  1                0.002911950
 -16621962.484 7 -12956154.212 8  22152451.637        -152.769
 -13409605.034 8 -10456045.927 9  21943239.082        1451.724
 -19496654.287 8 -14569691.841 9  21547987.400        -586.446
  -5586154.333 6  -4354632.298 5  24395751.017       -2171.748
  -8428784.396 7  -6414286.498 6  22771674.839        2446.950
   9577417.675 5   2528044.458 5  25182141.700        4430.004
 -10174559.239 7  -7949780.811 6  22983857.438       -2870.251
 93  5  6  7 50  0.0020000  0  7 28 23 21 31 17  3  1                0.002915570
 -16626238.998 7 -12959486.570 8  22151637.859        -132.154
 -13365963.646 8 -10422039.643 9  21951543.912        1457.992
 -19514121.695 8 -14583302.782 9  21544663.231        -577.903
  -5651097.526 6  -4405237.365 5  24383392.250       -2157.541
  -8355243.954 7  -6356982.285 6  22785669.296        2455.923
   9710400.589 5   2631667.378 5  25207447.316        4435.494
 -10260487.247 7  -8016737.666 6  22967505.659       -2858.134
 93  5  6  7 50 30.0020000  0  7 28 23 21 31 17  3  1                0.002919190
 -16629899.764 7 -12962339.122 8  22150941.143        -111.827
 -13322136.341 8 -10387888.506 9  21959884.127        1463.904
 -19531334.648 8 -14596715.479 9  21541387.668        -569.501
  -5715609.639 6  -4455506.569 5  24371115.737       -2143.139
  -8281433.582 7  -6299467.726 6  22799714.829        2465.055
   9843547.228 5   2735417.898 5  25232785.698        4440.944
 -10346051.920 7  -8083411.398 7  22951223.230       -2846.067
 93  5  6  7 51  0.0020000  0  7 28 23 21 31 17  3  1                0.002922810
 -16632949.011 7 -12964715.171 8  22150360.673         -91.090
 -13278133.805 8 -10353600.817 9  21968257.433        1469.999
 -19548298.245 8 -14609933.848 9  21538159.502        -561.190
  -5779687.289 6  -4505437.203 5  24358922.501       -2128.378
  -8207343.554 7  -6241735.253 6  22813813.653        2474.467
   9976855.602 5   2839294.481 5  25258152.227        4446.563
 -10431261.666 7  -8149808.569 7  22935008.373       -2834.423
 93  5  6  7 51 30.0020000  0  7 28 23 21 31 17  3  1                0.002926430
 -16635379.955 7 -12966609.420 8  22149898.425         -70.966
 -13233952.905 8 -10319174.137 9  21976664.771        1475.425
 -19565021.129 8 -14622964.655 9  21534977.167        -553.780
  -5843331.232 6  -4555029.865 5  24346811.529       -2114.561
  -8132978.975 7  -6183788.877 6  22827964.860        2483.234
  10110319.181 5   2943292.061 5  25283550.256        4450.756
 -10516141.590 7  -8215948.735 7  22918855.978       -2824.536
 93  5  6  7 52  0.0020000  0  7 28 23 21 31 17  3  1                0.002930050
 -16637185.560 7 -12968016.407 8  22149555.192         -49.661
 -13189589.093 8 -10284604.935 9  21985106.857        1481.757
 -19581501.821 8 -14635806.746 9  21531841.186        -545.103
  -5906543.320 6  -4604286.033 5  24334782.842       -2099.810
  -8058326.935 7  -6125618.483 6  22842170.854        2493.432
  10243931.173 5   3047405.226 5  25308976.258        4456.028
 -10600716.153 7  -8281850.963 7  22902762.262       -2814.155
 93  5  6  7 52 30.0020000  0  7 28 23 21 31 17  3  1                0.002933670
 -16638354.693 7 -12968927.432 8  22149332.447         -28.396
 -13145048.700 8 -10249898.140 9  21993582.719        1487.512
 -19597711.829 8 -14648437.928 9  21528756.822        -535.667
  -5969315.592 6  -4653199.478 5  24322837.283       -2085.104
  -7983368.947 7  -6067209.679 6  22856434.719        2503.612
  10377695.034 5   3151636.755 5  25334429.396        4461.111
 -10684983.790 7  -8347514.016 7  22886726.939       -2803.852
 93  5  6  7 53  0.0020000  0  7 28 23 21 31 17  3  1                0.002937300
 -16638883.595 7 -12969339.575 8  22149231.815          -6.831
 -13100327.977 8 -10215050.841 9  22002092.752        1494.122
 -19613640.399 8 -14660849.784 9  21525725.691        -526.110
  -6031644.401 6  -4701767.390 5  24310976.713       -2070.076
  -7908108.075 7  -6008564.878 6  22870756.174        2513.790
  10511608.413 5   3255984.787 5  25359912.147        4466.268
 -10768938.274 7  -8412933.045 7  22870750.870       -2793.069
 93  5  6  7 53 30.0020000  0  7 28 23 21 31 17  3  1                0.002940930
 -16638778.307 7 -12969257.549 8  22149251.553          13.979
 -13055409.895 8 -10180049.732 9  22010640.311        1500.513
 -19629287.604 8 -14673042.405 9  21522747.871        -516.862
  -6093529.732 6  -4749989.696 5  24299200.686       -2055.469
  -7832547.214 7  -5949686.293 6  22885135.170        2523.806
  10645666.224 5   3360445.370 5  25385423.142        4470.933
 -10852563.662 7  -8478095.658 7  22854837.305       -2781.680
 93  5  6  7 54  0.0020000  0  7 28 23 21 31 17  3  1                0.002944550
 -16638044.640 7 -12968685.876 8  22149391.272          34.941
 -13010302.520 8 -10144901.140 9  22019224.028        1506.740
 -19644653.350 8 -14685015.705 9  21519823.937        -507.562
  -6154969.457 6  -4797864.815 5  24287508.802       -2040.497
  -7756684.601 7  -5890572.592 6  22899571.110        2533.690
  10779865.997 5   3465016.502 5  25410960.017        4475.550
 -10935833.802 7  -8542981.445 7  22838991.336       -2769.636
 93  5  6  7 54 30.0020000  0  7 28 23 21 31 17  3  1                0.002948160
 -16636686.191 7 -12967627.360 8  22149649.739          55.953
 -12965001.223 8 -10109601.427 9  22027844.701        1513.606
 -19659753.356 8 -14696781.927 9  21516950.236        -499.106
  -6215962.512 6  -4845391.855 5  24275902.051       -2025.529
  -7680536.657 7  -5831236.553 6  22914061.834        2542.986
  10914203.672 6   3569695.226 5  25436523.932        4480.213
 -11018743.843 7  -8607586.630 7  22823214.026       -2757.667
 93  5  6  7 55  0.0020000  0  7 28 23 21 31 17  3  1                0.002951780
 -16634693.532 7 -12966074.632 8  22150029.055          76.974
 -12919491.038 8 -10074138.944 9  22036504.896        1520.360
 -19674607.801 8 -14708356.815 9  21514123.472        -491.141
  -6276502.508 6  -4892565.871 5  24264381.520       -2010.423
  -7604109.878 7  -5771683.270 6  22928605.406        2552.238
  11048679.886 5   3674481.873 5  25462114.157        4484.732
 -11101293.214 7  -8671910.777 7  22807505.824       -2745.717
